     2.10           OBSERVATION DATA    G (GPS)             RINEX VERSION / TYPE
teqc 2002Apr3 Duncan Agnew 20050511 23:58:24UTC             PGM / RUN BY / DATE
OSX 5.3|G3|cc|OSX 5.3+|G3+                                  COMMENT
BIT 2 OF LLI FLAGS DATA COLLECTED UNDER A/S CONDITION       COMMENT
IMP CO GPS 0002 1995                                        MARKER NAME
2771                                                        MARKER NUMBER
Juan Cabrera Nolte Engineering                              OBSERVER / AGENCY
220242771 TRIMBLE 4800 NP 1.30 / SP 1.43                    REC # / TYPE / VERS
N/A TRM4800                                                 ANT # / TYPE
 -2313192.0000 -4851279.0000  3422789.0000                  APPROX POSITION XYZ
        2.0000        0.0000        0.0000                  ANTENNA: DELTA H/E/N
     1     1                                                WAVELENGTH FACT L1/2
     7    C1    L1    L2    P1    P2    S1    S2            # / TYPES OF OBSERV
SNR is mapped to RINEX snr flag value [1-9]                 COMMENT
L1: 3 -> 1; 8 -> 5; 40 -> 9                                 COMMENT
L2: 1 -> 1; 5 -> 5; 60 -> 9                                 COMMENT
  2004     7     6    17    57   50.0000000     GPS         TIME OF FIRST OBS
                                                            END OF HEADER
 04  7  6 17 57 50.0000000  0  8G 3G 9G14G15G18G19G21G22
  22601426.8824    1410972.70259   1085658.05157                  22601426.7774
        44.7504         35.5004
  23626855.7834    1286022.72959    993372.66057                  23626856.3574
        39.5004         27.5004
  20463734.0864   -1020252.58159   -790258.76758                  20463732.5614
        52.5004         45.5004
  20169721.8144     297944.54359    226871.41858                  20169720.8534
        53.2504         45.5004
  22744210.5914    2042662.06059   1568564.79757                  22744209.0714
        48.0004         33.7504
  23024980.0434   -1420878.97359  -1098582.21857                  23024977.9624
        46.0004         33.7504
  23021154.6194    3162415.26759   2438174.00957                  23021152.0084
        46.0004         28.7504
  21261294.7284     732675.78459    559459.35458                  21261291.1724
        52.7504         42.0004
 04  7  6 17 58  0.0000000  0  8G 3G 9G14G15G18G19G21G22
  22604251.5194    1425816.06449   1097224.29747                  22604251.3914
        44.5004         36.2504
  23629692.3604    1300925.69849   1004985.36047                  23629692.2814
        39.7504         27.2504
  20462466.2674   -1026915.51249   -795450.65248                  20462464.5714
        52.2504         45.7504
  20170702.7114     303097.01949    230886.33148                  20170701.3744
        52.2504         46.0004
  22747698.8124    2060994.10149   1582849.51547                  22747697.3564
        47.5004         33.7504
  23023052.9574   -1431007.83049  -1106474.83947                  23023050.6414
        46.0004         33.5004
  23026834.9524    3192268.18649   2461436.01347                  23026833.7554
        45.7504         29.5004
  21262596.8774     739517.74049    564790.74548                  21262593.6094
        51.2504         42.0004
 04  7  6 17 58 10.0000000  0  8G 3G 9G14G15G18G19G21G22
  22607083.8544    1440698.60849   1108821.06547                  22607083.9414
        46.7504         36.5004
  23632538.6514    1315885.54349   1016642.36347                  23632539.3374
        40.5004         28.2504
  20461208.1114   -1033528.64149   -800603.74248                  20461206.2564
        52.5004         46.0004
  20171692.2704     308299.22649    234939.99448                  20171690.9294
        53.0004         45.5004
  22751188.1354    2079329.11249   1597136.53047                  22751186.2274
        48.0004         33.5004
  23021135.6214   -1441082.66949  -1114325.35447                  23021133.5184
        46.5004         33.7504
  23032520.3004    3222146.66349   2484717.93147                  23032518.9254
        45.5004         29.0004
  21263900.0124     746368.17649    570128.73448                  21263896.7844
        52.2504         42.0004
 04  7  6 17 58 20.0000000  0  8G 3G 9G14G15G18G19G21G22
  22609923.4804    1455621.90049   1120449.59747                  22609924.0634
        45.0004         37.5004
  23635397.4444    1330903.85849   1028344.93347                  23635396.7864
        41.7504         28.2504
  20459959.3114   -1040090.38649   -805716.79148                  20459957.7264
        52.0004         46.0004
  20172691.8314     313552.80349    239033.68648                  20172690.9884
        53.0004         45.7504
  22754677.8364    2097668.72149   1611427.12047                  22754675.8654
        47.5004         34.0004
  23019229.1654   -1451101.88549  -1122132.53247                  23019226.7924
        46.5004         33.7504
  23038211.7444    3252052.29749   2508020.98347                  23038209.8434
        45.7504         28.5004
  21265205.9334     753228.67349    575474.57548                  21265202.6334
        51.0004         42.2504
 04  7  6 17 58 30.0000000  0  8G 3G 9G14G15G18G19G21G22
  22612770.9414    1470585.59549   1132109.60647                  22612770.8934
        45.0004         37.0004
  23638266.7054    1345980.34949   1040092.81347                  23638265.8264
        39.7504         28.5004
  20458720.6154   -1046601.01049   -810790.00248                  20458718.5194
        51.7504         45.7504
  20173701.4864     318857.60549    243167.29448                  20173699.9874
        51.5004         45.7504
  22758168.4604    2116012.79449   1625721.18247                  22758166.7254
        47.5004         33.7504
  23017333.2054   -1461065.58149  -1129896.46647                  23017330.8404
        46.0004         34.5004
  23043907.3924    3281984.89349   2531345.07947                  23043906.0704
        45.5004         29.7504
  21266512.9664     760099.09449    580828.14648                  21266510.2484
        51.5004         42.0004
 04  7  6 17 58 40.0000000  0  8G 3G 9G14G15G18G19G21G22
  22615626.2524    1485589.99449   1143801.33047                  22615626.2994
        45.0004         36.5004
  23641145.1964    1361115.29549   1051886.28747                  23641146.1394
        40.0004         28.0004
  20457491.4364   -1053060.21349   -815823.15748                  20457489.5814
        52.5004         45.5004
  20174720.7674     324213.95049    247341.05948                  20174719.6574
        50.7504         45.7504
  22761659.9794    2134361.65849   1640019.00647                  22761658.7124
        47.5004         33.5004
  23015448.1614   -1470973.43249  -1137616.87747                  23015444.8044
        46.7504         34.0004
  23049608.6014    3311944.79349   2554690.42947                  23049607.0734
        46.0004         30.0004
  21267822.5494     766979.71649    586189.67348                  21267819.1794
        52.5004         42.0004
 04  7  6 17 58 50.0000000  0  8G 3G 9G14G15G18G19G21G22
  22618489.7234    1500638.10849   1155527.13947                  22618489.9184
        46.7504         36.0004
  23644038.1254    1376311.82149   1063727.73347                  23644037.1534
        40.7504         27.0004
  20456272.5124   -1059464.82449   -820813.75548                  20456270.8444
        52.0004         46.0004
  20175750.3794     329624.95249    251557.42248                  20175749.3074
        52.2504         45.5004
  22765153.4864    2152718.44749   1654322.98447                  22765151.2304
        46.5004         32.7504
  23013574.1004   -1480822.32049  -1145291.34147                  23013570.8154
        46.2504         34.0004
  23055315.7594    3341934.89449   2578059.32947                  23055314.1034
        45.5004         29.5004
  21269134.2054     773873.72349    591561.62548                  21269131.6804
        52.5004         42.0004
 04  7  6 17 59  0.0000000  0  8G 3G 9G14G15G18G19G21G22
  22621361.3924    1515729.29249   1167286.48147                  22621361.5414
        44.2504         36.2504
  23646941.0354    1391569.36249   1075616.69047                  23646940.5164
        42.0004         26.7504
  20455063.9584   -1065815.31849   -825762.19348                  20455062.6564
        53.0004         45.5004
  20176790.3424     335090.13749    255816.00548                  20176789.0144
        51.0004         45.5004
  22768648.4584    2171082.60849   1668632.72047                  22768646.2074
        47.2504         33.2504
  23011710.7974   -1490612.75749  -1152920.25747                  23011707.6004
        45.7504         32.7504
  23061028.3564    3371954.70349   2601451.36447                  23061026.7494
        46.2504         29.7504
  21270448.7154     780780.51749    596943.54248                  21270445.8134
        52.5004         42.0004
 04  7  6 17 59 10.0000000  0  8G 3G 9G14G15G18G19G21G22
  22624241.5084    1530863.82249   1179079.61247                  22624241.6894
        47.0004         36.5004
  23649855.7394    1406888.17049   1087553.42647                  23649855.4744
        39.7504         26.5004
  20453866.0474   -1072111.45349   -830668.28448                  20453864.4094
        52.7504         46.0004
  20177840.5584     340609.88149    260117.09648                  20177839.5674
        52.0004         45.5004
  22772143.7154    2189454.52349   1682948.49747                  22772142.3324
        47.0004         33.5004
  23009858.6734   -1500344.26549  -1160503.25947                  23009855.8604
        46.0004         33.0004
  23066746.6604    3402004.51249   2624866.79447                  23066744.9314
        45.7504         30.0004
  21271765.9624     787700.44949    602335.68548                  21271762.7814
        51.7504         42.0004
 04  7  6 17 59 20.0000000  0  8G 3G 9G14G15G18G19G21G22
  22627130.3614    1546043.96549   1190908.28847                  22627130.4954
        46.2504         36.2504
  23652782.6714    1422270.54449   1099539.65047                  23652782.3824
        40.2504         27.0004
  20452678.6784   -1078350.97649   -835530.24948                  20452677.1194
        52.5004         46.0004
  20178902.0364     346186.47649    264462.48348                  20178901.1174
        51.7504         45.5004
  22775642.1974    2207836.40349   1697272.02847                  22775640.6164
        46.5004         33.5004
  23008018.7054   -1510014.66549  -1168038.63847                  23008016.3284
        46.0004         34.0004
  23072470.6594    3432086.55649   2648307.33347                  23072470.0814
        45.0004         29.7504
  21273085.4154     794635.78449    607739.83348                  21273082.3504
        52.5004         42.0004
 04  7  6 17 59 30.0000000  0  8G 3G 9G14G15G18G19G21G22
  22630027.3274    1561270.79849   1202773.34047                  22630027.5244
        47.5004         36.7504
  23655722.4174    1437717.49349   1111576.22747                  23655722.9024
        41.0004         26.5004
  20451502.2594   -1084532.73349   -840347.19748                  20451500.1704
        52.2504         46.5004
  20179974.2024     351821.15949    268853.14848                  20179973.0114
        53.2504         45.7504
  22779141.7664    2226229.55149   1711604.33647                  22779140.6534
        47.0004         34.0004
  23006190.4534   -1519622.65849  -1175525.38847                  23006188.2854
        46.7504         34.5004
  23078202.1044    3462201.94149   2671773.82347                  23078200.8724
        44.7504         30.2504
  21274408.2094     801587.71149    613156.92348                  21274405.1684
        53.0004         42.2504
 04  7  6 17 59 40.0000000  0  8G 3G 9G14G15G18G19G21G22
  22632933.8474    1576542.64149   1214673.46447                  22632934.2314
        47.5004         36.2504
  23658674.1864    1453227.48449   1123661.93447                  23658674.1144
        40.2504         27.0004
  20450336.7224   -1090658.30449   -845120.37848                  20450334.6234
        52.2504         46.0004
  20181057.1904     357512.35349    273287.83148                  20181055.6684
        53.0004         45.7504
  22782643.9314    2244632.29349   1725944.12847                  22782642.4724
        47.0004         34.2504
  23004373.5444   -1529169.91649  -1182964.80747                  23004370.9684
        46.0004         34.2504
  23083938.7794    3492349.04749   2695265.06747                  23083937.5604
        44.5004         29.2504
  21275733.6514     808554.62549    618585.67948                  21275730.8664
        52.2504         42.0004
 04  7  6 17 59 50.0000000  0  8G 3G 9G14G15G18G19G21G22
  22635848.7714    1591859.56349   1226608.72847                  22635848.5684
        46.2504         36.5004
  23661637.3994    1468800.69249   1135796.87947                  23661638.2824
        39.7504         26.5004
  20449181.8724   -1096727.48649   -849849.61748                  20449180.1034
        52.5004         46.2504
  20182151.0824     363260.31749    277766.76248                  20182149.9224
        53.0004         45.7504
  22786147.3554    2263044.93649   1740291.62147                  22786146.5214
        47.5004         33.2504
  23002568.5634   -1538656.15349  -1190356.68547                  23002565.9644
        46.0004         34.0004
  23089681.5004    3522528.00149   2718781.12747                  23089680.2484
        45.0004         29.5004
  21277062.2964     815536.74249    624026.28248                  21277059.0904
        52.7504         42.0004
 04  7  6 18  0  0.0000000  0  8G 3G 9G14G15G18G19G21G22
  22638771.9174    1607219.96949   1238577.85147                  22638772.3474
        47.7504         36.7504
  23664612.1764    1484435.45349   1147979.80747                  23664613.0084
        39.7504         27.2504
  20448037.5334   -1102741.87649   -854536.15048                  20448035.5744
        52.5004         46.0004
  20183255.5594     369063.49249    282288.70948                  20183254.2524
        53.0004         45.5004
  22789653.5494    2281465.86049   1754645.58147                  22789651.8054
        47.0004         33.0004
  23000774.4224   -1548082.90849  -1197702.21747                  23000771.5064
        46.0004         33.5004
  23095430.2664    3552737.18849   2742320.73247                  23095428.9824
        45.5004         29.7504
  21278393.9764     822532.55049    629477.55348                  21278390.3864
        52.5004         42.0004
 04  7  6 18  0 10.0000000  0  8G 3G 9G14G15G18G19G21G22
  22641703.2854    1622624.89449   1250581.69347                  22641703.3684
        45.7504         36.7504
  23667600.0554    1500132.84949   1160211.51047                  23667600.0474
        40.7504         28.0004
  20446903.4584   -1108700.32649   -859179.10048                  20446900.9514
        52.5004         45.5004
  20184370.2314     374922.95249    286854.51948                  20184369.0264
        53.2504         45.5004
  22793160.6524    2299896.14849   1769006.84747                  22793158.7904
        47.7504         33.2504
  22998992.6774   -1557449.01349  -1205000.47847                  22998989.7454
        47.0004         33.5004
  23101184.7034    3582977.73049   2765884.78447                  23101183.6384
        45.7504         29.5004
  21279728.1504     829543.12249    634940.34448                  21279724.6384
        52.2504         42.2504
 04  7  6 18  0 20.0000000  0  8G 3G 9G14G15G18G19G21G22
  22644642.6114    1638073.59649   1262619.61647                  22644642.6154
        47.7504         36.5004
  23670599.4694    1515892.26849   1172491.55747                  23670599.0514
        41.0004         27.5004
  20445780.3364   -1114603.42849   -863778.93248                  20445778.2434
        52.2504         46.5004
  20185495.7504     380838.21849    291463.80748                  20185494.8624
        53.2504         45.5004
  22796669.3334    2318335.17749   1783374.90047                  22796667.0684
        46.5004         33.2504
  22997221.1424   -1566755.02649  -1212251.92547                  22997218.9134
        46.5004         34.2504
  23106945.1594    3613249.02649   2789472.76247                  23106944.1744
        45.5004         30.0004
  21281064.8104     836567.84849    640414.14648                  21281061.4674
        52.0004         42.0004
 04  7  6 18  0 30.0000000  0  8G 3G 9G14G15G18G19G21G22
  22647590.9684    1653564.24749   1274690.24747                  22647590.9054
        47.5004         36.7504
  23673609.5374    1531711.86449   1184818.53247                  23673609.2514
        40.5004         28.2504
  20444667.1174   -1120453.05849   -868337.08048                  20444664.7544
        52.2504         46.2504
  20186631.8654     386807.50949    296115.19948                  20186630.7344
        53.0004         45.5004
  22800179.3394    2336781.33149   1797748.51647                  22800177.4504
        47.0004         33.5004
  22995461.7284   -1576002.66749  -1219457.88547                  22995458.7494
        47.0004         34.0004
  23112711.2014    3643549.17249   2813083.24247                  23112709.4094
        46.2504         28.7504
  21282403.7944     843604.93349    645897.58448                  21282399.9744
        52.0004         42.0004
 04  7  6 18  0 40.0000000  0  8G 3G 9G14G15G18G19G21G22
  22650545.8574    1669095.88549   1286792.81447                  22650546.4154
        47.2504         36.2504
  23676631.4744    1547590.74749   1197191.64447                  23676631.6564
        40.2504         29.0004
  20443563.8664   -1126250.06149   -872854.22448                  20443562.0234
        52.5004         46.2504
  20187777.8114     392830.00649    300808.04848                  20187776.9284
        52.2504         45.5004
  22803690.7094    2355233.63249   1812126.92247                  22803688.9694
        48.0004         33.7504
  22993712.8004   -1585192.79849  -1226619.04047                  22993709.9714
        47.0004         34.0004
  23118482.4824    3673877.04549   2836715.32847                  23118481.1084
        45.5004         29.0004
  21283745.0594     850653.52549    651389.99448                  21283742.0524
        52.0004         41.7504
 04  7  6 18  0 50.0000000  0  8G 3G 9G14G15G18G19G21G22
  22653508.7314    1684665.86649   1298925.25847                  22653509.6784
        45.5004         36.0004
  23679663.1884    1563526.24549   1209608.90247                  23679664.1774
        40.5004         29.0004
  20442470.1574   -1131996.99949   -877332.36348                  20442468.2274
        52.7504         46.5004
  20188933.9764     398903.17249    305540.37848                  20188932.4264
        52.2504         45.7504
  22807202.7134    2373689.53949   1826508.12747                  22807201.3574
        46.7504         33.5004
  22991974.6624   -1594328.04149  -1233737.39847                  22991971.9644
        47.0004         34.2504
  23124258.2274    3704230.37049   2860367.27447                  23124257.3974
        45.5004         28.2504
  21285087.9714     857711.07449    656889.38148                  21285084.9094
        52.0004         41.7504
 04  7  6 18  1  0.0000000  0  8G 3G 9G14G15G18G19G21G22
  22656479.5854    1700277.00849   1311089.76847                  22656479.4014
        45.2504         35.5004
  23682707.3244    1579521.26249   1222072.54747                  23682707.2944
        40.7504         28.5004
  20441386.7464   -1137690.96549   -881769.22448                  20441384.7574
        52.7504         46.0004
  20190099.4314     405029.97249    310314.49648                  20190098.3464
        52.5004         45.2504
  22810716.0234    2392151.93049   1840894.39447                  22810714.4604
        48.0004         33.2504
  22990246.5524   -1603405.42949  -1240810.69747                  22990243.9234
        45.5004         33.7504
  23130039.4204    3734611.96049   2884041.20947                  23130038.6774
        44.7504         28.7504
  21286433.1084     864780.43549    662397.96748                  21286429.6844
        52.5004         41.7504
 04  7  6 18  1 10.0000000  0  8G 3G 9G14G15G18G19G21G22
  22659457.7664    1715926.57249   1323284.22847                  22659457.1864
        46.5004         35.0004
  23685761.0944    1595572.94849   1234580.36047                  23685762.1524
        39.2504         28.0004
  20440312.5684   -1143334.76149   -886166.98848                  20440310.9744
        52.0004         46.2504
  20191275.1994     411207.62149    315128.25148                  20191273.8534
        51.2504         45.5004
  22814230.0614    2410618.15449   1855283.66547                  22814228.5774
        47.0004         33.0004
  22988530.5874   -1612427.71149  -1247841.05247                  22988527.3384
        46.0004         33.7504
  23135826.5954    3765018.97049   2907734.95847                  23135824.5294
        46.2504         29.7504
  21287780.0354     871858.91949    667913.67148                  21287777.1844
        51.2504         42.0004
 04  7  6 18  1 20.0000000  0  8G 3G 9G14G15G18G19G21G22
  22662443.3744    1731615.11049   1335509.06147                  22662442.9524
        46.2504         35.2504
  23688826.4174    1611681.98849   1247132.84047                  23688827.4894
        39.5004         27.5004
  20439248.6564   -1148927.69949   -890525.12648                  20439246.7674
        52.2504         46.0004
  20192460.6534     417436.81749    319982.16648                  20192459.1534
        50.7504         45.5004
  22817745.0714    2429088.85649   1869676.41247                  22817742.9854
        47.7504         33.2504
  22986823.7764   -1621394.12249  -1254827.86947                  22986820.7694
        46.0004         33.7504
  23141618.0354    3795451.87849   2931448.88747                  23141616.3554
        47.5004         29.2504
  21289129.0224     878947.15049    673436.96248                  21289125.8534
        48.7504         42.5004
 04  7  6 18  1 30.0000000  0  8G 3G 9G14G15G18G19G21G22
  22665435.8804    1747342.18049   1347763.89047                  22665435.4204
        45.0004         35.5004
  23691903.0384    1627848.00949   1259729.70647                  23691903.9204
        39.7504         27.2504
  20438193.8384   -1154470.17549   -894843.94148                  20438192.1784
        52.5004         46.2504
  20193655.4674     423717.20249    324875.96548                  20193654.5624
        52.2504         45.5004
  22821260.4814    2447563.62149   1884072.32547                  22821258.9234
        47.5004         33.0004
  22985128.6404   -1630305.03649  -1261771.46547                  22985125.2424
        46.7504         33.7504
  23147413.5944    3825910.41749   2955182.80647                  23147411.9314
        46.5004         29.2504
  21290479.1904     886044.76549    678967.56248                  21290476.3334
        50.5004         42.0004
 04  7  6 18  1 40.0000000  0  8G 3G 9G14G15G18G19G21G22
  22668435.8264    1763105.88349   1360047.28047                  22668435.8224
        44.7504         35.5004
  23694989.4554    1644069.10549   1272369.52247                  23694990.6404
        37.0004         27.0004
  20437148.5174   -1159964.01749   -899124.86548                  20437146.4414
        52.2504         46.5004
  20194860.2774     430047.04749    329808.30548                  20194858.9054
        53.5004         45.5004
  22824777.2024    2466040.73349   1898470.06647                  22824775.0244
        47.7504         33.0004
  22983443.0244   -1639162.21349  -1268673.16847                  22983439.9224
        47.2504         34.7504
  23153214.5554    3856392.86349   2978935.32947                  23153212.5964
        45.5004         29.0004
  21291832.0354     893149.99449    684504.10448                  21291828.9784
        51.7504         41.7504
 04  7  6 18  1 50.0000000  0  8G 3G 9G14G15G18G19G21G22
  22671442.7614    1778906.90049   1372359.76747                  22671442.6994
        44.2504         35.0004
  23698087.3534    1660345.95049   1285052.76047                  23698087.6924
        39.2504         28.2504
  20436112.7244   -1165408.48949   -903367.30948                  20436110.8524
        52.7504         46.5004
  20196074.2864     436427.14249    334779.80248                  20196073.3384
        51.0004         45.5004
  22828293.6244    2484520.91249   1912870.21047                  22828291.8214
        48.0004         33.2504
  22981767.8494   -1647964.85049  -1275532.36747                  22981765.1844
        47.5004         34.0004
  23159019.2714    3886899.77249   3002706.91647                  23159018.1234
        46.0004         28.0004
  21293185.2844     900263.60849    690047.18348                  21293181.9564
        48.7504         41.7504
 04  7  6 18  2  0.0000000  0  8G 3G 9G14G15G18G19G21G22
  22674456.4974    1794746.20649   1384702.05347                  22674456.3814
        47.2504         35.7504
  23701196.0004    1676679.55449   1297780.24247                  23701195.7824
        38.2504         28.7504
  20435085.8204   -1170802.50949   -907570.44248                  20435084.2914
        52.2504         46.5004
  20197298.0824     442858.51249    339791.25848                  20197297.3624
        49.7504         45.7504
  22831810.8544    2503005.17949   1927273.50447                  22831809.1004
        47.5004         33.5004
  22980103.1624   -1656711.91249  -1282348.26647                  22980100.9094
        47.0004         35.0004
  23164829.5854    3917432.19549   3026498.40847                  23164827.8054
        45.5004         28.2504
  21294540.7934     907386.71349    695597.64148                  21294537.7064
        47.2504         42.2504
 04  7  6 18  2 10.0000000  0  8G 3G 9G14G15G18G19G21G22
  22677477.6594    1810622.59549   1397073.26347                  22677477.2414
        45.7504         35.7504
  23704314.5494    1693068.95249   1310551.19147                  23704314.9954
        38.0004         28.0004
  20434068.8124   -1176147.15749   -911735.10448                  20434067.0164
        52.7504         46.2504
  20198531.3654     449340.14249    344841.87248                  20198530.5094
        48.2504         45.7504
  22835329.0504    2521492.52849   1941679.23647                  22835327.4414
        48.2504         33.2504
  22978449.1854   -1665404.43249  -1289121.65747                  22978446.9854
        48.0004         34.7504
  23170644.3014    3947989.06049   3050308.91647                  23170643.1084
        45.0004         28.2504
  21295898.0304     914518.17549    701154.62448                  21295894.8364
        47.2504         42.2504
 04  7  6 18  2 20.0000000  0  8G 3G 9G14G15G18G19G21G22
  22680505.9774    1826536.10449   1409473.38547                  22680505.8094
        45.0004         35.0004
  23707444.7524    1709513.96949   1323365.47947                  23707444.3384
        38.5004         27.7504
  20433061.1314   -1181442.40949   -915861.28048                  20433059.5814
        52.5004         46.5004
  20199774.6244     455872.15449    349931.73948                  20199773.5294
        48.5004         46.0004
  22838847.2024    2539983.05649   1956087.43347                  22838845.9154
        47.7504         33.5004
  22976805.4224   -1674042.30249  -1295852.45447                  22976803.2974
        46.7504         34.0004
  23176464.4094    3978570.32049   3074138.45247                  23176462.6604
        45.0004         26.2504
  21297256.8134     921658.06149    706718.16448                  21297253.0314
        47.2504         42.2504
 04  7  6 18  2 30.0000000  0  8G 3G 9G14G15G18G19G21G22
  22683541.4494    1842485.32549   1421901.33647                  22683541.0914
        45.7504         35.5004
  23710583.4974    1726013.31649   1336222.08547                  23710584.4234
        39.0004         26.7504
  20432062.8874   -1186689.62749   -919950.02048                  20432060.6034
        52.0004         46.2504
  20201026.9944     462453.18449    355059.81648                  20201025.7514
        50.2504         45.5004
  22842366.3104    2558475.41149   1970497.04847                  22842365.0824
        47.7504         33.7504
  22975172.0034   -1682626.84349  -1302541.70947                  22975169.6304
        47.5004         33.7504
  23182287.6754    4009174.55249   3097985.87447                  23182285.9494
        44.7504         28.0004
  21298617.1214     928805.01249    712287.21748                  21298613.5464
        47.7504         42.2504
 04  7  6 18  2 40.0000000  0  8G 3G 9G14G15G18G19G21G22
  22686583.7814    1858473.42249   1434359.57247                  22686583.7434
        45.5004         34.5004
  23713734.3824    1742570.18649   1349123.53847                  23713734.6904
        41.0004         26.7504
  20431074.0314   -1191885.60049   -923998.84248                  20431072.1364
        52.7504         46.2504
  20202289.1234     469086.52849    360228.64048                  20202288.2214
        52.5004         45.5004
  22845886.2124    2576972.94149   1984910.69147                  22845885.1404
        46.7504         33.0004
  22973548.8414   -1691154.77649  -1309186.86947                  22973546.4954
        47.5004         34.0004
  23188116.3304    4039804.93949   3121853.67047                  23188115.4214
        45.0004         27.5004
  21299978.6954     935962.29649    717864.30148                  21299976.0354
        49.2504         42.0004
 04  7  6 18  2 50.0000000  0  8G 3G 9G14G15G18G19G21G22
  22689632.4984    1874496.91849   1446845.41347                  22689632.9644
        44.7504         34.0004
  23716895.5254    1759181.19749   1362067.21047                  23716896.2094
        40.5004         28.0004
  20430094.5954   -1197033.60849   -928010.27748                  20430092.3344
        52.2504         46.5004
  20203560.8184     475768.90849    365435.69148                  20203559.6004
        52.0004         45.5004
  22849406.7754    2595472.25549   1999325.73247                  22849405.8294
        46.7504         33.0004
  22971937.1334   -1699629.37849  -1315790.46647                  22971933.3274
        48.5004         33.7504
  23193949.9724    4070458.18549   3145739.29147                  23193947.9674
        46.5004         28.7504
  21301342.0094     943126.64949    723446.91548                  21301339.3214
        51.0004         42.5004
 04  7  6 18  3  0.0000000  0  8G 3G 9G14G15G18G19G21G22
  22692688.9764    1890557.19749   1459359.90447                  22692688.8674
        46.7504         34.0004
  23720065.7944    1775847.67949   1375054.06847                  23720067.7894
        40.2504         27.0004
  20429124.2324   -1202132.30149   -931983.27948                  20429122.1404
        51.7504         46.0004
  20204841.8814     482501.69049    370682.01348                  20204840.9024
        53.5004         45.7504
  22852927.9844    2613974.70849   2013743.23547                  22852926.4904
        47.2504         32.5004
  22970333.5804   -1708049.27749  -1322351.42047                  22970331.3414
        48.0004         34.0004
  23199786.9934    4101135.70149   3169643.81747                  23199786.5004
        46.0004         29.0004
  21302706.7864     950299.32949    729036.01448                  21302703.6494
        52.0004         42.5004
 04  7  6 18  3 10.0000000  0  8G 3G 9G14G15G18G19G21G22
  22695752.3034    1906654.17249   1471902.97947                  22695752.2684
        46.5004         34.5004
  23723248.4154    1792569.62549   1388084.13147                  23723249.0924
        39.2504         27.0004
  20428163.1884   -1207181.66749   -935917.86048                  20428161.0224
        52.0004         46.5004
  20206132.7534     489284.99749    375967.69048                  20206131.5464
        52.7504         46.2504
  22856450.0284    2632480.44549   2028163.26847                  22856447.9744
        47.2504         33.2504
  22968742.2964   -1716414.42449  -1328869.72447                  22968739.9114
        47.0004         34.2504
  23205629.6334    4131837.39149   3193567.17247                  23205629.1254
        45.7504         28.7504
  21304073.7114     957480.42849    734631.66648                  21304070.2794
        51.5004         42.5004
 04  7  6 18  3 20.0000000  0  8G 3G 9G14G15G18G19G21G22
  22698822.2364    1922789.93249   1484476.28547                  22698822.9464
        44.7504         34.2504
  23726441.5094    1809349.13349   1401159.06447                  23726442.8294
        37.0004         27.0004
  20427212.3284   -1212179.58749   -939812.35048                  20427210.1914
        52.0004         46.5004
  20207433.7954     496120.91449    381294.37648                  20207432.5924
        53.2504         45.7504
  22859972.1434    2650991.51749   2042587.47047                  22859970.6214
        46.7504         33.7504
  22967161.4474   -1724722.67049  -1335343.68447                  22967158.7244
        47.2504         33.5004
  23211477.0504    4162565.28449   3217510.97347                  23211476.3024
        46.0004         28.5004
  21305442.2014     964672.12349    740235.57548                  21305439.2674
        52.0004         42.2504
 04  7  6 18  3 30.0000000  0  8G 3G 9G14G15G18G19G21G22
  22701899.5354    1938960.98449   1497077.09447                  22701899.6564
        44.0004         34.5004
  23729644.8474    1826182.73149   1414276.13547                  23729645.4234
        38.5004         26.5004
  20426270.2234   -1217129.45349   -943669.38348                  20426268.3424
        52.2504         46.0004
  20208743.8384     503006.12649    386659.46848                  20208742.9164
        53.7504         45.7504
  22863494.4844    2669504.65449   2057013.30247                  22863493.5204
        46.0004         33.7504
  22965590.4684   -1732977.38149  -1341775.91147                  22965587.6364
        47.5004         34.0004
  23217328.3984    4193316.04649   3241472.57347                  23217327.8184
        46.5004         29.0004
  21306812.4154     971871.02349    745845.10248                  21306809.2144
        51.5004         42.5004
 04  7  6 18  3 40.0000000  0  8G 3G 9G14G15G18G19G21G22
  22704983.6164    1955167.75449   1509705.72747                  22704983.5474
        46.0004         34.2504
  23732858.8114    1843070.96249   1427435.77747                  23732859.8444
        38.0004         26.2504
  20425337.5864   -1222030.70949   -947488.54348                  20425335.6834
        52.5004         46.5004
  20210063.5994     509941.24049    392063.44748                  20210062.3194
        54.0004         45.7504
  22867018.2314    2688020.25649   2071441.02647                  22867016.9784
        47.0004         34.0004
  22964029.9754   -1741177.90749  -1348165.95147                  22964026.5604
        47.7504         33.7504
  23223184.7464    4224090.18749   3265452.40647                  23223184.5434
        45.2504         29.5004
  21308183.9244     979077.73249    751460.71448                  21308180.0184
        51.2504         42.0004
 04  7  6 18  3 50.0000000  0  8G 3G 9G14G15G18G19G21G22
  22708074.9764    1971410.73949   1522362.60447                  22708075.3544
        46.2504         34.0004
  23736082.8534    1860014.35149   1440638.44947                  23736083.6844
        37.0004         27.0004
  20424414.4774   -1226882.80749   -951269.40048                  20424412.5524
        52.5004         45.7504
  20211392.7334     516926.77749    397506.70848                  20211392.0424
        52.5004         45.0004
  22870541.8774    2706538.95649   2085871.16947                  22870540.7864
        46.5004         32.7504
  22962479.8114   -1749323.76449  -1354513.36547                  22962476.9744
        47.2504         33.5004
  23229045.4634    4254888.15349   3289450.78647                  23229045.1174
        46.0004         29.0004
  21309556.5154     986292.74049    757082.78648                  21309552.9644
        49.7504         41.5004
 04  7  6 18  4  0.0000000  0  8G 3G 9G14G15G18G19G21G22
  22711172.3034    1987689.41349   1535047.26347                  22711172.7034
        45.5004         34.2504
  23739318.2594    1877012.35149   1453883.62646                  23739318.7114
        37.5004         25.5004
  20423500.1054   -1231686.25249   -955012.33648                  20423498.4494
        52.2504         46.2504
  20212731.7514     523962.29549    402988.93348                  20212730.5174
        52.5004         45.5004
  22874066.5934    2725060.33249   2100303.39747                  22874065.1914
        47.5004         33.7504
  22960939.9374   -1757415.27049  -1360818.45647                  22960936.6344
        47.2504         34.2504
  23234910.6594    4285709.42449   3313467.33147                  23234910.2124
        46.0004         29.7504
  21310931.0504     993515.59449    762710.98748                  21310927.8014
        50.0004         42.0004
 04  7  6 18  4 10.0000000  0  8G 3G 9G14G15G18G19G21G22
  22714276.9124    2004004.12349   1547760.00347                  22714277.8104
        45.5004         34.0004
  23742563.1444    1894065.26349   1467171.59047                  23742563.7924
        38.0004         26.7504
  20422595.5744   -1236440.66149   -958717.08148                  20422593.9574
        52.0004         46.2504
  20214080.2944     531048.22949    408510.43848                  20214079.0194
        52.2504         45.5004
  22877591.7044    2743584.83649   2114738.06447                  22877590.5634
        47.5004         33.5004
  22959410.9224   -1765452.05749  -1367080.89647                  22959407.7624
        47.7504         34.2504
  23240780.1604    4316554.42049   3337502.38547                  23240779.5244
        45.7504         29.2504
  21312306.8294    1000746.71149    768345.62548                  21312304.2944
        49.0004         42.0004
 04  7  6 18  4 20.0000000  0  8G 3G 9G14G15G18G19G21G22
  22717388.8284    2020355.35449   1560501.20347                  22717389.3984
        45.7504         33.5004
  23745818.5594    1911173.67249   1480502.80447                  23745819.9534
        37.0004         27.5004
  20421700.0664   -1241145.45749   -962383.15548                  20421698.1884
        53.0004         46.7504
  20215438.2934     538185.17449    414071.68448                  20215437.4464
        51.7504         45.7504
  22881117.1874    2762112.94949   2129175.54447                  22881116.0744
        46.7504         33.2504
  22957891.7364   -1773433.50749  -1373300.20847                  22957889.2274
        47.7504         34.2504
  23246654.3154    4347423.65449   3361556.32747                  23246653.8984
        45.5004         30.0004
  21313684.6634    1007986.68349    773987.15448                  21313681.3654
        49.7504         42.0004
 04  7  6 18  4 30.0000000  0  8G 3G 9G14G15G18G19G21G22
  22720506.8854    2036743.07749   1573270.84347                  22720507.1464
        46.0004         33.2504
  23749084.7394    1928337.51049   1493877.21347                  23749085.9424
        39.2504         27.2504
  20420814.3684   -1245800.60949   -966010.55048                  20420812.6694
        52.5004         46.5004
  20216806.1924     545373.19349    419672.72848                  20216805.2964
        53.0004         45.5004
  22884644.2674    2780644.73749   2143615.87847                  22884642.5024
        48.0004         33.2504
  22956383.2964   -1781359.61549  -1379476.39747                  22956381.1634
        47.2504         34.5004
  23252533.3924    4378317.14649   3385629.13547                  23252532.4374
        45.2504         28.5004
  21315064.1604    1015235.52049    779635.59548                  21315060.4474
        49.2504         42.0004
 04  7  6 18  4 40.0000000  0  8G 3G 9G14G15G18G19G21G22
  22723632.4214    2053166.08849   1586067.97447                  22723632.2144
        46.7504         32.7504
  23752360.9224    1945555.66349   1507293.92347                  23752362.1544
        40.0004         27.0004
  20419937.7354   -1250407.31949   -969600.20248                  20419936.0424
        52.0004         46.2504
  20218183.4654     552611.16549    425312.69648                  20218182.7144
        52.7504         45.0004
  22888170.6894    2799179.18549   2158058.29547                  22888169.6364
        47.5004         33.2504
  22954885.9614   -1789231.54549  -1385610.39947                  22954882.8774
        47.2504         34.2504
  23258416.8214    4409233.67249   3409719.90147                  23258415.9484
        46.0004         29.2504
  21316444.7314    1022492.15149    785290.10348                  21316441.9284
        49.7504         41.7504
 04  7  6 18  4 50.0000000  0  8G 3G 9G14G15G18G19G21G22
  22726764.3064    2069624.91549   1598893.02747                  22726764.5064
        44.7504         34.0004
  23755648.3844    1962828.67249   1520753.38847                  23755648.8464
        41.5004         28.0004
  20419070.1544   -1254964.94749   -973151.59048                  20419068.3534
        53.0004         46.2504
  20219570.4094     559899.78649    430992.14048                  20219569.2894
        51.5004         45.5004
  22891698.4624    2817716.87849   2172503.25647                  22891697.2714
        47.2504         33.0004
  22953398.1274   -1797048.60049  -1391701.60947                  22953395.3984
        48.2504         35.0004
  23264304.1934    4440173.84249   3433829.10747                  23264303.2324
        46.5004         30.0004
  21317827.3144    1029757.19249    790951.17548                  21317824.1204
        50.0004         43.0004
 04  7  6 18  5  0.0000000  0  8G 3G 9G14G15G18G19G21G22
  22729903.4014    2086120.83049   1611746.97847                  22729903.1774
        45.7504         33.2504
  23758946.5374    1980157.83749   1534256.65247                  23758946.7114
        41.5004         27.5004
  20418212.7664   -1259472.13749   -976663.68448                  20418210.8064
        51.7504         46.0004
  20220966.9914     567240.38649    436712.08048                  20220965.9924
        51.7504         45.2504
  22895227.2094    2836259.19549   2186951.80647                  22895225.8854
        47.0004         33.0004
  22951921.6714   -1804809.35849  -1397748.97047                  22951918.9954
        48.2504         35.0004
  23270196.9214    4471139.01049   3457957.76647                  23270196.2754
        46.2504         29.7504
  21319211.6324    1037031.93049    796619.79648                  21319208.7664
        48.0004         42.0004
 04  7  6 18  5 10.0000000  0  8G 3G 9G14G15G18G19G21G22
  22733048.9174    2102652.91749   1624629.11847                  22733049.3144
        46.0004         34.0004
  23762254.8514    1997542.40549   1547803.04747                  23762254.4474
        39.5004         27.2504
  20417364.5004   -1263929.63849   -980137.07148                  20417362.5654
        51.5004         46.0004
  20222374.1554     574632.23449    442471.95348                  20222373.2314
        51.0004         45.7504
  22898756.1924    2854805.40949   2201403.38247                  22898755.2654
        46.2504         33.2504
  22950455.2754   -1812514.54349  -1403753.02947                  22950452.5394
        48.5004         34.5004
  23276094.0184    4502128.22749   3482105.16247                  23276093.5124
        46.0004         29.0004
  21320597.7064    1044315.66649    802295.42648                  21320594.7274
        49.5004         42.0004
 04  7  6 18  5 20.0000000  0  8G 3G 9G14G15G18G19G21G22
  22736201.9414    2119219.66349   1637538.24347                  22736202.5234
        45.7504         33.0004
  23765572.8004    2014980.84449   1561391.45247                  23765572.6094
        41.0004         28.5004
  20416525.4024   -1268339.04249   -983572.97448                  20416523.8604
        50.2504         46.0004
  20223790.1654     582073.87049    448270.62848                  20223788.7684
        49.7504         45.0004
  22902286.0804    2873353.94949   2215856.77847                  22902284.6654
        45.5004         32.2504
  22948999.4854   -1820165.65949  -1409714.92447                  22948996.9454
        46.5004         35.0004
  23281995.7764    4533139.97449   3506270.14847                  23281994.3234
        45.5004         28.2504
  21321985.2864    1051606.85349    807976.86548                  21321981.9934
        48.0004         41.2504
 04  7  6 18  5 30.0000000  0  8G 3G 9G14G15G18G19G21G22
  22739361.3464    2135821.25449   1650474.54547                  22739361.8194
        45.2504         33.7504
  23768901.4644    2032473.43149   1575022.03347                  23768901.7204
        41.7504         29.5004
  20415695.5654   -1272699.94849   -986971.07948                  20415693.4374
        52.0004         46.5004
  20225215.6954     589565.68049    454108.39848                  20225214.2474
        52.7504         45.7504
  22905816.0834    2891905.14149   2230312.26247                  22905814.9304
        47.2504         32.0004
  22947553.3274   -1827762.33849  -1415634.42147                  22947551.1594
        47.5004         34.5004
  23287901.2124    4564174.50249   3530452.87447                  23287899.9104
        46.0004         28.7504
  21323374.0654    1058905.92749    813664.45348                  21323371.4624
        49.7504         42.0004
 04  7  6 18  5 40.0000000  0  8G 3G 9G14G15G18G19G21G22
  22742527.2464    2152458.03749   1663438.24247                  22742526.9534
        47.5004         33.5004
  23772241.1194    2050020.45549   1588695.05747                  23772240.5864
        42.5004         28.0004
  20414874.8394   -1277011.99149   -990331.11448                  20414872.8214
        52.0004         46.5004
  20226650.7804     597108.03549    459985.54548                  20226649.5924
        53.2504         45.7504
  22909347.0424    2910459.52249   2244770.20147                  22909345.1374
        47.2504         32.0004
  22946118.2814   -1835304.15349  -1421511.16347                  22946116.4624
        47.7504         35.0004
  23293810.8274    4595232.31549   3554653.74047                  23293810.0174
        46.2504         29.0004
  21324764.8694    1066213.28449    819358.49548                  21324761.1944
        50.7504         41.7504
 04  7  6 18  5 50.0000000  0  8G 3G 9G14G15G18G19G21G22
  22745699.9484    2169131.62649   1676430.63347                  22745700.1074
        46.5004         33.7504
  23775590.4934    2067623.52549   1602411.72347                  23775590.4154
        43.5004         28.5004
  20414064.0824   -1281273.55749   -993651.81048                  20414061.8194
        51.7504         46.0004
  20228096.3774     604702.64349    465903.41448                  20228094.8794
        53.2504         45.5004
  22912878.3244    2929018.74049   2259231.91847                  22912877.2824
        47.2504         31.2504
  22944694.6054   -1842789.46649  -1427343.87347                  22944691.6224
        48.5004         34.5004
  23299726.5314    4626314.98949   3578873.97147                  23299724.7614
        46.0004         29.2504
  21326157.7384    1073530.56049    825060.25748                  21326153.7984
        51.5004         41.7504
 04  7  6 18  6  0.0000000  0  8G 3G 9G14G15G18G19G21G22
  22748879.7924    2185841.94249   1689451.64947                  22748880.0084
        45.0004         33.2504
  23778951.2164    2085282.59249   1616172.05047                  23778951.4444
        40.7504         28.5004
  20413262.6474   -1285484.68149   -996933.21248                  20413260.8054
        52.5004         46.0004
  20229551.4194     612349.52349    471862.02048                  20229550.2244
        53.5004         45.5004
  22916411.1574    2947582.72049   2273697.35247                  22916409.3604
        47.5004         31.2504
  22943279.9464   -1850218.24849  -1433132.54847                  22943278.0984
        47.7504         34.2504
  23305646.2864    4657422.44449   3603113.53147                  23305644.8254
        46.5004         29.5004
  21327551.9994    1080857.74949    830769.75248                  21327548.6024
        51.2504         42.5004
 04  7  6 18  6 10.0000000  0  8G 3G 9G14G15G18G19G21G22
  22752066.0294    2202586.15649   1702499.06047                  22752066.4594
        44.0004         33.7504
  23782321.5534    2102994.92649   1629973.86647                  23782321.5664
        41.7504         27.7504
  20412470.4704   -1289648.01049  -1000177.36548                  20412468.3114
        52.0004         46.0004
  20231015.9804     620045.95349    477859.23048                  20231014.6354
        54.5004         45.0004
  22919944.3524    2966148.79949   2288164.42047                  22919942.4534
        46.7504         30.5004
  22941876.6324   -1857593.14849  -1438879.23247                  22941874.0084
        47.7504         34.0004
  23311569.7354    4688552.01849   3627370.29447                  23311568.8174
        46.2504         28.7504
  21328947.2724    1088192.12049    836484.84948                  21328944.1374
        50.2504         42.5004
 04  7  6 18  6 20.0000000  0  8G 3G 9G14G15G18G19G21G22
  22755259.4274    2219364.47449   1715573.07147                  22755258.8584
        45.5004         34.0004
  23785702.0944    2120760.71149   1643817.32647                  23785702.3984
        41.0004         28.5004
  20411687.1504   -1293763.35049  -1003384.12748                  20411685.1984
        52.0004         46.2504
  20232489.8264     627792.26949    483895.31348                  20232488.8104
        53.0004         46.0004
  22923477.8604    2984717.27549   2302633.34347                  22923475.8314
        46.0004         31.0004
  22940483.8554   -1864913.91649  -1444583.73947                  22940481.0014
        47.0004         32.5004
  23317497.8914    4719703.86449   3651644.44047                  23317496.5804
        45.7504         29.7504
  21330344.3314    1095534.01849    842205.79748                  21330341.3504
        51.2504         43.0004
 04  7  6 18  6 30.0000000  0  8G 3G 9G14G15G18G19G21G22
  22758458.2114    2236177.47749   1728674.11147                  22758458.2344
        45.0004         33.5004
  23789093.0014    2138580.50449   1657702.89247                  23789092.7444
        43.5004         28.5004
  20410913.5284   -1297830.08249  -1006553.01448                  20410911.4804
        52.0004         46.0004
  20233973.6114     635589.11049    489970.77348                  20233972.6204
        53.7504         45.5004
  22927011.9574    3003288.88749   2317104.71847                  22927009.8374
        46.0004         30.5004
  22939101.2574   -1872179.91749  -1450245.56747                  22939098.2074
        48.0004         32.7504
  23323430.1424    4750878.56949   3675936.39047                  23323429.0964
        46.0004         29.2504
  21331743.1744    1102883.96949    847933.01648                  21331740.1274
        50.2504         42.5004
 04  7  6 18  6 40.0000000  0  8G 3G 9G14G15G18G19G21G22
  22761665.1744    2253026.76049   1741803.40647                  22761665.2704
        46.5004         33.7504
  23792494.7854    2156456.00849   1671631.84247                  23792494.9984
        41.7504         28.7504
  20410149.2554   -1301846.62349  -1009682.78048                  20410147.1564
        52.0004         46.2504
  20235467.4414     643438.19249    496086.93848                  20235466.1394
        53.7504         45.7504
  22930546.6924    3021865.23649   2331579.78647                  22930544.6254
        45.5004         31.5004
  22937729.7754   -1879389.37849  -1455863.34547                  22937726.5954
        48.2504         34.5004
  23329366.9984    4782077.76649   3700247.43047                  23329366.2164
        46.2504         29.0004
  21333143.8604    1110243.78149    853667.93348                  21333140.7654
        49.5004         42.5004
 04  7  6 18  6 50.0000000  0  9G 3G 9G14G15G18G19G21G22G25
  22764877.8704    2269910.98149   1754959.92447                  22764878.4134
        44.5004         34.5004
  23795906.6874    2174385.92849   1685603.22747                  23795907.0474
        39.7504         29.0004
  20409394.2004   -1305814.14849  -1012774.36048                  20409392.1644
        51.7504         46.7504
  20236970.5244     651338.29749    502242.85248                  20236969.6394
        51.2504         45.7504
  22934082.5104    3040445.06849   2346057.56747                  22934080.3054
        44.2504         30.7504
  22936367.7054   -1886543.58249  -1461438.03947                  22936365.4994
        48.0004         33.7504
  23335308.0614    4813300.09249   3724576.50647                  23335307.3804
        46.2504         29.0004
  21334545.8014    1117612.14049    859409.51148                  21334542.9324
        47.2504         42.2504
  24285609.0734     -25550.18659
        36.0004
 04  7  6 18  7  0.0000000  0  9G 3G 9G14G15G18G19G21G22G25
  22768097.6984    2286831.66949   1768144.85947                  22768098.1634
        45.0004         34.7504
  23799329.1804    2192371.78649   1699618.13847                  23799329.6164
        40.7504         29.5004
  20408648.5554   -1309731.08149  -1015826.51648                  20408647.0424
        52.0004         46.2504
  20238484.0464     659291.13049    508439.85948                  20238482.9744
        48.5004         45.7504
  22937618.9854    3059029.98749   2360539.33247                  22937617.0964
        44.2504         31.5004
  22935017.5734   -1893640.87749  -1466968.40347                  22935015.1954
        47.2504         34.2504
  23341254.6504    4844547.17049   3748924.82647                  23341253.7214
        46.7504         28.5004
  21335949.9304    1124990.65449    865158.99948                  21335946.9864
        47.2504         42.2504
  24279037.0334     -60091.40149    -31201.26356                  24279037.8814
        38.0004         22.0004
 04  7  6 18  7 20.0000000  0  9G 3G 9G14G15G18G19G21G22G25
  22774557.8304    2320778.64349   1794597.02147                  22774557.7744
        47.0004         35.0004
  23806205.7184    2228507.69749   1727775.95547                  23806206.9444
        40.7504         28.0004
  20407186.1204   -1317416.60449  -1021815.24548                  20407184.5984
        51.7504         46.0004
  20241540.2744     675351.46949    520954.39648                  20241539.1064
        49.0004         45.0004
  22944694.9114    3096211.95749   2389512.29147                  22944692.7394
        46.7504         31.0004
  22932347.9614   -1907668.18949  -1477898.78647                  22932345.5054
        47.5004         33.5004
  23353159.9334    4907112.13549   3797676.68347                  23353159.8264
        45.2504         28.5004
  21338763.3564    1139774.87749    876679.16848                  21338760.0604
        47.0004         41.5004
  24265887.4544    -129193.82749    -85047.22546                  24265887.6624
        41.0004         20.5004
 04  7  6 18  7 30.0000000  0  9G 3G 9G14G15G18G19G21G22G25
  22777797.9794    2337806.87749   1807865.76247                  22777798.2304
        46.5004         34.7504
  23809659.9604    2246659.76749   1741920.43147                  23809660.7054
        41.2504         28.2504
  20406469.5314   -1321183.12049  -1024750.19648                  20406467.7504
        51.5004         46.2504
  20243083.3464     683461.06949    527273.56048                  20243081.9414
        50.7504         45.7504
  22948233.4154    3114811.09349   2404005.12247                  22948232.3644
        43.7504         31.5004
  22931029.2764   -1914596.01949  -1483297.09247                  22931027.0104
        47.0004         33.5004
  23359120.1184    4938431.93449   3822081.68447                  23359119.3004
        46.0004         26.5004
  21340172.9054    1147182.74649    882451.52348                  21340169.8824
        47.5004         42.0004
  24259311.1374    -163752.59949   -111976.18546                  24259311.0294
        40.5004         21.5004
 04  7  6 18  7 40.0000000  0  9G 3G 9G14G15G18G19G21G22G25
  22781044.8784    2354869.36749   1821161.18747                  22781045.6124
        46.0004         34.2504
  23813124.1654    2264865.62549   1756106.79647                  23813125.4674
        39.5004         27.5004
  20405762.0534   -1324900.96849  -1027647.20448                  20405760.0674
        52.0004         46.0004
  20244636.2784     691621.48249    533632.31548                  20244635.3704
        53.2504         45.2504
  22951773.6974    3133413.52849   2418500.51147                  22951772.2434
        43.2504         31.7504
  22929721.4984   -1921468.74649  -1488652.48147                  22929718.9674
        47.5004         33.0004
  23365084.9484    4969774.40249   3846504.36547                  23365083.4274
        46.5004         26.5004
  21341584.2914    1154598.94749    888230.37948                  21341580.6774
        50.0004         42.0004
  24252733.8174    -198318.36649   -138910.48646                  24252733.3234
        41.7504         22.2504
 04  7  6 18  7 50.0000000  0  9G 3G 9G14G15G18G19G21G22G25
  22784298.3974    2371965.06049   1834482.48347                  22784298.9254
        46.5004         35.5004
  23816598.4584    2283124.30449   1770334.35547                  23816599.5444
        39.2504         27.5004
  20405063.6294   -1328571.12849  -1030507.07548                  20405061.7714
        52.2504         46.0004
  20246198.6454     699831.79449    540029.95448                  20246197.3854
        53.7504         45.7504
  22955314.2774    3152018.35349   2432997.77447                  22955312.7504
        43.2504         32.7504
  22928424.3344   -1928287.29949  -1493965.63947                  22928421.2734
        48.0004         33.7504
  23371052.6084    5001138.51449   3870943.91447                  23371051.4774
        46.0004         27.0004
  21342996.6824    1162022.52649    894014.98948                  21342993.5794
        50.2504         42.0004
  24246154.2274    -232892.09349   -165851.04546                  24246154.3164
        41.5004         21.7504
 04  7  6 18  8  0.0000000  0  9G 3G 9G14G15G18G19G21G22G25
  22787557.9534    2389095.34249   1847830.75147                  22787558.2054
        46.5004         34.5004
  23820084.0924    2301437.28149   1784604.14747                  23820084.3574
        39.0004         26.7504
  20404374.7414   -1332192.16049  -1033328.66748                  20404372.5474
        51.7504         46.5004
  20247771.1324     708093.54849    546467.67648                  20247769.8064
        53.0004         45.5004
  22958855.5624    3170627.06649   2447498.05547                  22958854.2714
        42.0004         32.5004
  22927137.1784   -1935050.18849  -1499235.42647                  22927134.3664
        48.0004         33.5004
  23377025.4104    5032525.72549   3895401.50747                  23377024.3324
        45.7504         26.2504
  21344411.1934    1169455.04749    899806.56048                  21344408.1434
        49.2504         41.7504
  24239573.8934    -267472.15849   -192796.50946                  24239574.2064
        41.2504         22.7504
 04  7  6 18  8 10.0000000  0  9G 3G 9G14G15G18G19G21G22G25
  22790824.0314    2406258.80149   1861204.86447                  22790824.1114
        45.0004         34.5004
  23823578.6744    2319803.12049   1798915.21847                  23823579.6264
        39.2504         26.0004
  20403695.1514   -1335765.48249  -1036113.07448                  20403692.8064
        52.0004         46.0004
  20249353.0184     716405.31849    552944.37348                  20249351.6474
        53.0004         45.5004
  22962397.2874    3189238.18149   2462000.21047                  22962395.5864
        43.0004         32.5004
  22925860.6484   -1941758.77749  -1504462.90347                  22925858.4224
        47.7504         33.5004
  23383002.7704    5063934.63649   3919875.93646                  23383001.3334
        45.7504         24.7504
  21345826.9884    1176895.07549    905603.96548                  21345823.6414
        49.0004         41.7504
  24232991.7594    -302059.83449   -219747.89846                  24232991.9864
        40.7504         22.5004
 04  7  6 18  8 20.0000000  0  9G 3G 9G14G15G18G19G21G22G25
  22794096.2624    2423456.52949   1874605.68747                  22794096.3204
        43.2504         33.7504
  23827083.3184    2338222.93449   1813268.31546                  23827084.7044
        38.5004         25.5004
  20403023.7194   -1339289.80449  -1038859.29748                  20403021.9304
        52.0004         46.0004
  20250944.0594     724768.38949    559461.04848                  20250942.9274
        53.0004         45.2504
  22965938.9884    3207853.10249   2476505.34847                  22965937.8934
        42.2504         33.0004
  22924594.6624   -1948411.84149  -1509647.10147                  22924592.2994
        47.2504         34.0004
  23388983.8734    5095366.48949   3944368.25047                  23388982.2804
        45.5004         26.2504
  21347244.2434    1184343.86049    911408.21748                  21347241.3994
        50.7504         42.0004
  24226408.8384    -336653.64549   -246704.07447                  24226409.1904
        41.5004         25.7504
 04  7  6 18  8 30.0000000  0  9G 3G 9G14G15G18G19G21G22G25
  22797376.3124    2440689.57749   1888034.02947                  22797376.1704
        46.5004         33.5004
  23830599.9174    2356697.79449   1827664.29147                  23830600.4164
        41.0004         27.7504
  20402362.8054   -1342764.06549  -1041566.52048                  20402360.6364
        51.0004         45.5004
  20252545.2194     733183.92649    566018.60248                  20252544.1944
        54.2504         45.2504
  22969482.4354    3226472.94849   2491014.29347                  22969481.2194
        44.0004         32.2504
  22923339.7504   -1955008.24449  -1514787.16547                  22923336.8064
        48.0004         33.0004
  23394969.5084    5126822.29049   3968879.25247                  23394968.0744
        45.0004         25.7504
  21348663.8894    1191802.57849    917220.19648                  21348660.8944
        51.7504         41.5004
  24219824.0354    -371252.53849   -273664.18546                  24219825.3264
        40.0004         23.0004
 04  7  6 18  8 40.0000000  0  9G 3G 9G14G15G18G19G21G22G25
  22800661.9334    2457956.04449   1901488.40447                  22800662.1144
        44.5004         34.7504
  23834125.2704    2375225.86549   1842101.74047                  23834125.0904
        42.5004         26.7504
  20401711.0894   -1346190.16149  -1044236.20148                  20401708.6684
        51.2504         46.2504
  20254156.8404     741650.08049    572615.60448                  20254155.7374
        53.2504         46.0004
  22973026.1744    3245095.84949   2505525.65847                  22973025.2094
        42.7504         33.0004
  22922094.8064   -1961549.73049  -1519884.42247                  22922091.4084
        48.2504         34.0004
  23400960.3654    5158300.15849   3993407.42047                  23400958.5804
        46.0004         27.5004
  21350084.3844    1199269.40349    923038.50048                  21350081.4724
        51.5004         42.2504
  24213239.7264    -405858.12949   -300629.54246                  24213239.8384
        39.5004         22.5004
 04  7  6 18  8 50.0000000  0  9G 3G 9G14G15G18G19G21G22G25
  22803954.0474    2475257.19049   1914969.79747                  22803954.6574
        46.5004         34.0004
  23837661.0904    2393808.49049   1856581.67846                  23837661.5474
        41.5004         25.5004
  20401068.4124   -1349566.65649  -1046867.24048                  20401066.3524
        51.7504         46.2504
  20255777.8324     750168.29849    579253.17348                  20255776.4074
        53.7504         45.5004
  22976570.9264    3263723.25649   2520040.48947                  22976570.1234
        44.2504         33.2504
  22920860.2784   -1968034.89849  -1524937.82647                  22920857.6654
        47.5004         34.0004
  23406954.6074    5189801.40949   4017953.81347                  23406952.9994
        47.0004         27.0004
  21351507.6314    1206745.62749    928864.12448                  21351504.1214
        52.0004         41.2504
  24206652.6024    -440469.01549   -327599.03946                  24206653.8494
        39.5004         22.2504
 04  7  6 18  9  0.0000000  0  9G 3G 9G14G15G18G19G21G22G25
  22807253.0244    2492592.75149   1928478.01747                  22807252.9564
        45.0004         35.0004
  23841207.6914    2412445.33049   1871103.89547                  23841208.0344
        42.5004         25.7504
  20400435.4774   -1352893.85149  -1049459.85748                  20400432.9374
        51.5004         46.0004
  20257408.1514     758738.25249    585931.04248                  20257406.9324
        53.2504         46.0004
  22980116.3924    3282354.95649   2534558.68647                  22980115.6714
        44.0004         33.2504
  22919637.6494   -1974464.08849  -1529947.58647                  22919634.3014
        48.2504         34.0004
  23412953.4264    5221325.75549   4042518.22447                  23412952.1484
        46.0004         26.5004
  21352931.7714    1214231.03149    934696.89848                  21352928.1064
        50.5004         41.2504
  24200066.6614    -475085.28549   -354572.73446                  24200066.5724
        40.0004         22.2504
 04  7  6 18  9 10.0000000  0  9G 3G 9G14G15G18G19G21G22G25
  22810558.3404    2509962.03949   1942012.51847                  22810558.3584
        45.5004         34.5004
  23844764.5734    2431135.81349   1885667.87047                  23844764.4364
        41.2504         27.0004
  20399811.1294   -1356172.32149  -1052014.50548                  20399808.9764
        52.0004         46.0004
  20259049.0624     767359.45549    592648.85848                  20259047.6494
        53.5004         45.7504
  22983662.3944    3300990.23849   2549079.67747                  22983661.5144
        43.0004         32.0004
  22918424.2574   -1980837.81549  -1534914.13047                  22918422.2554
        47.2504         34.7504
  23418956.2194    5252872.60449   4067100.15647                  23418955.4754
        45.7504         26.0004
  21354357.6344    1221725.08149    940536.42048                  21354354.0954
        51.2504         41.7504
  24193477.4874    -509707.44149   -381551.00546                  24193477.8604
        38.5004         21.7504
 04  7  6 18  9 20.0000000  0  9G 3G 9G14G15G18G19G21G22G25
  22813869.7594    2527365.44749   1955573.60947                  22813869.8864
        46.5004         34.2504
  23848331.7074    2449880.22849   1900273.95747                  23848332.2624
        40.0004         27.0004
  20399196.7774   -1359401.64549  -1054530.86948                  20399194.6324
        51.0004         46.0004
  20260699.3484     776032.36349    599406.96848                  20260697.8934
        53.7504         45.5004
  22987209.3774    3319629.62049   2563603.84147                  22987208.3424
        42.0004         31.5004
  22917222.0804   -1987155.55049  -1539837.05247                  22917219.8804
        47.0004         34.5004
  23424964.3074    5284442.37249   4091699.93947                  23424963.0284
        45.5004         27.7504
  21355785.5154    1229228.27949    946383.06048                  21355781.8544
        51.5004         41.2504
  24186887.9154    -544334.83249   -408533.32346                  24186888.3894
        39.0004         22.2504
 04  7  6 18  9 30.0000000  0  9G 3G 9G14G15G18G19G21G22G25
  22817188.2974    2544802.74249   1969161.10347                  22817188.1774
        45.5004         34.5004
  23851908.4584    2468678.49849   1914921.90547                  23851909.3164
        40.2504         26.5004
  20398591.7824   -1362581.90549  -1057008.99648                  20398589.6164
        50.7504         46.0004
  20262359.6734     784756.94049    606205.32948                  20262358.1994
        53.2504         45.7504
  22990757.1844    3338273.09649   2578131.23047                  22990755.9914
        42.0004         31.7504
  22916030.9624   -1993417.36949  -1544716.38047                  22916028.0674
        47.0004         34.2504
  23430975.9024    5316034.91249   4116317.49147                  23430974.8504
        45.2504         26.7504
  21357215.3524    1236740.51449    952236.74548                  21357211.7384
        50.2504         41.0004
  24180297.1684    -578967.42049   -435519.74846                  24180298.1594
        39.0004         21.0004
 04  7  6 18  9 40.0000000  0  9G 3G 9G14G15G18G19G21G22G25
  22820512.7024    2562274.16749   1982775.16947                  22820513.3614
        46.5004         34.0004
  23855496.6464    2487530.84249   1929612.04247                  23855496.8684
        39.5004         27.5004
  20397995.9194   -1365712.80949  -1059448.65748                  20397993.8234
        50.7504         46.0004
  20264029.9354     793533.44849    613044.16848                  20264028.5444
        53.0004         45.5004
  22994305.6554    3356920.92049   2592661.98247                  22994304.4974
        41.0004         31.0004
  22914848.9304   -1999623.03549  -1549551.98247                  22914847.1504
        48.0004         33.7504
  23436991.9784    5347650.36649   4140952.87347                  23436991.1844
        45.5004         26.5004
  21358646.4794    1244262.05649    958097.68348                  21358643.3604
        51.5004         40.7504
  24173706.6924    -613604.89149   -462509.99146                  24173707.0924
        39.5004         22.0004
 04  7  6 18  9 50.0000000  0  9G 3G 9G14G15G18G19G21G22G25
  22823843.8794    2579777.83649   1996414.38747                  22823843.4514
        45.7504         34.5004
  23859094.0984    2506435.40749   1944342.80047                  23859094.6104
        39.0004         27.5004
  20397409.0064   -1368796.32749  -1061851.40648                  20397406.8424
        50.2504         46.5004
  20265709.3494     802360.06149    619922.04448                  20265708.1794
        53.5004         45.5004
  22997854.4844    3375571.26949   2607194.71347                  22997853.5274
        42.5004         32.0004
  22913679.1984   -2005774.42249  -1554345.26247                  22913676.9014
        47.7504         35.0004
  23443012.1944    5379287.01349   4165604.79347                  23443011.5264
        45.0004         27.2504
  21360079.2374    1251791.07349    963964.44648                  21360075.5814
        50.2504         41.2504
  24167113.6144    -648248.89449   -489505.33546                  24167114.0694
        39.0004         22.2504
 04  7  6 18 10  0.0000000  0  9G 3G 9G14G15G18G19G21G22G25
  22827181.0594    2597317.79049   2010081.87447                  22827181.7824
        45.5004         34.7504
  23862702.5044    2525396.23649   1959117.50647                  23862702.5814
        38.5004         28.0004
  20396832.4404   -1371828.29849  -1064213.98948                  20396830.4144
        50.7504         46.0004
  20267399.4294     811241.01549    626842.25548                  20267398.3434
        54.0004         45.5004
  23001405.4044    3394228.35149   2621732.69047                  23001404.2314
        42.0004         31.2504
  22912519.7234   -2011867.25749  -1559092.93347                  22912517.0544
        48.0004         34.5004
  23449037.5884    5410948.93249   4190276.35647                  23449036.6974
        45.5004         25.7504
  21361514.3244    1259331.72849    969840.27648                  21361510.9674
        50.7504         41.5004
  24160520.5374    -682895.34049   -516502.52546                  24160521.0344
        38.0004         21.7504
 04  7  6 18 10 10.0000000  0  9G 3G 9G14G15G18G19G21G22G25
  22830525.8644    2614892.95049   2023776.77847                  22830525.8324
        44.5004         34.0004
  23866320.4594    2544412.31549   1973935.20747                  23866321.2894
        39.2504         27.5004
  20396264.5144   -1374809.75849  -1066537.20348                  20396262.6744
        50.0004         46.5004
  20269099.2434     820175.31049    633804.03448                  20269098.5914
        53.5004         45.7504
  23004956.5174    3412891.24149   2636275.18747                  23004955.3014
        42.5004         32.0004
  22911371.5624   -2017902.58149  -1563795.79147                  22911368.6084
        48.2504         35.5004
  23455067.2624    5442634.98349   4214966.75947                  23455065.8504
        45.5004         26.2504
  21362951.1744    1266883.08749    975724.44048                  21362948.3894
        49.5004         41.7504
  24153927.2914    -717545.00349   -543502.25546                  24153927.6544
        37.2504         22.2504
 04  7  6 18 10 20.0000000  0  9G 3G 9G14G15G18G19G21G22G25
  22833876.6054    2632500.51849   2037496.94747                  22833877.0764
        46.0004         34.0004
  23869949.1684    2563480.88149   1988793.81647                  23869949.7714
        40.5004         27.0004
  20395706.5564   -1377743.37149  -1068823.13648                  20395704.5024
        50.5004         46.5004
  20270809.5244     829160.32949    640805.34448                  20270808.3284
        54.0004         46.0004
  23008508.6694    3431557.25249   2650820.12947                  23008507.6324
        42.0004         31.5004
  22910233.1044   -2023883.01849  -1568455.88247                  22910230.7974
        48.0004         35.5004
  23461101.3914    5474342.52649   4239673.89847                  23461100.0524
        45.0004         26.5004
  21364389.6634    1274442.47049    981614.86348                  21364387.0774
        50.2504         41.7504
  24147332.5194    -752200.46649   -570506.42146                  24147332.9404
        36.0004         21.0004
 04  7  6 18 10 30.0000000  0  9G 3G 9G14G15G18G19G21G22G25
  22837234.1454    2650142.57449   2051244.01447                  22837233.7984
        46.7504         34.0004
  23873588.8954    2582604.03849   2003694.94847                  23873589.0624
        40.0004         26.0004
  20395157.8754   -1380626.97449  -1071070.08948                  20395155.9634
        48.0004         46.2504
  20272528.9634     838198.14549    647847.79648                  20272527.9584
        53.7504         46.0004
  23012061.7024    3450228.44849   2665369.09047                  23012060.9004
        42.7504         32.0004
  22909106.0714   -2029806.37649  -1573071.48247                  22909103.9154
        47.5004         35.0004
  23467138.8104    5506073.64149   4264399.42346                  23467137.4684
        44.0004         25.2504
  21365830.2694    1282012.02449    987513.22048                  21365827.2524
        48.0004         41.7504
  24140736.7004    -786859.36848   -597513.37746                  24140737.4854
        34.7504         18.5004
 04  7  6 18 10 40.0000000  0  9G 3G 9G14G15G18G19G21G22G25
  22840596.8004    2667814.53349   2065014.36147                  22840596.6904
        46.7504         34.0004
  23877236.4344    2601777.21049   2018635.07047                  23877236.3464
        40.7504         25.7504
  20394617.2874   -1383465.07349  -1073281.60448                  20394615.7024
        49.0004         46.0004
  20274258.3174     847284.33049    654927.93148                  20274256.8664
        54.0004         45.5004
  23015614.7074    3468900.39549   2679918.65747                  23015613.7594
        43.5004         31.5004
  22907988.7874   -2035677.14549  -1577646.11547                  22907986.7474
        48.5004         35.0004
  23473180.9304    5537823.74149   4289139.74847                  23473179.7234
        45.5004         26.0004
  21367271.6664    1289587.32749    993416.04948                  21367268.4514
        49.0004         41.0004
  24134139.4884    -821526.02648   -624526.31446                  24134140.6414
        34.2504         19.5004
 04  7  6 18 10 50.0000000  0  9G 3G 9G14G15G18G19G21G22G25
  22843965.6234    2685517.66749   2078808.98947                  22843965.5164
        45.7504         34.2504
  23880895.3784    2621001.65349   2033615.15547                  23880895.2784
        39.5004         27.2504
  20394086.2924   -1386256.42249  -1075456.68248                  20394084.4304
        50.2504         46.0004
  20275996.6494     856420.16049    662046.75848                  20275995.5514
        54.5004         45.7504
  23019168.1504    3487574.47249   2694469.88647                  23019167.2714
        42.0004         31.7504
  22906882.5674   -2041494.12249  -1582178.82747                  22906880.0724
        48.7504         35.5004
  23479226.9254    5569594.07549   4313895.83047                  23479225.2444
        45.5004         27.0004
  21368714.4224    1297169.57049    999324.28648                  21368710.7514
        49.2504         41.0004
  24127542.0974    -856199.26948   -651544.42046                  24127542.9124
        34.2504         19.2504
 04  7  6 18 11  0.0000000  0  9G 3G 9G14G15G18G19G21G22G25
  22847340.7244    2703254.57349   2092629.94847                  22847341.1974
        44.5004         34.0004
  23884563.2614    2640279.99849   2048637.21447                  23884564.1814
        37.7504         27.2504
  20393564.8554   -1388998.33849  -1077593.24048                  20393562.9914
        50.7504         46.5004
  20277745.1694     865608.39449    669206.41348                  20277743.8744
        53.2504         46.0004
  23022723.1264    3506253.39549   2709024.85947                  23022721.7234
        43.5004         32.2504
  22905785.9794   -2047254.45849  -1586667.41047                  22905783.5124
        47.2504         35.7504
  23485276.7534    5601387.27149   4338669.74347                  23485276.1864
        45.5004         27.5004
  21370159.1794    1304761.53649   1005240.10348                  21370156.2314
        49.5004         41.2504
  24120943.2874    -890876.18948   -678565.35946                  24120943.8894
        35.5004         17.7504
 04  7  6 18 11 10.0000000  0  9G 3G 9G14G15G18G19G21G22G25
  22850721.9434    2721024.07649   2106476.29447                  22850722.5984
        44.5004         34.2504
  23888241.8804    2659611.15149   2063700.41946                  23888242.8134
        39.0004         25.0004
  20393052.3564   -1391691.95149  -1079692.16548                  20393050.5214
        50.7504         46.7504
  20279503.2994     874847.94549    676406.05248                  20279502.0264
        54.5004         45.5004
  23026278.5124    3524936.00349   2723582.74247                  23026276.8774
        44.7504         32.0004
  22904700.2274   -2052959.30949  -1591112.75547                  22904697.2074
        48.5004         35.5004
  23491331.5844    5633202.31149   4363460.63747                  23491330.4714
        46.0004         27.5004
  21371605.5574    1312362.08949   1011162.60348                  21371602.0044
        49.5004         41.0004
  24114343.3854    -925557.86849   -705590.02346                  24114344.6504
        36.5004         17.5004
 04  7  6 18 11 20.0000000  0  9G 3G 9G14G15G18G19G21G22G25
  22854109.2884    2738825.64249   2120347.62847                  22854110.3554
        44.0004         33.7504
  23891930.0854    2678994.57149   2078804.37247                  23891931.6954
        37.0004         26.0004
  20392548.5654   -1394337.69349  -1081753.78848                  20392546.3934
        50.7504         46.0004
  20281271.5164     884138.42849    683645.38448                  20281269.8774
        53.5004         45.5004
  23029833.4244    3543621.89249   2738143.16747                  23029833.0884
        43.7504         31.7504
  22903625.2064   -2058609.01949  -1595515.12047                  22903622.5114
        47.5004         35.2504
  23497389.8834    5665038.64649   4388268.13647                  23497388.4374
        46.0004         28.0004
  21373053.2374    1319970.89349   1017091.54048                  21373050.1994
        49.0004         41.0004
  24107742.6494    -960244.40149   -732618.46546                  24107743.4664
        36.5004         17.7504
 04  7  6 18 11 30.0000000  0  9G 3G 9G14G15G18G19G21G22G25
  22857503.2144    2756660.51849   2134244.91347                  22857503.9414
        43.7504         33.7504
  23895628.6194    2698431.49849   2093949.98246                  23895629.9924
        37.5004         25.5004
  20392054.5584   -1396934.23949  -1083777.06348                  20392052.1704
        49.5004         46.5004
  20283048.8834     893481.08949    690925.37548                  20283047.7654
        54.5004         45.7504
  23033390.4704    3562312.40549   2752707.19947                  23033389.2854
        45.5004         32.7504
  22902560.6064   -2064202.31849  -1599873.53347                  22902558.4524
        47.5004         35.5004
  23503451.8004    5696897.51749   4413093.22347                  23503450.7194
        44.2504         28.0004
  21374503.0814    1327589.15349   1023027.82948                  21374500.1194
        48.5004         41.5004
  24101141.5104    -994934.60149   -759649.81046                  24101142.3754
        37.7504         19.0004
 04  7  6 18 11 40.0000000  0  9G 3G 9G14G15G18G19G21G22G25
  22860903.1744    2774526.85649   2148166.72847                  22860903.7974
        43.7504         34.7504
  23899338.4644    2717920.24049   2109136.04146                  23899338.2834
        38.2504         24.2504
  20391569.6494   -1399483.30249  -1085763.36248                  20391567.3764
        51.0004         46.5004
  20284836.5884     902874.28749    698244.74348                  20284835.6844
        54.7504         45.7504
  23036947.9874    3581005.81049   2767273.47847                  23036947.2584
        45.7504         32.5004
  22901506.5974   -2069740.86549  -1604189.28647                  22901504.6054
        47.2504         34.7504
  23509517.6814    5728777.30949   4437934.55847                  23509517.6164
        43.5004         27.0004
  21375954.2064    1335215.27049   1028970.26148                  21375951.7184
        49.7504         41.5004
  24094539.1984   -1029629.87449   -786684.99246                  24094539.8624
        38.5004         18.2504
 04  7  6 18 11 50.0000000  0  9G 3G 9G14G15G18G19G21G22G25
  22864309.7284    2792426.26949   2162114.30747                  22864309.9624
        45.2504         34.5004
  23903056.2434    2737462.35548   2124363.64046                  23903057.3814
        34.5004         24.5004
  20391093.5924   -1401983.41549  -1087711.50648                  20391092.2624
        51.0004         46.2504
  20286633.8424     912319.65649    705604.76848                  20286633.0014
        53.5004         45.5004
  23040506.2874    3599703.77449   2781843.30947                  23040505.7444
        45.0004         32.2504
  22900463.3144   -2075222.99649  -1608461.08747                  22900461.1754
        48.0004         35.0004
  23515588.9334    5760679.47349   4462793.34947                  23515588.1324
        44.7504         26.5004
  21377407.2554    1342850.87549   1034920.08648                  21377404.7444
        51.0004         41.2504
  24087936.7504   -1064328.56449   -813722.97646                  24087936.8134
        38.5004         18.5004
 04  7  6 18 12  0.0000000  0  9G 3G 9G14G15G18G19G21G22G25
  22867721.8294    2810357.64649   2176086.79747                  22867721.6624
        45.5004         34.2504
  23906784.9254    2757056.71449   2139631.93146                  23906786.2904
        37.2504         24.5004
  20390627.0684   -1404435.51249  -1089622.22848                  20390625.4824
        51.2504         46.5004
  20288441.1074     921816.16749    713004.63748                  20288440.0294
        54.5004         46.0004
  23044064.4804    3618405.37949   2796415.95947                  23044063.8404
        46.0004         32.0004
  22899430.8474   -2080649.78449  -1612689.75247                  22899428.3254
        48.0004         34.7504
  23521663.7494    5792602.89149   4487668.71047                  23521663.2304
        44.7504         27.0004
  21378862.1364    1350494.92249   1040876.47248                  21378859.3004
        50.2504         41.5004
  24081332.1704   -1099031.53049   -840764.21546                  24081332.9494
        38.0004         17.5004
 04  7  6 18 12 10.0000000  0  9G 3G 9G14G15G18G19G21G22G25
  22871140.0064    2828321.50149   2190084.60547                  22871140.3434
        45.0004         34.2504
  23910523.5724    2776703.96748   2154941.40047                  23910524.5834
        35.7504         26.5004
  20390170.0624   -1406839.00949  -1091495.08248                  20390167.9394
        51.0004         46.2504
  20290257.9404     931364.54049    720444.92748                  20290257.0984
        54.5004         45.2504
  23047624.5684    3637111.25249   2810991.98047                  23047623.7284
        45.5004         31.7504
  22898408.8064   -2086020.64349  -1616874.85947                  22898405.8904
        48.0004         34.2504
  23527744.5044    5824548.24749   4512561.15247                  23527742.2954
        45.7504         26.2504
  21380318.2884    1358148.06149   1046839.95748                  21380315.1514
        50.7504         41.0004
  24074727.4554   -1133738.10449   -867808.36546                  24074728.7584
        38.0004         18.5004
 04  7  6 18 12 20.0000000  0  9G 3G 9G14G15G18G19G21G22G25
  22874564.8534    2846317.78049   2204107.66547                  22874565.2874
        44.5004         34.0004
  23914273.0864    2796403.91249   2170292.03747                  23914273.6274
        38.0004         27.2504
  20389721.7384   -1409193.97649  -1093330.11648                  20389719.8174
        51.2504         46.2504
  20292085.0774     940964.77749    727925.62848                  20292083.6784
        54.5004         45.5004
  23051185.7854    3655821.39549   2825571.26747                  23051184.0674
        46.2504         32.0004
  22897397.6204   -2091335.53649  -1621016.32547                  22897394.5614
        48.7504         34.7504
  23533827.0634    5856515.50249   4537470.69147                  23533825.1934
        46.0004         27.2504
  21381776.4054    1365810.32649   1052810.55548                  21381773.2774
        51.0004         41.5004
  24068123.0394   -1168448.13749   -894854.98646                  24068123.9634
        39.0004         19.2504
 04  7  6 18 12 30.0000000  0  9G 3G 9G14G15G18G19G21G22G25
  22877995.6254    2864346.16849   2218155.75347                  22877995.8414
        44.0004         33.5004
  23918032.7644    2816156.43749   2185683.61147                  23918032.7064
        40.0004         27.5004
  20389282.8364   -1411500.54049  -1095127.44648                  20389281.0224
        51.2504         46.5004
  20293921.6044     950616.68749    735446.59248                  20293920.6514
        54.7504         45.5004
  23054745.8564    3674535.51449   2840153.70647                  23054745.5024
        46.2504         31.5004
  22896397.0754   -2096594.59549  -1625114.31247                  22896394.2624
        48.0004         35.0004
  23539913.5444    5888504.39449   4562397.06347                  23539912.4574
        45.7504         27.7504
  21383236.2644    1373481.53349   1058788.11848                  21383233.4984
        51.0004         41.2504
  24061517.0204   -1203161.68049   -921904.52546                  24061517.7424
        39.7504         19.5004
 04  7  6 18 12 40.0000000  0  9G 3G 9G14G15G18G19G21G22G25
  22881432.2804    2882406.28049   2232228.55747                  22881432.3574
        44.5004         33.0004
  23921801.5274    2835961.08049   2201115.77147                  23921801.4154
        40.0004         27.2504
  20388853.1734   -1413759.14549  -1096887.40448                  20388850.8974
        51.0004         46.7504
  20295768.0994     960319.90549    743007.52748                  20295767.3284
        54.5004         45.5004
  23058307.9764    3693253.43549   2854739.08047                  23058306.7324
        45.5004         31.5004
  22895406.8064   -2101798.17249  -1629169.05647                  22895404.0664
        48.0004         35.2504
  23546005.0484    5920514.50049   4587339.94947                  23546003.9204
        45.0004         28.0004
  21384697.8014    1381161.28449   1064772.32948                  21384694.3784
        50.5004         41.5004
  24054910.3374   -1237878.98849   -948956.96546                  24054910.8494
        39.0004         20.0004
 04  7  6 18 12 50.0000000  0  9G 3G 9G14G15G18G19G21G22G25
  22884875.1354    2900498.88749   2246326.67147                  22884875.4184
        43.7504         33.0004
  23925579.3034    2855818.71749   2216589.23647                  23925580.1184
        40.2504         28.0004
  20388432.6984   -1415968.85549  -1098609.25548                  20388430.5184
        50.2504         46.5004
  20297624.3244     970075.43749    750609.23948                  20297623.5134
        54.0004         45.7504
  23061871.5644    3711976.07649   2869328.13147                  23061869.5034
        46.7504         31.0004
  22894426.9744   -2106945.22949  -1633179.74347                  22894424.4114
        47.7504         35.0004
  23552100.3834    5952546.76949   4612300.12547                  23552099.4204
        45.2504         27.7504
  21386160.7214    1388850.62349   1070764.01548                  21386157.2454
        48.7504         41.2504
  24048302.8334   -1272599.05449   -976011.47746                  24048303.7014
        40.5004         19.5004
 04  7  6 18 13  0.0000000  0  9G 3G 9G14G15G18G19G21G22G25
  22888323.9424    2918622.70749   2260449.12047                  22888324.3514
        44.0004         33.5004
  23929367.7484    2875728.11949   2232103.06247                  23929368.6894
        40.0004         27.7504
  20388021.1774   -1418130.84349  -1100293.92948                  20388019.3694
        50.0004         46.2504
  20299490.6304     979882.06949    758250.75948                  20299489.8194
        54.5004         45.7504
  23065434.5394    3730702.23249   2883919.92447                  23065433.4634
        46.5004         32.0004
  22893458.0854   -2112037.01849  -1637147.38047                  22893456.2294
        48.0004         35.0004
  23558200.0454    5984599.91349   4637276.56647                  23558198.8884
        45.5004         28.2504
  21387625.5304    1396548.32049   1076762.21548                  21387622.2604
        50.5004         41.5004
  24041695.8544   -1307322.87149  -1003068.96746                  24041694.8154
        42.0004         19.5004
 04  7  6 18 13 10.0000000  0  9G 3G 9G14G15G18G19G21G22G25
  22891778.2624    2936776.93149   2274595.25647                  22891779.2574
        43.0004         34.0004
  23933166.1574    2895688.36949   2247656.48547                  23933166.9114
        40.7504         27.7504
  20387618.8044   -1420245.99849  -1101942.10348                  20387616.8064
        49.2504         46.2504
  20301366.2124     989738.96149    765931.44648                  20301365.5044
        53.7504         45.5004
  23068997.6344    3749431.07849   2898513.82547                  23068997.2834
        45.5004         32.0004
  22892499.7394   -2117074.44749  -1641072.65247                  22892497.2694
        47.7504         35.0004
  23564303.5864    6016673.23549   4662268.76347                  23564303.1624
        45.5004         28.5004
  21389092.4074    1404253.52849   1082766.27048                  21389088.7614
        49.0004         41.2504
  24035086.9684   -1342051.18349  -1030130.00946                  24035087.2484
        42.2504         22.5004
 04  7  6 18 13 20.0000000  0  9G 3G 9G14G15G18G19G21G22G25
  22895239.7024    2954963.28949   2288766.43947                  22895239.6624
        43.7504         33.0004
  23936974.7574    2915701.35549   2263250.97246                  23936975.2094
        39.5004         25.5004
  20387225.5684   -1422312.38549  -1103552.28348                  20387223.4464
        50.0004         46.0004
  20303252.1394     999648.09549    773652.84248                  20303250.6874
        54.0004         45.0004
  23072563.8754    3768164.59249   2913111.37047                  23072562.1154
        46.0004         32.0004
  22891551.6704   -2122055.46849  -1644953.98147                  22891549.2044
        47.7504         35.7504
  23570411.6344    6048768.54149   4687278.04447                  23570410.9694
        46.7504         29.0004
  21390559.7654    1411968.22549   1088777.71948                  21390556.9724
        49.5004         41.2504
  24028478.2674   -1376781.90449  -1057192.89246                  24028478.6094
        43.2504         22.7504
 04  7  6 18 13 30.0000000  0  9G 3G 9G14G15G18G19G21G22G25
  22898706.0764    2973180.16749   2302961.38747                  22898706.2274
        43.0004         33.7504
  23940793.0054    2935765.39849   2278885.30247                  23940793.3014
        41.0004         27.5004
  20386841.0574   -1424331.59849  -1105125.69248                  20386838.8164
        48.7504         46.2504
  20305147.4994    1009607.86549    781413.70248                  20305146.4864
        53.7504         46.0004
  23076128.9484    3786901.19349   2927711.30047                  23076127.8464
        45.0004         32.7504
  22890614.3874   -2126981.66849  -1648792.58947                  22890611.8494
        48.2504         36.0004
  23576522.2964    6080884.03749   4712303.10047                  23576522.3284
        45.7504         29.0004
  21392029.4724    1419690.89949   1094795.38148                  21392026.2974
        47.7504         41.7504
  24021868.8694   -1411516.60849  -1084258.88046                  24021868.9904
        43.0004         22.7504
 04  7  6 18 13 40.0000000  0  9G 3G 9G14G15G18G19G21G22G25
  22902178.5914    2991427.71249   2317180.25847                  22902178.5154
        42.2504         34.0004
  23944620.4974    2955880.72649   2294559.57247                  23944620.5584
        41.2504         27.5004
  20386465.8944   -1426303.53749  -1106662.27248                  20386464.0644
        49.0004         46.0004
  20307052.2894    1019618.56049    789214.24148                  20307051.2554
        53.5004         45.5004
  23079694.9614    3805641.14449   2942313.85447                  23079693.9884
        44.0004         32.5004
  22889687.1124   -2131852.83349  -1652588.30947                  22889684.5244
        47.0004         35.0004
  23582637.3994    6113019.81949   4737343.91347                  23582637.4354
        44.2504         28.0004
  21393500.7174    1427421.71049   1100819.38548                  21393497.8704
        49.5004         41.7504
  24015257.3994   -1446254.89649  -1111327.65946                  24015258.9184
        42.2504         21.7504
 04  7  6 18 13 50.0000000  0  9G 3G 9G14G15G18G19G21G22G25
  22905656.5504    3009706.56949   2331423.49247                  22905656.8964
        42.0004         33.5004
  23948458.7184    2976047.89749   2310274.23847                  23948458.9424
        40.0004         26.7504
  20386099.9434   -1428227.45649  -1108161.43248                  20386097.9894
        48.7504         46.2504
  20308967.3814    1029680.89449    797055.00148                  20308966.2004
        54.0004         45.5004
  23083261.7074    3824385.12449   2956919.53147                  23083260.2054
        42.2504         31.5004
  22888771.6664   -2136668.25949  -1656340.59747                  22888769.0444
        47.5004         35.2504
  23588756.7154    6145176.61549   4762401.11347                  23588757.1314
        44.5004         27.2504
  21394973.5704    1435161.36749   1106850.28048                  21394970.2684
        48.7504         41.7504
  24008646.4974   -1480995.96849  -1138398.61846                  24008647.2994
        41.0004         21.0004
 04  7  6 18 14  0.0000000  0  9G 3G 9G14G15G18G19G21G22G25
  22909140.9884    3028015.13049   2345689.90747                  22909141.2764
        43.5004         34.0004
  23952305.8964    2996265.46549   2326028.17947                  23952305.6664
        38.7504         27.7504
  20385742.3264   -1430104.83949  -1109624.33448                  20385740.2754
        48.0004         46.5004
  20310891.3064    1039793.40749    804934.86848                  20310890.4374
        52.0004         46.0004
  23086829.0804    3843131.73549   2971527.27247                  23086827.4874
        44.2504         32.0004
  22887865.5284   -2141429.34149  -1660050.53147                  22887862.2594
        48.2504         35.2504
  23594880.1104    6177352.79049   4787473.42447                  23594880.0544
        44.2504         27.5004
  21396447.7344    1442908.44849   1112886.96248                  21396444.9254
        48.2504         41.7504
  24002035.2074   -1515741.16349  -1165472.79346                  24002035.6454
        43.5004         22.2504
 04  7  6 18 14 10.0000000  0  9G 3G 9G14G15G18G19G21G22G25
  22912630.5594    3046355.14849   2359980.81947                  22912630.9674
        44.7504         33.0004
  23956162.7674    3016535.12249   2341822.69847                  23956163.3554
        40.2504         26.5004
  20385394.3874   -1431933.88349  -1111049.56048                  20385392.3094
        49.0004         46.2504
  20312825.8714    1049957.90249    812855.25948                  20312825.3174
        53.5004         45.2504
  23090397.0804    3861882.78049   2986138.47347                  23090396.1364
        45.2504         32.2504
  22886969.7394   -2146134.29549  -1663716.73547                  22886967.4644
        47.2504         35.5004
  23601007.2414    6209550.24349   4812562.31647                  23601007.4854
        44.2504         28.2504
  21397923.4654    1450664.75049   1118930.83948                  21397920.5704
        49.0004         41.2504
  23995422.6394   -1550488.57249  -1192548.68846                  23995423.4304
        43.0004         21.5004
 04  7  6 18 14 20.0000000  0  9G 3G 9G14G15G18G19G21G22G25
  22916126.1434    3064724.29449   2374294.42947                  22916126.2544
        42.0004         33.0004
  23960028.9144    3036854.56449   2357656.00447                  23960029.6454
        41.0004         27.2504
  20385054.9804   -1433716.86749  -1112438.89548                  20385053.0354
        48.7504         46.0004
  20314769.5104    1060172.15349    820814.40648                  20314768.3464
        53.0004         45.5004
  23093965.6084    3880636.07849   3000751.42047                  23093964.5844
        43.0004         32.2504
  22886084.4294   -2150785.42249  -1667340.99547                  22886082.3544
        48.0004         35.7504
  23607137.7314    6241766.71849   4837666.01047                  23607138.1034
        44.2504         28.2504
  21399400.9674    1458428.04749   1124980.14848                  21399397.5424
        50.2504         41.2504
  23988809.6474   -1585240.32349  -1219627.96446                  23988810.1994
        42.5004         22.5004
 04  7  6 18 14 30.0000000  0  9G 3G 9G14G15G18G19G21G22G25
  22919627.3274    3083123.45449   2388631.42947                  22919628.2434
        42.0004         33.0004
  23963905.1274    3057224.76049   2373528.87847                  23963906.0934
        39.0004         27.5004
  20384725.0214   -1435452.83849  -1113791.60748                  20384722.9004
        49.0004         46.0004
  20316723.0384    1070437.23749    828813.16748                  20316721.8804
        53.7504         45.2504
  23097535.9344    3899392.68949   3015366.94847                  23097533.8264
        42.2504         32.5004
  22885209.3874   -2155381.68249  -1670922.49947                  22885207.5414
        48.0004         35.2504
  23613271.9374    6274003.24449   4862785.37047                  23613271.4504
        44.0004         26.7504
  21400879.6454    1466199.39049   1131035.73748                  21400876.2594
        48.7504         40.7504
  23982194.8074   -1619995.27249  -1246709.70446                  23982196.4754
        41.5004         22.2504
 04  7  6 18 14 40.0000000  0  9G 3G 9G14G15G18G19G21G22G25
  22923134.5774    3101552.53149   2402991.73247                  22923134.6264
        42.5004         33.2504
  23967791.2424    3077645.58549   2389441.16247                  23967792.7284
        39.2504         27.0004
  20384403.4734   -1437141.88049  -1115107.75448                  20384401.6984
        50.2504         46.2504
  20318685.7074    1080753.05349    836851.46048                  20318684.9624
        52.7504         45.5004
  23101105.2904    3918152.41349   3029984.91147                  23101104.1004
        42.5004         31.5004
  22884345.6794   -2159923.11049  -1674461.29347                  22884343.7754
        47.5004         35.0004
  23619410.1574    6306260.04649   4887920.45346                  23619410.0754
        43.0004         25.2504
  21402360.4214    1473978.69849   1137097.53048                  21402356.9714
        50.0004         41.0004
  23975581.3034   -1654753.40049  -1273793.93646                  23975582.3754
        41.5004         22.2504
 04  7  6 18 14 50.0000000  0  9G 3G 9G14G15G18G19G21G22G25
  22926647.1934    3120011.71949   2417375.50647                  22926647.4204
        43.5004         33.2504
  23971687.8234    3098117.26149   2405393.11847                  23971688.3484
        39.2504         28.0004
  20384090.8224   -1438783.75249  -1116387.13548                  20384089.1734
        50.0004         46.2504
  20320658.6354    1091119.88249    844929.50048                  20320657.5634
        54.2504         45.2504
  23104675.4264    3936915.59149   3044605.54747                  23104674.6864
        42.5004         32.2504
  22883492.0544   -2164409.40549  -1677957.09547                  22883489.5974
        47.0004         35.5004
  23625551.7314    6338536.86449   4913071.20546                  23625552.3984
        43.2504         24.2504
  21403842.2754    1481766.27049   1143165.76548                  21403838.5584
        50.7504         41.2504
  23968967.1654   -1689514.36349  -1300880.36146                  23968967.2624
        40.7504         23.2504
 04  7  6 18 15  0.0000000  0  9G 3G 9G14G15G18G19G21G22G25
  22930165.9424    3138502.20749   2431783.65647                  22930166.1164
        43.2504         33.2504
  23975593.0434    3118641.10049   2421385.71947                  23975594.1324
        44.0004         28.5004
  20383787.9824   -1440377.09349  -1117628.70148                  20383785.7834
        50.0004         46.5004
  20322641.2534    1101539.04349    853048.31248                  20322640.4194
        53.2504         45.5004
  23108246.9734    3955683.65749   3059230.00347                  23108245.8684
        44.0004         32.5004
  22882649.0734   -2168839.26649  -1681408.94447                  22882646.6824
        47.5004         35.2504
  23631697.7544    6370835.12649   4938238.66946                  23631698.3964
        43.0004         25.2504
  21405325.7424    1489563.42349   1149241.46648                  21405322.0294
        50.0004         41.2504
  23962351.4634   -1724276.66149  -1327967.90746                  23962352.3764
        41.0004         23.5004
 04  7  6 18 15 10.0000000  0  9G 3G 9G14G15G18G19G21G22G25
  22933690.6074    3157024.52649   2446216.62547                  22933690.7714
        44.5004         33.2504
  23979508.3054    3139217.54949   2437419.29147                  23979509.3594
        41.0004         29.0004
  20383494.1224   -1441921.38049  -1118832.04048                  20383492.2434
        49.5004         46.2504
  20324634.0364    1112011.14449    861208.38548                  20324633.1284
        53.0004         45.7504
  23111819.2514    3974457.15049   3073858.68147                  23111818.4504
        43.0004         32.0004
  22881816.8454   -2173212.05649  -1684816.32847                  22881814.4544
        47.5004         35.2504
  23637849.1864    6403155.33149   4963423.17846                  23637848.6194
        42.5004         24.5004
  21406811.4814    1497370.81049   1155325.13048                  21406808.2994
        50.7504         42.0004
  23955736.8794   -1759039.59649  -1355055.86646                  23955738.0504
        41.7504         25.2504
 04  7  6 18 15 20.0000000  0  9G 3G 9G14G15G18G19G21G22G25
  22937220.7424    3175575.42649   2460671.87447                  22937220.7434
        43.5004         33.5004
  23983433.5814    3159843.39349   2453491.36747                  23983434.4084
        41.5004         30.0004
  20383208.5884   -1443419.88049  -1119999.70048                  20383206.8714
        49.2504         46.2504
  20326636.0144    1122533.03249    869407.26248                  20326635.4344
        52.2504         45.0004
  23115391.9824    3993232.91549   3088489.12947                  23115391.3794
        43.7504         31.7504
  22880994.8424   -2177530.96049  -1688181.73247                  22880992.7744
        47.0004         34.5004
  23644002.3144    6435494.11149   4988622.16946                  23644002.5064
        42.5004         23.5004
  21408298.5754    1505185.19049   1161414.25848                  21408295.7234
        49.2504         42.5004
  23949120.9614   -1793806.28849  -1382146.76346                  23949122.1694
        42.2504         25.5004
 04  7  6 18 15 30.0000000  0  9G 3G 9G14G15G18G19G21G22G25
  22940755.5694    3194156.27449   2475150.45747                  22940756.7194
        41.7504         32.7504
  23987368.0934    3180520.11749   2469603.10147                  23987368.8184
        42.0004         29.7504
  20382932.6424   -1444871.01749  -1121130.46148                  20382930.9334
        49.7504         46.2504
  20328648.4784    1133106.27649    877646.14348                  20328647.6764
        52.7504         45.0004
  23118965.8254    4012012.51649   3103122.56647                  23118965.0194
        43.5004         31.2504
  22880183.9884   -2181794.45449  -1691503.92647                  22880181.1514
        47.5004         35.0004
  23650160.4864    6467853.02849   5013836.91346                  23650159.9754
        43.5004         24.5004
  21409787.6474    1513008.11549   1167510.03448                  21409784.0294
        49.5004         42.0004
  23942504.0204   -1828574.97349  -1409239.22846                  23942506.1484
        42.2504         25.0004
 04  7  6 18 15 40.0000000  0  9G 3G 9G14G15G18G19G21G22G25
  22944298.2934    3212768.35649   2489653.35447                  22944298.5494
        44.2504         33.5004
  23991312.4964    3201248.91549   2485755.38447                  23991313.3424
        42.0004         29.7504
  20382665.8544   -1446273.59849  -1122223.37448                  20382664.4144
        49.2504         45.7504
  20330670.2404    1143732.13949    885926.02448                  20330669.2734
        52.7504         45.0004
  23122540.5934    4030797.19749   3117759.97747                  23122539.1454
        45.0004         31.0004
  22879383.0954   -2186001.26649  -1694781.96247                  22879380.2414
        47.7504         35.0004
  23656322.2344    6500233.33149   5039068.27646                  23656321.4454
        43.0004         24.2504
  21411277.9024    1520840.92149   1173613.51848                  21411274.6264
        49.2504         42.0004
  23935887.7234   -1863344.37949  -1436332.26546                  23935889.4494
        43.2504         23.5004
 04  7  6 18 15 50.0000000  0  9G 3G 9G14G15G18G19G21G22G25
  22947845.1484    3231408.67349   2504178.26647                  22947846.3344
        44.7504         34.2504
  23995266.3474    3222026.83149   2501945.97047                  23995266.5044
        40.5004         29.7504
  20382407.4314   -1447630.47149  -1123280.68448                  20382405.3024
        50.0004         46.2504
  20332701.6994    1154407.73949    894244.66848                  20332700.6294
        53.0004         45.2504
  23126115.3304    4049584.15649   3132399.16547                  23126114.4684
        41.7504         31.5004
  22878593.1614   -2190154.27149  -1698018.09347                  22878590.7714
        47.2504         35.0004
  23662487.5524    6532632.08049   5064313.98346                  23662487.1024
        42.7504         24.7504
  21412769.4764    1528680.72249   1179722.45248                  21412766.4474
        50.7504         42.0004
  23929270.5854   -1898117.22749  -1463427.96846                  23929271.3324
        43.0004         25.5004
 04  7  6 18 16  0.0000000  0  9G 3G 9G14G15G18G19G21G22G25
  22951397.6834    3250076.82249   2518724.85547                  22951398.6664
        42.5004         33.5004
  23999229.8934    3242853.48449   2518174.51447                  23999230.1204
        42.5004         30.7504
  20382157.7734   -1448941.93449  -1124302.60348                  20382156.2264
        49.5004         46.0004
  20334742.6974    1165132.72549    902601.79848                  20334741.9034
        52.7504         45.0004
  23129690.9104    4068372.97049   3147039.77347                  23129690.2494
        43.5004         31.5004
  22877812.8644   -2194253.76649  -1701212.50247                  22877810.2084
        46.7504         34.7504
  23668656.4314    6565048.94349   5089573.83446                  23668655.4934
        42.7504         24.7504
  21414263.4054    1536527.23849   1185836.60948                  21414259.4554
        50.7504         42.0004
  23922652.7404   -1932893.73749  -1490526.55846                  23922653.4314
        42.7504         22.5004
 04  7  6 18 16 10.0000000  0  9G 3G 9G14G15G18G19G21G22G25
  22954955.9154    3268776.71749   2533296.17947                  22954955.7774
        44.0004         34.0004
  24003203.0524    3263732.75949   2534444.09147                  24003203.6454
        41.7504         29.7504
  20381917.9974   -1450204.07649  -1125286.09448                  20381915.5594
        49.7504         46.5004
  20336793.8904    1175911.15949    911000.56948                  20336792.9464
        53.0004         45.2504
  23133266.9524    4087167.76049   3161685.03947                  23133266.8284
        43.2504         31.2504
  22877043.6864   -2198295.71649  -1704362.08047                  22877041.1154
        47.5004         34.5004
  23674829.7034    6597487.85249   5114850.87846                  23674829.2124
        43.2504         24.2504
  21415758.0164    1544384.44949   1191959.10148                  21415754.4484
        52.0004         42.0004
  23916035.4584   -1967669.78849  -1517624.79646                  23916036.0144
        43.5004         22.5004
 04  7  6 18 16 20.0000000  0  9G 3G 9G14G15G18G19G21G22G25
  22958519.8764    3287503.54949   2547888.51747                  22958519.7634
        44.0004         34.0004
  24007185.2384    3284660.01349   2550751.05847                  24007186.0704
        41.7504         28.5004
  20381686.0474   -1451421.65949  -1126234.86548                  20381684.2354
        51.0004         46.2504
  20338854.1214    1186738.33649    919437.32148                  20338853.3554
        54.2504         45.2504
  23136843.9144    4105963.85649   3176331.33347                  23136843.2614
        43.2504         31.2504
  22876284.6014   -2202284.89849  -1707470.54347                  22876282.1554
        47.0004         34.2504
  23681005.9514    6629943.92449   5140141.29346                  23681004.7374
        43.7504         24.5004
  21417254.3624    1552247.64549   1198086.27748                  21417250.7134
        51.5004         41.7504
  23909417.4964   -2002449.96049  -1544726.20746                  23909417.7684
        44.5004         24.0004
 04  7  6 18 16 30.0000000  0  9G 3G 9G14G15G18G19G21G22G25
  22962089.3934    3306261.22049   2562504.86647                  22962089.3414
        43.5004         33.5004
  24011177.0144    3305639.06049   2567098.30647                  24011178.5734
        41.2504         27.2504
  20381463.5504   -1452590.67549  -1127145.78248                  20381461.8554
        50.5004         46.0004
  20340924.5334    1197618.31449    927915.21848                  20340923.8804
        52.5004         45.0004
  23140422.2304    4124765.21249   3190981.73747                  23140421.2574
        43.5004         31.0004
  22875536.3124   -2206217.21249  -1710534.68547                  22875533.9714
        47.5004         34.0004
  23687186.5044    6662421.24149   5165448.27846                  23687185.2784
        43.7504         22.5004
  21418752.6324    1560120.94149   1204221.30248                  21418749.2454
        52.0004         41.5004
  23902797.8314   -2037230.11949  -1571827.61446                  23902799.5864
        42.7504         25.2504
 04  7  6 18 16 40.0000000  0  9G 3G 9G14G15G18G19G21G22G25
  22965663.7714    3325046.65349   2577142.85547                  22965664.4534
        44.0004         33.2504
  24015179.0334    3326666.96149   2583483.69947                  24015179.7424
        43.2504         28.2504
  20381249.6974   -1453714.18449  -1128021.24748                  20381248.1144
        50.2504         46.0004
  20343004.3564    1208548.07349    936431.90548                  20343003.5484
        53.7504         45.2504
  23144000.1144    4143568.99949   3205634.01747                  23143999.8364
        43.0004         31.7504
  22874798.2684   -2210095.67949  -1713556.88447                  22874796.1564
        47.0004         34.2504
  23693369.6844    6694916.94249   5190769.54546                  23693368.9644
        44.0004         25.5004
  21420251.9824    1568001.29949   1210361.83448                  21420248.6174
        51.7504         41.7504
  23896178.5314   -2072013.09949  -1598931.19246                  23896180.2964
        43.5004         24.5004
 04  7  6 18 16 50.0000000  0  9G 3G 9G14G15G18G19G21G22G25
  22969244.4574    3343860.11349   2591802.69047                  22969246.1214
        44.2504         33.0004
  24019189.6974    3347743.95349   2599907.29247                  24019190.0324
        42.7504         27.0004
  20381044.6764   -1454791.82349  -1128860.97148                  20381042.9734
        50.5004         46.0004
  20345093.9694    1219527.99049    944987.67948                  20345092.8444
        54.5004         44.7504
  23147578.7794    4162375.50249   3220288.40747                  23147577.6724
        43.7504         31.5004
  22874070.4804   -2213920.02849  -1716536.89847                  22874068.2664
        47.2504         34.7504
  23699557.0554    6727431.14149   5216105.25146                  23699556.1784
        44.5004         24.7504
  21421753.0274    1575889.09449   1216508.16748                  21421749.7924
        51.0004         41.0004
  23889560.3204   -2106798.49049  -1626036.68647                  23889561.1704
        43.5004         26.5004
 04  7  6 18 17  0.0000000  0  9G 3G 9G14G15G18G19G21G22G25
  22972829.8714    3362703.14249   2606485.56847                  22972831.3144
        44.5004         33.0004
  24023210.4984    3368871.45649   2616370.28347                  24023210.0844
        40.5004         27.5004
  20380848.5824   -1455822.03749  -1129663.74148                  20380846.8304
        50.7504         46.0004
  20347193.0454    1230559.63249    953583.75748                  20347192.8944
        52.5004         45.0004
  23151159.3164    4181186.35949   3234946.20947                  23151157.6144
        44.2504         31.2504
  22873353.3154   -2217688.61749  -1719473.47947                  22873350.8644
        47.7504         35.0004
  23705747.8854    6759965.38349   5241456.58546                  23705747.3404
        44.0004         24.5004
  21423255.7134    1583785.86449   1222661.48548                  21423252.9524
        51.7504         41.2504
  23882941.1474   -2141584.64449  -1653142.77547                  23882942.1784
        44.0004         27.7504
 04  7  6 18 17 10.0000000  0  9G 3G 9G14G15G18G19G21G22G25
  22976421.5834    3381577.79449   2621193.06047                  22976422.2064
        44.5004         32.5004
  24027240.6804    3390051.63749   2632874.31947                  24027241.0794
        42.7504         26.5004
  20380661.7494   -1456802.74649  -1130427.93648                  20380660.3134
        49.7504         46.5004
  20349302.6094    1241645.14449    962221.80648                  20349301.9094
        53.7504         45.0004
  23154739.2994    4200003.72549   3249609.07947                  23154738.8704
        44.0004         31.5004
  22872647.6884   -2221399.30649  -1722364.93247                  22872644.8494
        47.2504         34.2504
  23711943.8244    6792521.78449   5266825.16146                  23711942.3974
        44.0004         23.7504
  21424760.9714    1591693.86749   1228823.56748                  21424757.3834
        50.7504         41.7504
  23876321.9114   -2176369.26049  -1680247.69347                  23876323.1904
        45.7504         28.7504
 04  7  6 18 17 20.0000000  0  9G 3G 9G14G15G18G19G21G22G25
  22980019.1644    3400481.40249   2635923.14847                  22980019.0794
        44.2504         33.5004
  24031280.5474    3411281.89549   2649417.38047                  24031280.9704
        39.7504         28.0004
  20380484.0854   -1457736.47349  -1131155.51248                  20380482.7234
        50.5004         46.0004
  20351421.9744    1252781.95949    970899.84448                  20351420.9104
        53.2504         45.0004
  23158321.0324    4218825.00149   3264274.99847                  23158320.4394
        43.5004         31.5004
  22871951.7834   -2225054.60749  -1725213.22247                  22871949.2164
        48.0004         34.7504
  23718142.1444    6825097.76149   5292209.02646                  23718141.1844
        43.5004         22.0004
  21426267.1874    1599610.46649   1234992.33548                  21426264.5904
        51.2504         41.0004
  23869702.4284   -2211154.79649  -1707353.27047                  23869703.2524
        46.5004         29.7504
 04  7  6 18 17 30.0000000  0  9G 3G 9G14G15G18G19G21G22G25
  22983621.5454    3419413.08949   2650675.09847                  22983621.8854
        45.5004         33.7504
  24035329.8804    3432561.29149   2665998.72347                  24035330.1714
        42.0004         27.5004
  20380315.5744   -1458624.02049  -1131847.10448                  20380313.7744
        50.7504         46.2504
  20353550.7354    1263969.35749    979617.28148                  20353549.9864
        53.2504         45.0004
  23161903.4794    4237649.44049   3278943.38047                  23161902.5994
        43.2504         31.5004
  22871266.7304   -2228655.33649  -1728018.98147                  22871264.0244
        47.5004         35.0004
  23724344.4654    6857692.43249   5317607.43646                  23724343.2824
        43.0004         21.7504
  21427775.1184    1607534.90149   1241167.21448                  21427771.9414
        51.5004         41.5004
  23863083.1454   -2245941.85449  -1734460.03547                  23863083.8154
        46.0004         30.0004
 04  7  6 18 17 40.0000000  0  9G 3G 9G14G15G18G19G21G22G25
  22987230.0824    3438374.16349   2665449.95747                  22987230.5654
        45.0004         33.5004
  24039389.0194    3453891.32149   2682619.50747                  24039389.5324
        41.5004         28.2504
  20380155.1834   -1459464.11249  -1132501.72848                  20380153.8154
        50.5004         46.2504
  20355689.6384    1275208.68349    988375.19848                  20355689.0444
        54.0004         45.5004
  23165486.3564    4256478.44949   3293615.29947                  23165485.5724
        43.0004         32.2504
  22870591.9354   -2232200.15049  -1730781.19047                  22870589.4774
        47.0004         35.5004
  23730551.3604    6890307.09349   5343021.45246                  23730549.8244
        44.0004         24.0004
  21429284.9854    1615468.59549   1247349.30848                  21429281.9464
        51.7504         41.5004
  23856463.1344   -2280728.96149  -1761566.88847                  23856464.0254
        45.7504         29.2504
 04  7  6 18 17 50.0000000  0  9G 3G 9G14G15G18G19G21G22G25
  22990842.8954    3457361.78949   2680245.48947                  22990843.5594
        44.7504         33.5004
  24043457.3824    3475269.00849   2699277.41847                  24043457.5734
        40.0004         27.0004
  20380004.2604   -1460259.45249  -1133121.47448                  20380002.4184
        50.5004         45.7504
  20357837.7154    1286497.24449    997171.46748                  20357836.7364
        53.7504         45.0004
  23169069.5474    4275309.28749   3308288.68247                  23169069.0634
        44.5004         32.0004
  22869927.4634   -2235691.70949  -1733501.89047                  22869925.0174
        47.2504         35.2504
  23736761.5954    6922938.96449   5368448.85246                  23736759.2914
        46.0004         22.5004
  21430795.8714    1623408.81949   1253536.49348                  21430792.7934
        52.0004         41.5004
  23849842.1634   -2315518.75149  -1788675.76847                  23849843.5304
        45.0004         29.0004
 04  7  6 18 18  0.0000000  0  9G 3G 9G14G15G18G19G21G22G25
  22994461.7624    3476378.13849   2695063.41447                  22994462.4184
        45.0004         33.0004
  24047534.5964    3496696.66749   2715974.30247                  24047535.1954
        43.0004         28.5004
  20379861.6524   -1461007.78349  -1133704.58848                  20379860.2664
        50.7504         46.0004
  20359995.8644    1297837.27649   1006007.85248                  20359994.6814
        53.7504         45.0004
  23172654.0894    4294144.22949   3322965.24947                  23172653.0034
        43.5004         31.2504
  22869273.2194   -2239127.78749  -1736179.35647                  22869271.5514
        47.7504         34.5004
  23742974.3734    6955590.29849   5393891.43146                  23742971.7774
        46.0004         22.2504
  21432308.7584    1631357.89349   1259730.57348                  21432305.7294
        52.0004         41.2504
  23843222.1564   -2350308.82049  -1815784.91047                  23843223.1484
        46.0004         29.5004
 04  7  6 18 18 10.0000000  0  9G 3G 9G14G15G18G19G21G22G25
  22998085.9534    3495422.51149   2709903.15247                  22998086.1884
        45.0004         33.0004
  24051621.8924    3518173.57349   2732709.50547                  24051622.4704
        44.0004         28.2504
  20379727.8994   -1461709.80149  -1134251.62248                  20379726.2494
        51.0004         45.5004
  20362163.3194    1309228.24249   1014883.91848                  20362162.0934
        53.7504         45.0004
  23176238.5604    4312982.76149   3337644.58947                  23176237.7424
        43.7504         30.5004
  22868630.5064   -2242508.90149  -1738814.00147                  22868627.8924
        47.2504         34.5004
  23749191.3194    6988260.37149   5419348.58246                  23749189.6294
        45.0004         22.5004
  21433822.5704    1639315.20349   1265931.06448                  21433819.2424
        51.2504         41.7504
  23836601.9374   -2385099.81049  -1842894.75347                  23836602.2734
        46.2504         29.0004
 04  7  6 18 18 20.0000000  0  9G 3G 9G14G15G18G19G21G22G25
  23001715.0634    3514496.75649   2724766.21447                  23001716.0194
        42.7504         33.7504
  24055717.5904    3539701.58749   2749484.59247                  24055718.6844
        40.2504         29.2504
  20379603.6574   -1462363.61149  -1134761.09248                  20379602.1104
        50.2504         46.2504
  20364340.9854    1320671.97049   1023801.10548                  20364339.6504
        54.0004         45.0004
  23179824.6294    4331826.77549   3352328.24647                  23179823.8014
        43.0004         31.0004
  22867997.6274   -2245833.23249  -1741404.39147                  22867995.3104
        48.0004         34.5004
  23755411.4634    7020951.14049   5444821.93746                  23755409.9894
        44.2504         23.0004
  21435339.0084    1647282.63749   1272139.45848                  21435335.4324
        50.7504         41.5004
  23829981.5264   -2419889.61749  -1870003.66347                  23829982.4744
        44.5004         29.2504
 04  7  6 18 18 30.0000000  0  9G 3G 9G14G15G18G19G21G22G25
  23005350.6594    3533599.20149   2739651.20747                  23005350.7014
        42.7504         33.5004
  24059824.2584    3561279.06749   2766298.19147                  24059824.6154
        43.0004         29.7504
  20379488.2784   -1462970.77549  -1135234.20448                  20379486.5394
        50.5004         45.7504
  20366528.3454    1332166.96549   1032758.23948                  20366527.4954
        54.0004         45.0004
  23183410.7634    4350674.66749   3367014.88447                  23183410.4164
        43.5004         30.2504
  22867375.3054   -2249102.32349  -1743951.74747                  22867372.8434
        46.5004         34.5004
  23761635.8014    7053660.94649   5470310.02146                  23761634.7934
        43.7504         24.0004
  21436856.7974    1655258.70549   1278354.57048                  21436853.2934
        51.2504         41.5004
  23823360.8624   -2454679.65349  -1897112.78347                  23823361.7874
        45.0004         27.7504
 04  7  6 18 18 40.0000000  0  9G 3G 9G14G15G18G19G21G22G25
  23008990.7424    3552728.30649   2754556.98847                  23008990.9864
        42.5004         34.5004
  24063939.8614    3582904.49449   2783149.14047                  24063940.2034
        42.5004         28.5004
  20379381.1744   -1463532.86249  -1135672.19248                  20379379.3324
        50.7504         46.0004
  20368725.4964    1343711.73649   1041754.15248                  20368724.3664
        54.0004         45.0004
  23186998.8064    4369524.98949   3381703.41847                  23186997.7594
        43.7504         31.0004
  22866763.5354   -2252317.67649  -1746457.21947                  22866761.2984
        47.0004         34.5004
  23767864.7604    7086388.26349   5495811.79546                  23767862.9724
        45.0004         25.0004
  21438376.1024    1663241.93049   1284575.26448                  21438372.4644
        51.2504         41.7504
  23816740.0334   -2489471.21949  -1924223.05547                  23816740.4014
        45.2504         27.7504
 04  7  6 18 18 50.0000000  0  9G 3G 9G14G15G18G19G21G22G25
  23012636.6174    3571885.82649   2769484.90847                  23012636.7094
        43.0004         33.7504
  24068064.1414    3604579.68049   2800038.88747                  24068064.3434
        42.0004         29.5004
  20379283.4934   -1464047.98349  -1136073.58448                  20379281.5954
        51.2504         46.2504
  20370931.7174    1355308.18149   1050790.33348                  20370930.8104
        53.5004         45.2504
  23190587.1784    4388379.68149   3396395.39747                  23190585.9394
        42.0004         31.0004
  22866162.2094   -2255477.41449  -1748919.36047                  22866160.4134
        46.5004         34.7504
  23774096.2224    7119134.94449   5521328.66546                  23774094.8174
        45.5004         25.5004
  21439896.6434    1671234.21049   1290803.01348                  21439893.0794
        51.0004         41.5004
  23810120.2214   -2524262.41149  -1951333.09147                  23810119.9054
        45.5004         28.0004
 04  7  6 18 19  0.0000000  0  9G 3G 9G14G15G18G19G21G22G25
  23016286.7714    3591069.84949   2784433.49447                  23016287.4314
        42.5004         33.7504
  24072198.0894    3626302.67049   2816965.86647                  24072198.2434
        40.5004         28.0004
  20379194.0054   -1464517.90549  -1136439.76848                  20379192.3034
        51.7504         45.7504
  20373148.4194    1366954.51149   1059865.39148                  20373147.5664
        52.0004         44.7504
  23194174.9334    4407236.91549   3411089.32447                  23194173.9814
        41.5004         31.0004
  22865571.3234   -2258583.34249  -1751339.57347                  22865568.4224
        47.5004         35.0004
  23780330.5374    7151899.13849   5546859.15147                  23780330.1584
        45.5004         26.5004
  21441419.1364    1679233.71049   1297036.38248                  21441415.4284
        51.5004         41.2504
  23803499.0754   -2559054.88349  -1978444.04847                  23803498.6464
        45.7504         28.5004
 04  7  6 18 19 10.0000000  0  9G 3G 9G14G15G18G19G21G22G25
  23019942.4074    3610281.34249   2799403.48947                  23019942.8174
        43.7504         33.2504
  24076340.2844    3648074.38949   2833930.85447                  24076341.4114
        38.5004         28.7504
  20379113.0144   -1464941.82549  -1136770.09248                  20379111.1014
        51.2504         46.0004
  20375374.1694    1378651.65249   1068980.04148                  20375373.3304
        52.7504         45.0004
  23197763.7904    4426097.73649   3425786.04947                  23197763.3104
        41.7504         30.2504
  22864990.8514   -2261634.50549  -1753717.11247                  22864988.4074
        48.2504         34.2504
  23786569.1814    7184681.66649   5572403.93047                  23786568.7754
        44.7504         25.7504
  21442942.7904    1687241.39049   1303276.12948                  21442939.7944
        51.0004         41.5004
  23796878.1154   -2593847.56349  -2005555.21747                  23796877.7414
        46.0004         29.0004
 04  7  6 18 19 20.0000000  0  9G 3G 9G14G15G18G19G21G22G25
  23023603.6464    3629520.91849   2814395.35047                  23023604.3774
        45.0004         33.0004
  24080493.9004    3669895.58149   2850934.32147                  24080493.9004
        42.0004         26.0004
  20379041.5244   -1465318.90149  -1137063.91048                  20379039.7854
        51.2504         45.5004
  20377609.7764    1390400.43949   1078134.93048                  20377608.4904
        53.5004         44.7504
  23201354.0844    4444963.01949   3440486.26547                  23201353.3964
        44.5004         30.0004
  22864421.2294   -2264630.01749  -1756051.28647                  22864418.3354
        48.0004         34.5004
  23792811.2174    7217483.43149   5597963.72847                  23792810.7784
        45.5004         26.5004
  21444468.1674    1695258.13449   1309522.93848                  21444465.1014
        51.5004         41.5004
  23790256.9224   -2628639.43849  -2032665.76347                  23790257.6114
        45.2504         28.7504
 04  7  6 18 19 30.0000000  0  9G 3G 9G14G15G18G19G21G22G25
  23027269.5674    3648787.98449   2829408.63547                  23027270.9744
        44.2504         33.5004
  24084654.6874    3691765.66649   2867975.95846                  24084655.5044
        42.5004         25.2504
  20378978.7404   -1465649.74649  -1137321.72548                  20378976.6804
        51.5004         46.0004
  20379855.4754    1402200.30649   1087329.62948                  20379853.9154
        53.5004         44.7504
  23204944.6564    4463832.12049   3455189.44547                  23204943.9404
        45.0004         31.2504
  22863861.3124   -2267570.45649  -1758342.54247                  22863858.5964
        47.5004         34.7504
  23799056.6654    7250303.77749   5623537.99047                  23799056.3274
        45.5004         26.5004
  21445995.2864    1703283.43349   1315776.40848                  21445992.5004
        51.5004         41.7504
  23783635.9304   -2663431.01649  -2059776.02747                  23783636.8094
        44.7504         28.0004
 04  7  6 18 19 40.0000000  0  9G 3G 9G14G15G18G19G21G22G25
  23030941.8654    3668081.69749   2844442.68247                  23030942.0084
        42.5004         33.2504
  24088826.4194    3713683.87049   2885055.01647                  24088826.2854
        41.0004         26.7504
  20378924.0484   -1465935.14649  -1137544.10648                  20378922.1554
        51.5004         45.5004
  20382110.2344    1414050.50649   1096563.55048                  20382109.3704
        53.2504         44.7504
  23208536.0834    4482704.30749   3469895.03647                  23208535.4434
        42.0004         31.5004
  22863312.3904   -2270456.59649  -1760591.49447                  22863309.6904
        46.5004         35.0004
  23805305.0864    7283141.81249   5649126.03347                  23805305.4564
        44.0004         26.7504
  21447524.1824    1711316.43749   1322035.89048                  21447521.6604
        50.2504         41.5004
  23777015.9284   -2698222.92749  -2086886.59547                  23777016.2834
        45.0004         28.0004
 04  7  6 18 19 50.0000000  0  9G 3G 9G14G15G18G19G21G22G25
  23034618.2454    3687403.45049   2859498.59347                  23034618.1984
        42.5004         32.5004
  24093006.1224    3735651.45149   2902172.67946                  24093006.1214
        37.2504         24.7504
  20378878.9514   -1466173.62949  -1137729.94748                  20378876.8114
        50.5004         46.0004
  20384375.2014    1425952.52249   1105837.84048                  20384373.9194
        52.2504         44.5004
  23212128.4794    4501581.15249   3484604.24347                  23212127.6094
        42.5004         30.7504
  22862773.8224   -2273286.98049  -1762796.99747                  22862771.1984
        48.0004         35.0004
  23811558.0544    7315999.10849   5674729.07847                  23811557.8764
        44.0004         26.5004
  21449054.6734    1719358.66849   1328302.56148                  21449051.2914
        51.5004         42.0004
  23770395.9104   -2733013.64549  -2113996.23447                  23770395.9494
        45.7504         27.5004
 04  7  6 18 20  0.0000000  0  9G 3G 9G14G15G18G19G21G22G25
  23038301.2764    3706752.62549   2874575.85647                  23038301.0684
        46.2504         33.0004
  24097194.8844    3757667.89449   2919328.28646                  24097195.6804
        39.2504         24.0004
  20378841.8824   -1466365.69149  -1137879.61048                  20378840.1664
        51.7504         46.0004
  20386649.7124    1437905.84649   1115152.10348                  20386649.2214
        53.0004         44.7504
  23215720.2504    4520462.07549   3499316.63547                  23215720.0444
        44.0004         30.7504
  22862244.7744   -2276062.15149  -1764959.48747                  22862242.9304
        45.7504         35.0004
  23817814.6544    7348874.98649   5700346.61047                  23817814.4284
        44.2504         26.5004
  21450586.5614    1727409.63449   1334576.03348                  21450583.9364
        50.7504         42.0004
  23763775.6574   -2767803.56049  -2141105.22947                  23763775.4934
        45.7504         27.7504
 04  7  6 18 20 10.0000000  0  9G 3G 9G14G15G18G19G21G22G25
  23041988.0324    3726127.82349   2889673.38347                  23041987.6894
        45.2504         32.5004
  24101394.2414    3779731.76349   2936520.92046                  24101394.3304
        40.5004         21.5004
  20378814.3434   -1466512.79149  -1137994.23948                  20378812.5734
        50.7504         46.0004
  20388934.0804    1449909.15949   1124505.33648                  20388933.1744
        53.5004         45.0004
  23219315.1394    4539345.80449   3514031.20347                  23219313.3224
        45.0004         30.5004
  22861727.6454   -2278783.44249  -1767079.97647                  22861725.4784
        46.5004         34.2504
  23824073.4734    7381768.01749   5725977.49347                  23824073.7444
        44.2504         25.7504
  21452119.9174    1735468.01849   1340855.28148                  21452116.6224
        51.5004         41.2504
  23757154.8864   -2802593.92949  -2168214.59847                  23757154.9154
        46.0004         26.5004
 04  7  6 18 20 20.0000000  0  9G 3G 9G14G15G18G19G21G22G25
  23045679.2814    3745528.34549   2904790.67047                  23045679.3344
        45.7504         33.0004
  24105601.9894    3801842.48049   2953750.05746                  24105602.0494
        40.0004         22.5004
  20378794.4134   -1466615.52949  -1138074.29548                  20378792.6094
        51.7504         46.0004
  20391227.5344    1461961.87549   1133897.05748                  20391226.5364
        53.0004         44.5004
  23222908.4704    4558231.75649   3528747.51347                  23222907.3214
        46.5004         30.7504
  22861219.9014   -2281451.37749  -1769158.89347                  22861217.3624
        46.0004         34.5004
  23830335.8174    7414677.59049   5751621.25047                  23830336.1334
        43.2504         26.5004
  21453654.6854    1743533.29349   1347139.90548                  21453651.8014
        50.7504         41.5004
  23750533.7324   -2837385.18849  -2195324.63047                  23750533.8914
        45.5004         26.0004
 04  7  6 18 20 30.0000000  0  9G 3G 9G14G15G18G19G21G22G25
  23049376.1234    3764953.80149   2919927.37747                  23049376.1234
        46.0004         33.0004
  24109818.5634    3823999.68149   2971015.40146                  24109818.2554
        40.2504         21.0004
  20378783.1934   -1466674.23949  -1138120.03948                  20378781.7474
        51.5004         45.7504
  20393530.5264    1474063.72149   1143327.06048                  20393529.7974
        53.5004         44.2504
  23226502.7204    4577119.76049   3543465.42647                  23226501.1824
        45.2504         30.7504
  22860722.2104   -2284066.31249  -1771196.51247                  22860719.7844
        45.7504         34.7504
  23836601.7804    7447603.36349   5777277.63947                  23836601.2914
        43.5004         26.7504
  21455190.7574    1751605.11149   1353429.63848                  21455187.8504
        50.2504         41.2504
  23743913.2354   -2872177.41949  -2222435.44847                  23743912.9074
        45.0004         27.0004
 04  7  6 18 20 40.0000000  0  9G 3G 9G14G15G18G19G21G22G25
  23053077.8634    3784405.94049   2935084.88947                  23053078.1734
        45.7504         33.5004
  24114044.0324    3846205.08749   2988318.31146                  24114044.0294
        39.2504         21.0004
  20378780.8524   -1466687.08849  -1138130.05548                  20378778.5754
        51.0004         45.7504
  20395843.2004    1486216.54449   1152796.78648                  20395841.8274
        53.0004         44.7504
  23230097.4314    4596011.51149   3558186.28947                  23230096.2574
        46.0004         30.2504
  22860234.3424   -2286626.39149  -1773191.38247                  22860233.1104
        46.0004         34.7504
  23842870.9984    7480547.15849   5802948.08047                  23842870.1344
        43.5004         26.0004
  21456728.5354    1759685.39149   1359725.95448                  21456725.1924
        51.0004         41.5004
  23737292.7614   -2906968.74849  -2249545.58347                  23737292.7004
        45.0004         26.5004
 04  7  6 18 20 50.0000000  0  9G 3G 9G14G15G18G19G21G22G25
  23056784.3064    3803884.19049   2950262.71947                  23056784.3744
        46.0004         34.0004
  24118278.4444    3868458.08449   3005658.28946                  24118278.5584
        39.0004         20.0004
  20378787.4524   -1466654.59349  -1138104.73848                  20378785.2164
        52.0004         45.5004
  20398165.4864    1498419.74349   1162305.76348                  20398164.4094
        53.2504         44.7504
  23233693.5074    4614906.58949   3572909.69347                  23233691.8794
        46.0004         29.7504
  22859758.2224   -2289132.14049  -1775143.92447                  22859756.5954
        46.7504         34.2504
  23849143.1954    7513508.32549   5828632.08047                  23849142.1444
        42.7504         27.7504
  21458267.2444    1767773.57949   1366028.43448                  21458264.0974
        51.5004         41.5004
  23730672.4124   -2941759.58049  -2276655.30247                  23730672.1184
        44.5004         26.0004
 04  7  6 18 21  0.0000000  0  9G 3G 9G14G15G18G19G21G22G25
  23060496.4524    3823389.78949   2965461.87947                  23060496.4684
        46.7504         34.0004
  24122521.9674    3890759.93349   3023036.35246                  24122522.3404
        38.5004         20.0004
  20378802.6944   -1466575.55049  -1138043.14548                  20378800.7474
        52.0004         46.0004
  20400497.3864    1510674.69149   1171855.06248                  20400496.5674
        53.7504         44.5004
  23237290.1614    4633806.31849   3587636.72247                  23237288.8954
        45.0004         30.7504
  22859292.3164   -2291582.21649  -1777053.09747                  22859289.2854
        46.0004         34.5004
  23855419.6604    7546488.20049   5854330.64647                  23855418.4324
        41.7504         26.2504
  21459808.4054    1775871.07049   1372338.15948                  21459805.5064
        51.0004         41.7504
  23724051.8294   -2976548.43949  -2303763.50046                  23724052.0574
        44.0004         25.5004
 04  7  6 18 21 10.0000000  0  9G 3G 9G14G15G18G19G21G22G25
  23064212.6994    3842922.75849   2980682.36947                  23064212.9854
        46.0004         32.5004
  24126774.6024    3913110.69648   3040452.48046                  24126775.6474
        34.5004         17.7504
  20378826.2384   -1466449.80849  -1137945.16648                  20378824.2714
        51.7504         45.7504
  20402839.2264    1522981.51649   1181444.79648                  20402838.2344
        53.5004         44.5004
  23240887.8054    4652710.95249   3602367.59947                  23240886.1734
        45.5004         31.0004
  22858835.9144   -2293976.53549  -1778918.79047                  22858834.2424
        45.5004         34.0004
  23861698.7064    7579486.77249   5880043.79247                  23861698.2344
        43.0004         27.7504
  21461351.3784    1783977.94349   1378655.19648                  21461347.3954
        51.0004         41.2504
  23717432.5924   -3011335.13349  -2330869.97846                  23717432.6794
        43.5004         25.5004
 04  7  6 18 21 20.0000000  0  8G 3G14G15G18G19G21G22G25
  23067935.1814    3862482.20249   2995923.48147                  23067935.0364
        45.2504         32.5004
  20378859.1754   -1466278.17549  -1137811.43048                  20378856.8674
        51.5004         46.0004
  20405190.9124    1535339.46949   1191074.35448                  20405189.8064
        53.0004         44.5004
  23244486.0774    4671619.62549   3617101.58847                  23244484.1134
        45.7504         31.2504
  22858391.2834   -2296315.85249  -1780741.67647                  22858388.6814
        46.5004         34.0004
  23867981.4234    7612503.33749   5905770.92747                  23867981.1064
        41.7504         26.5004
  21462895.8214    1792093.45849   1384978.97348                  21462892.1834
        51.0004         41.5004
  23710813.3874   -3046120.36549  -2357975.33946                  23710813.2184
        43.5004         24.0004
 04  7  6 18 21 30.0000000  0  8G 3G14G15G18G19G21G22G25
  23071661.7264    3882067.87849   3011185.03947                  23071661.7014
        44.7504         32.5004
  20378900.0184   -1466060.80449  -1137642.04048                  20378898.7324
        52.0004         46.0004
  20407552.3024    1547748.44049   1200743.68848                  20407551.0704
        53.5004         44.5004
  23248084.9314    4690532.18749   3631838.65347                  23248083.5434
        44.5004         31.5004
  22857955.6304   -2298600.29449  -1782521.74947                  22857954.4494
        45.5004         33.5004
  23874267.4914    7645537.68349   5931511.92847                  23874267.5104
        41.5004         26.7504
  21464441.4564    1800217.54149   1391309.42848                  21464438.2874
        50.5004         41.5004
  23704194.4894   -3080904.08249  -2385079.52047                  23704194.0264
        44.5004         26.0004
 04  7  6 18 21 40.0000000  0  8G 3G14G15G18G19G21G22G25
  23075394.2644    3901679.55149   3026466.84347                  23075394.3024
        46.0004         32.5004
  20378950.2404   -1465797.93349  -1137437.21848                  20378948.5564
        51.5004         45.5004
  20409923.5044    1560208.18449   1210452.56648                  20409922.1874
        53.5004         44.7504
  23251684.3904    4709448.57349   3646578.65147                  23251682.8934
        45.7504         30.2504
  22857532.5084   -2300830.08349  -1784259.25647                  22857529.3654
        45.2504         34.2504
  23880557.3244    7678589.65449   5957266.71346                  23880556.9784
        40.5004         25.5004
  21465988.7224    1808349.97249   1397646.38748                  21465986.3664
        50.7504         41.0004
  23697574.7754   -3115686.40549  -2412182.60546                  23697575.3964
        43.7504         25.2504
 04  7  6 18 21 50.0000000  0  8G 3G14G15G18G19G21G22G25
  23079130.8964    3921317.25749   3041768.93347                  23079131.2404
        45.7504         33.5004
  20379009.0474   -1465489.45249  -1137196.84348                  20379006.9544
        51.5004         46.0004
  20412304.2924    1572718.87049   1220201.15648                  20412303.1304
        53.5004         45.0004
  23255285.6584    4728368.93549   3661321.79747                  23255284.1174
        45.0004         31.5004
  22857118.2744   -2303005.08049  -1785954.07147                  22857116.0024
        46.5004         34.0004
  23886850.2124    7711659.30349   5983035.17947                  23886850.7424
        39.7504         26.5004
  21467537.9414    1816490.90649   1403989.96448                  21467535.3984
        50.7504         41.5004
  23690956.2114   -3150467.08149  -2439284.41147                  23690956.6024
        44.2504         26.7504
 04  7  6 18 22  0.0000000  0  8G 3G14G15G18G19G21G22G25
  23082872.3734    3940979.19849   3057089.92047                  23082872.5814
        45.2504         32.7504
  20379076.1374   -1465137.11649  -1136922.29348                  20379073.8634
        51.7504         45.7504
  20414693.9594    1585278.83249   1229988.12848                  20414693.0374
        53.5004         44.5004
  23258885.7834    4747291.61049   3676066.71747                  23258884.5684
        45.7504         32.0004
  22856714.5314   -2305126.96849  -1787607.48647                  22856711.8524
        44.7504         34.0004
  23893145.1664    7744744.71549   6008815.95446                  23893146.6424
        39.5004         25.2504
  21469088.5784    1824638.66749   1410338.86248                  21469085.8444
        50.0004         41.2504
  23684337.4434   -3185247.63149  -2466386.08946                  23684338.3184
        44.7504         25.0004
 04  7  6 18 22 10.0000000  0  8G 3G14G15G18G19G21G22G25
  23086619.0294    3960668.08149   3072431.90247                  23086619.6314
        46.0004         33.0004
  20379151.8354   -1464738.26049  -1136611.50248                  20379150.1454
        51.5004         45.5004
  20417094.1504    1597890.74449   1239815.57848                  20417092.8214
        54.5004         45.0004
  23262487.9114    4766219.26949   3690815.52347                  23262486.3984
        45.2504         31.7504
  22856321.5044   -2307193.07749  -1789217.45547                  22856318.9374
        45.5004         34.2504
  23899444.8984    7777848.68949   6034611.23247                  23899445.8464
        40.2504         27.0004
  21470640.7004    1832795.99549   1416695.21448                  21470638.0354
        50.5004         41.7504
  23677719.3054   -3220025.29649  -2493485.59246                  23677720.0264
        43.0004         24.7504
 04  7  6 18 22 20.0000000  0  8G 3G14G15G18G19G21G22G25
  23090369.9034    3980379.70849   3087791.59647                  23090370.2674
        46.5004         32.7504
  20379235.8044   -1464296.87049  -1136267.56048                  20379233.7594
        51.5004         46.0004
  20419503.0384    1610550.61549   1249680.40848                  20419501.8934
        54.5004         44.5004
  23266089.7544    4785148.06249   3705565.19847                  23266087.9474
        45.2504         31.5004
  22855938.2214   -2309207.39249  -1790787.05347                  22855935.8484
        46.5004         35.5004
  23905747.4674    7810967.12749   6060417.69946                  23905748.8084
        38.5004         24.5004
  21472193.9784    1840958.92249   1423055.93548                  21472191.2904
        50.5004         41.2504
  23671100.8884   -3254803.91549  -2520585.77446                  23671101.5594
        43.5004         25.5004
 04  7  6 18 22 30.0000000  0  8G 3G14G15G18G19G21G22G25
  23094126.6494    4000116.84149   3103171.16647                  23094125.9704
        46.2504         33.0004
  20379328.8844   -1463810.13449  -1135888.29048                  20379326.4184
        52.0004         45.7504
  20421921.7064    1623261.27449   1259584.80748                  20421920.1744
        53.2504         44.5004
  23269692.3004    4804080.69849   3720317.89647                  23269691.0514
        44.7504         31.5004
  22855565.1784   -2311167.12349  -1792314.13047                  22855563.0164
        46.7504         35.5004
  23912052.9114    7844102.79649   6086237.72246                  23912054.1614
        38.0004         23.7504
  21473749.0734    1849130.26049   1429423.20148                  21473746.2474
        51.0004         41.5004
  23664483.9754   -3289580.53749  -2547684.44247                  23664483.4924
        44.5004         26.7504
 04  7  6 18 22 40.0000000  0  8G 3G14G15G18G19G21G22G25
  23097887.8434    4019885.07849   3118574.97447                  23097888.3304
        47.0004         33.5004
  20379430.7654   -1463272.41349  -1135469.28948                  20379429.0284
        52.0004         45.2504
  20424351.5264    1636028.39749   1269533.21348                  20424350.4374
        53.0004         44.0004
  23273296.6214    4823022.82149   3735078.00147                  23273295.7724
        45.2504         30.7504
  22855204.4274   -2313066.58049  -1793794.22847                  22855201.6734
        46.0004         34.2504
  23918362.9844    7877261.41649   6112075.57046                  23918363.5654
        38.5004         22.5004
  21475306.8154    1857315.80249   1435801.54348                  21475304.2054
        51.0004         41.2504
  23657867.7714   -3324349.43749  -2574777.09847                  23657866.6764
        44.2504         27.0004
 04  7  6 18 22 50.0000000  0  8G 3G14G15G18G19G21G22G25
  23101654.0944    4039673.81249   3133994.74947                  23101654.5634
        47.2504         33.7504
  20379540.9064   -1462694.30049  -1135018.80848                  20379538.9184
        51.5004         45.7504
  20426789.7554    1648841.51049   1279517.45948                  20426788.5774
        52.5004         44.0004
  23276901.4454    4841963.98649   3749837.32747                  23276900.4024
        45.0004         30.0004
  22854851.4384   -2314916.24349  -1795235.51747                  22854849.6854
        46.5004         34.5004
  23924675.7254    7910432.31549   6137922.95146                  23924675.4354
        39.0004         23.2504
  21476865.6864    1865504.93949   1442182.68848                  21476862.1154
        50.7504         41.5004
  23651251.0784   -3359120.87349  -2601871.68447                  23651250.2944
        44.2504         26.0004
 04  7  6 18 23  0.0000000  0  8G 3G14G15G18G19G21G22G25
  23105423.8574    4059487.02749   3149433.59847                  23105424.4804
        47.0004         33.0004
  20379659.0914   -1462071.76649  -1134533.71748                  20379657.5164
        52.0004         45.0004
  20429237.3924    1661704.61249   1289540.64548                  20429236.5354
        52.7504         43.7504
  23280506.2594    4860908.21349   3764599.04547                  23280505.5724
        46.0004         30.2504
  22854510.4754   -2316712.13249  -1796634.91547                  22854508.3654
        46.2504         34.0004
  23930990.8064    7943619.34649   6163782.96846                  23930990.6924
        38.0004         24.0004
  21478425.2774    1873701.76649   1448569.81148                  21478421.7454
        50.7504         40.5004
  23644634.1424   -3393890.72049  -2628965.05047                  23644634.4204
        44.5004         27.0004
 04  7  6 18 23 10.0000000  0  8G 3G14G15G18G19G21G22G25
  23109198.7464    4079325.55149   3164892.17047                  23109199.3154
        46.2504         33.2504
  20379786.6534   -1461403.89349  -1134013.29848                  20379784.5504
        52.0004         45.7504
  20431694.9294    1674618.62649   1299603.51048                  20431693.7964
        52.7504         44.5004
  23284111.1454    4879856.41549   3779363.85747                  23284110.7824
        44.5004         30.5004
  22854178.5364   -2318453.26949  -1797991.67147                  22854176.1184
        46.2504         34.2504
  23937309.1774    7976823.65749   6189656.36446                  23937308.4504
        38.5004         24.2504
  21479986.6514    1881907.23549   1454963.67848                  21479983.2684
        51.0004         41.2504
  23638018.0544   -3428657.95649  -2656056.38847                  23638018.6044
        44.5004         27.2504
 04  7  6 18 23 20.0000000  0  8G 3G14G15G18G19G21G22G25
  23112979.1974    4099188.13249   3180369.50447                  23112979.3294
        47.2504         33.0004
  20379921.8284   -1460691.86949  -1133458.47548                  20379920.0694
        52.2504         45.5004
  20434162.0614    1687582.41149   1309705.15548                  20434160.8914
        53.2504         44.2504
  23287718.2994    4898807.62749   3794131.04447                  23287716.8664
        43.7504         31.5004
  22853857.6074   -2320140.83149  -1799306.63747                  22853855.2824
        46.2504         34.5004
  23943630.6094    8010043.97349   6215542.31946                  23943630.8514
        38.7504         22.5004
  21481549.2424    1890120.21949   1461363.40748                  21481546.6554
        50.2504         41.0004
  23631402.3334   -3463423.58449  -2683146.45947                  23631403.3824
        44.2504         26.5004
 04  7  6 18 23 30.0000000  0  8G 3G14G15G18G19G21G22G25
  23116763.2894    4119075.56049   3195866.20147                  23116763.1524
        47.2504         33.0004
  20380065.7614   -1459934.97449  -1132868.68348                  20380063.7584
        52.0004         45.5004
  20436638.4884    1700596.86149   1319846.28948                  20436637.2334
        52.5004         44.5004
  23291325.9074    4917762.68449   3808901.21047                  23291324.4154
        44.5004         31.0004
  22853547.1454   -2321773.96149  -1800579.23247                  22853544.2764
        46.0004         34.5004
  23949955.5964    8043281.05749   6241441.28746                  23949955.4734
        38.7504         23.0004
  21483113.8974    1898341.52149   1467769.61648                  21483111.1594
        51.2504         42.0004
  23624787.8514   -3498186.74149  -2710234.64047                  23624787.8764
        44.0004         27.0004
 04  7  6 18 23 40.0000000  0  8G 3G14G15G18G19G21G22G25
  23120552.7394    4138988.42049   3211382.69047                  23120552.5804
        47.0004         32.0004
  20380218.6194   -1459132.45249  -1132243.35348                  20380216.9654
        52.0004         45.5004
  20439124.8874    1713662.62549   1330027.38648                  20439123.2734
        52.5004         44.7504
  23294933.0464    4936722.25549   3823674.87747                  23294931.7084
        42.5004         29.7504
  22853246.0544   -2323352.02649  -1801808.91547                  22853244.4064
        45.0004         35.0004
  23956284.9144    8076535.60049   6267353.88347                  23956283.8834
        39.5004         25.7504
  21484680.3024    1906571.92849   1474182.91348                  21484676.7824
        51.2504         41.2504
  23618173.2044   -3532946.55649  -2737320.19647                  23618173.4744
        44.0004         27.0004
 04  7  6 18 23 50.0000000  0  8G 3G14G15G18G19G21G22G25
  23124346.7684    4158926.28249   3226918.66547                  23124346.9374
        45.7504         31.7504
  20380380.1104   -1458284.74549  -1131582.79748                  20380377.9354
        51.2504         45.5004
  20441620.7614    1726779.31649   1340248.17948                  20441619.3854
        53.0004         44.2504
  23298541.5794    4955685.95049   3838451.77147                  23298540.5374
        44.0004         31.0004
  22852956.7484   -2324875.35349  -1802995.92447                  22852954.3114
        44.5004         34.5004
  23962615.6774    8109807.11349   6293279.69146                  23962614.8804
        39.7504         25.0004
  21486247.8034    1914811.10949   1480603.04948                  21486245.2844
        51.0004         41.0004
  23611558.7824   -3567703.35149  -2764403.41847                  23611559.1174
        45.5004         27.5004
 04  7  6 18 24  0.0000000  0  8G 3G14G15G18G19G21G22G25
  23128144.9014    4178886.95449   3242472.42047                  23128145.4274
        46.7504         32.0004
  20380549.3064   -1457393.82149  -1130888.57248                  20380547.4374
        52.0004         45.2504
  20444125.9774    1739944.91249   1350507.08048                  20444124.8484
        52.5004         44.2504
  23302150.7564    4974651.90249   3853230.40747                  23302149.4024
        44.2504         31.0004
  22852676.5144   -2326346.02749  -1804141.91647                  22852674.2284
        43.5004         35.5004
  23968949.8444    8143093.61949   6319217.16746                  23968949.3314
        40.2504         24.5004
  21487817.4114    1923056.96049   1487028.38048                  21487814.2994
        51.2504         40.7504
  23604945.3844   -3602458.89649  -2791485.64647                  23604946.1354
        45.2504         28.0004
 04  7  6 18 24 10.0000000  0  8G 3G14G15G18G19G21G22G25
  23131949.2004    4198874.01049   3258046.74247                  23131949.0414
        46.7504         31.7504
  20380727.7204   -1456456.12249  -1130157.90048                  20380725.9604
        52.0004         45.2504
  20446641.5744    1753163.08649   1360806.95348                  20446640.2254
        52.5004         43.7504
  23305760.7884    4993623.69249   3868013.61447                  23305759.6674
        44.0004         30.0004
  22852407.6744   -2327760.40349  -1805244.03747                  22852404.8384
        43.0004         34.2504
  23975287.5704    8176398.58249   6345169.03946                  23975287.0364
        40.5004         25.2504
  21489388.2224    1931313.17249   1493461.79148                  21489384.4494
        50.0004         40.7504
  23598331.9264   -3637209.48249  -2818564.01447                  23598334.2824
        45.0004         28.5004
 04  7  6 18 24 20.0000000  0  8G 3G14G15G18G19G21G22G25
  23135756.8264    4218886.15049   3273640.60547                  23135757.4974
        47.2504         32.7504
  20380915.0534   -1455472.91749  -1129391.77148                  20380912.9884
        51.7504         45.5004
  20449166.2504    1766432.59149   1371146.82248                  20449165.5124
        52.5004         44.2504
  23309372.2924    5012600.07649   3882800.39547                  23309370.6034
        43.2504         29.7504
  22852149.1534   -2329119.63549  -1806303.19047                  22852146.7024
        43.7504         34.2504
  23981629.0954    8209720.63649   6371134.21146                  23981628.4794
        41.0004         24.7504
  21490961.1174    1939578.55749   1499902.34248                  21490957.8234
        50.2504         41.7504
  23591720.4334   -3671956.19249  -2845639.33747                  23591721.6674
        44.5004         28.7504
 04  7  6 18 24 30.0000000  0  8G 3G14G15G18G19G21G22G25
  23139569.3564    4238921.71249   3289252.72547                  23139569.8184
        47.0004         33.0004
  20381110.1474   -1454445.87249  -1128591.47948                  20381108.5864
        52.0004         45.0004
  20451701.2444    1779751.88049   1381525.47848                  20451700.1514
        52.7504         44.7504
  23312984.4334    5031579.59149   3897589.59047                  23312982.6024
        43.5004         30.2504
  22851900.3724   -2330425.35449  -1807320.63447                  22851898.4144
        45.0004         34.7504
  23987972.4744    8243058.41249   6397111.63746                  23987972.6094
        39.5004         24.0004
  21492535.6004    1947851.58349   1506348.85548                  21492532.2894
        50.7504         41.2504
  23585109.1654   -3706700.51749  -2872712.85147                  23585109.6994
        45.0004         27.2504
 04  7  6 18 24 40.0000000  0  8G 3G14G15G18G19G21G22G25
  23143386.4764    4258982.01449   3304884.10747                  23143387.2004
        46.5004         32.2504
  20381314.2794   -1453373.64049  -1127755.97848                  20381312.7244
        51.7504         45.5004
  20454245.5934    1793122.29549   1391943.98148                  20454244.3364
        53.0004         44.0004
  23316597.0184    5050563.60549   3912382.30547                  23316595.2194
        44.5004         30.7504
  22851662.4934   -2331676.23649  -1808295.36347                  22851660.6404
        45.0004         35.0004
  23994319.6894    8276413.02549   6423102.24546                  23994319.8784
        41.5004         25.2504
  21494111.6344    1956133.59349   1512802.36348                  21494107.9384
        51.2504         41.2504
  23578497.3144   -3741441.03349  -2899783.35647                  23578498.6684
        45.0004         28.0004
 04  7  6 18 24 50.0000000  0  8G 3G14G15G18G19G21G22G25
  23147209.0774    4279067.71249   3320535.28847                  23147209.4034
        46.7504         33.0004
  20381527.2344   -1452255.34649  -1126884.56848                  20381525.7834
        51.7504         45.2504
  20456799.4044    1806544.64249   1402402.94348                  20456798.3054
        52.5004         44.2504
  23320210.3134    5069552.94849   3927179.19647                  23320208.7704
        44.5004         31.0004
  22851434.8514   -2332871.49049  -1809226.73747                  22851433.5054
        45.5004         35.5004
  24000670.2724    8309785.30249   6449106.60346                  24000670.6794
        41.7504         25.0004
  21495689.0904    1964425.41249   1519263.51448                  21495686.1734
        51.2504         41.2504
  23571887.8294   -3776176.77749  -2926850.17147                  23571888.4004
        45.0004         28.0004
 04  7  6 18 25  0.0000000  0  8G 3G14G15G18G19G21G22G25
  23151035.7514    4299177.93849   3336205.58747                  23151036.7724
        48.0004         32.7504
  20381748.5424   -1451091.89549  -1125977.99448                  20381746.6344
        51.7504         45.0004
  20459363.6794    1820018.11049   1412901.74748                  20459362.3284
        52.5004         44.0004
  23323824.5354    5088546.77949   3941979.56347                  23323823.1164
        44.7504         29.7504
  22851218.2084   -2334011.90049  -1810115.38347                  22851216.2594
        45.5004         35.5004
  24007023.6304    8343174.42549   6475124.07446                  24007024.3684
        41.5004         25.2504
  21497268.8534    1972726.25649   1525731.69948                  21497265.5824
        51.7504         41.2504
  23565278.7814   -3810908.45749  -2953913.78447                  23565279.1844
        45.0004         28.2504
 04  7  6 18 25 10.0000000  0  8G 3G14G15G18G19G21G22G25
  23154867.2904    4319313.17249   3351895.35347                  23154867.7384
        46.7504         31.5004
  20381978.8584   -1449882.87849  -1125035.89848                  20381976.7394
        52.0004         45.2504
  20461937.3024    1833543.22049   1423440.78248                  20461935.9574
        52.5004         44.0004
  23327439.7774    5107545.67749   3956783.87647                  23327439.0154
        44.5004         29.0004
  22851011.3374   -2335096.96149  -1810960.88747                  22851009.5754
        44.5004         35.0004
  24013381.1824    8376580.79249   6501154.96646                  24013381.9644
        41.0004         24.7504
  21498850.2934    1981036.67249   1532207.33548                  21498847.1434
        51.2504         40.7504
  23558670.6224   -3845635.36049  -2980973.73447                  23558669.9644
        44.5004         28.5004
 04  7  6 18 25 20.0000000  0  8G 3G14G15G18G19G21G22G25
  23158703.0114    4339471.53249   3367603.15847                  23158703.6884
        46.7504         31.5004
  20382217.1204   -1448630.03149  -1124059.65548                  20382215.7494
        52.2504         45.0004
  20464520.5534    1847118.24849   1434018.72448                  20464519.8444
        53.0004         44.0004
  23331055.8354    5126547.89349   3971590.78747                  23331054.3224
        44.5004         29.7504
  22850815.5664   -2336128.41849  -1811764.63047                  22850813.4324
        45.2504         34.7504
  24019741.6484    8410002.67049   6527197.97446                  24019741.9624
        43.5004         22.5004
  21500433.0494    1989354.99749   1538689.14748                  21500429.8644
        50.2504         40.0004
  23552063.0864   -3880359.16249  -3008031.23847                  23552062.5094
        43.7504         27.5004
 04  7  6 18 25 30.0000000  0  8G 3G14G15G18G19G21G22G25
  23162543.3274    4359652.60249   3383328.63647                  23162543.4484
        46.7504         31.2504
  20382463.6494   -1447333.66149  -1123049.50048                  20382462.0164
        52.5004         45.0004
  20467113.1494    1860742.84349   1444635.28448                  20467111.9314
        52.5004         44.2504
  23334672.2764    5145553.12349   3986400.01947                  23334671.2104
        44.0004         29.7504
  22850629.1904   -2337106.61549  -1812526.87447                  22850627.1544
        47.0004         35.0004
  24026104.3594    8443439.57249   6553252.69546                  24026104.8084
        41.7504         22.0004
  21502017.7584    1997680.82949   1545176.79348                  21502014.4764
        51.2504         40.7504
  23545454.8994   -3915080.03449  -3035086.42247                  23545455.6644
        43.5004         26.7504
 04  7  6 18 25 40.0000000  0  8G 3G14G15G18G19G21G22G25
  23166388.0384    4379857.09849   3399072.38747                  23166388.1774
        45.7504         32.0004
  20382718.7564   -1445993.05649  -1122004.87348                  20382717.1444
        51.5004         45.0004
  20469715.5404    1874417.79549   1455291.08548                  20469714.3754
        52.5004         43.7504
  23338289.8214    5164562.11849   4001212.21147                  23338288.4464
        45.0004         29.5004
  22850453.5594   -2338030.78449  -1813247.00147                  22850451.3884
        46.7504         34.7504
  24032469.7804    8476892.32649   6579319.70046                  24032470.9934
        40.5004         25.2504
  21503603.3444    2006015.01749   1551670.96748                  21503600.1284
        50.7504         41.2504
  23538848.5164   -3949797.13049  -3062138.69647                  23538849.3514
        44.0004         27.2504
 04  7  6 18 25 50.0000000  0  8G 3G14G15G18G19G21G22G25
  23170237.1944    4400085.38849   3414834.68247                  23170237.8484
        46.0004         32.2504
  20382982.0664   -1444607.66449  -1120925.34248                  20382981.0754
        51.7504         45.5004
  20472327.3534    1888143.59549   1465986.50848                  20472326.1264
        52.0004         44.0004
  23341907.7284    5183575.60449   4016027.90547                  23341906.8404
        43.0004         29.5004
  22850287.4864   -2338900.40849  -1813924.65147                  22850286.2164
        46.2504         34.7504
  24038838.0974    8510361.40949   6605399.47346                  24038839.7544
        39.5004         23.2504
  21505191.2144    2014358.10249   1558172.07848                  21505188.4314
        51.5004         41.2504
  23532242.9304   -3984509.81849  -3089187.51247                  23532243.7484
        43.0004         27.5004
 04  7  6 18 26  0.0000000  0  8G 3G14G15G18G19G21G22G25
  23174091.1474    4420336.24049   3430614.52747                  23174092.3264
        46.7504         32.0004
  20383254.0744   -1443178.84149  -1119811.98648                  20383253.1494
        52.0004         45.2504
  20474948.9524    1901919.04249   1476720.61448                  20474947.5674
        52.7504         44.2504
  23345526.5804    5202592.29149   4030846.07247                  23345525.4154
        42.7504         29.2504
  22850132.7954   -2339716.76949  -1814560.77447                  22850130.7164
        45.5004         34.7504
  24045210.6834    8543845.52349   6631490.98046                  24045211.7014
        39.0004         22.7504
  21506780.4614    2022708.84049   1564679.13348                  21506777.3174
        51.5004         41.2504
  23525637.5264   -4019219.13549  -3116233.73247                  23525638.4894
        43.5004         28.0004
 04  7  6 18 26 10.0000000  0  8G 3G14G15G18G19G21G22G25
  23177949.8384    4440610.91849   3446412.96347                  23177950.3574
        47.0004         32.7504
  20383535.0624   -1441705.18349  -1118663.68248                  20383532.9834
        52.2504         45.5004
  20477579.9744    1915745.51549   1487494.48948                  20477578.8794
        52.7504         43.7504
  23349146.0244    5221613.59149   4045667.86747                  23349144.9124
        43.2504         29.0004
  22849987.2304   -2340478.38249  -1815154.27247                  22849985.4324
        46.0004         34.2504
  24051585.0044    8577345.96349   6657595.18346                  24051586.5834
        39.0004         22.7504
  21508371.0474    2031068.64249   1571193.26248                  21508367.6794
        51.5004         41.5004
  23519033.8844   -4053923.55149  -3143276.12747                  23519034.7754
        43.5004         27.0004
 04  7  6 18 26 20.0000000  0  8G 3G14G15G18G19G21G22G25
  23181812.0424    4460910.91649   3462231.13447                  23181812.7834
        47.0004         31.5004
  20383824.1374   -1440185.13849  -1117479.22748                  20383822.3844
        52.7504         45.5004
  20480221.1374    1929624.59249   1498309.35548                  20480220.3374
        52.7504         44.0004
  23352766.7694    5240641.11949   4060494.49547                  23352765.8874
        42.7504         29.5004
  22849853.3614   -2341183.75749  -1815703.90447                  22849850.6324
        46.5004         34.5004
  24057964.0624    8610864.36049   6683713.37846                  24057965.3544
        39.5004         22.7504
  21509964.1174    2039439.13849   1577715.72248                  21509961.3364
        52.0004         41.5004
  23512431.1304   -4088621.45149  -3170313.43847                  23512432.1684
        43.7504         27.7504
 04  7  6 18 26 30.0000000  0  8G 3G14G15G18G19G21G22G25
  23185679.3284    4481231.38349   3478065.24047                  23185679.6364
        47.5004         31.5004
  20384121.5264   -1438623.55249  -1116262.41148                  20384119.8394
        52.2504         44.7504
  20482871.6214    1943551.52049   1509161.49648                  20482870.1414
        53.0004         44.0004
  23356388.2244    5259670.07249   4075322.20447                  23356386.6054
        41.0004         28.2504
  22849729.1044   -2341837.61549  -1816213.43247                  22849726.5544
        46.7504         34.2504
  24064344.9874    8644395.84149   6709841.75246                  24064345.8794
        40.5004         22.5004
  21511558.0934    2047815.61949   1584242.83748                  21511554.9064
        50.5004         41.2504
  23505828.7424   -4123317.45649  -3197349.24447                  23505829.4654
        44.0004         26.0004
 04  7  6 18 26 40.0000000  0  8G 3G14G15G18G19G21G22G25
  23189550.7764    4501575.95749   3493918.14647                  23189550.7864
        46.7504         32.0004
  20384427.1534   -1437016.67849  -1115010.30048                  20384424.6874
        51.5004         45.2504
  20485531.3664    1957530.05949   1520053.86448                  20485530.4944
        53.0004         44.2504
  23360009.9934    5278704.24749   4090154.04047                  23360009.6514
        42.0004         29.0004
  22849615.1654   -2342436.21349  -1816679.87747                  22849613.0714
        47.0004         34.5004
  24070728.7814    8677944.13449   6735983.24746                  24070729.8004
        37.5004         24.5004
  21513154.1824    2056201.85149   1590777.56048                  21513150.6904
        51.2504         41.5004
  23499226.9024   -4158007.63149  -3224380.52547                  23499228.5484
        44.2504         27.5004
 04  7  6 18 26 50.0000000  0  8G 3G14G15G18G19G21G22G25
  23193427.0424    4521943.92549   3509789.29347                  23193427.0974
        47.2504         31.7504
  20384741.5474   -1435365.19149  -1113723.42948                  20384739.3854
        52.0004         45.2504
  20488201.0144    1971559.56049   1530985.93248                  20488200.1324
        53.2504         44.0004
  23363633.0364    5297743.01749   4104989.43747                  23363632.2834
        42.7504         29.0004
  22849511.3064   -2342980.28849  -1817103.83747                  22849509.5894
        47.0004         34.2504
  24077115.2214    8711508.38149   6762137.20046                  24077116.3844
        37.0004         21.7504
  21514751.4114    2064597.19549   1597319.37948                  21514748.2104
        51.0004         41.0004
  23492626.9864   -4192692.62449  -3251407.79147                  23492628.0064
        43.5004         29.0004
 04  7  6 18 27  0.0000000  0  8G 3G14G15G18G19G21G22G25
  23197307.2714    4542334.62549   3525678.14947                  23197307.0034
        48.0004         33.2504
  20385063.9954   -1433669.74449  -1112402.30348                  20385062.2054
        51.7504         45.5004
  20490880.2674    1985639.39349   1541957.22548                  20490878.9324
        52.5004         44.5004
  23367256.3674    5316785.80749   4119827.96747                  23367256.0654
        42.7504         28.7504
  22849418.2634   -2343470.50149  -1817485.82347                  22849416.5594
        46.7504         35.0004
  24083505.3114    8745088.18748   6788303.20346                  24083506.3954
        34.2504         21.2504
  21516350.2584    2073001.10049   1603867.87448                  21516347.0794
        50.7504         41.5004
  23486027.7584   -4227372.81849  -3278431.31747                  23486028.6924
        44.5004         29.0004
 04  7  6 18 27 10.0000000  0  8G 3G14G15G18G19G21G22G25
  23201191.3944    4562747.77749   3541584.46947                  23201192.2064
        47.2504         32.0004
  20385394.7964   -1431930.47449  -1111047.03248                  20385392.7514
        52.0004         45.0004
  20493569.4674    1999769.42749   1552967.63348                  20493568.0524
        52.5004         44.5004
  23370881.0724    5335832.57349   4134669.57047                  23370880.8034
        43.5004         28.7504
  22849335.5834   -2343906.85549  -1817825.86047                  22849333.4544
        46.5004         35.2504
  24089898.1424    8778683.17849   6814481.06846                  24089899.2794
        36.2504         21.5004
  21517951.6894    2081413.42949   1610422.92848                  21517948.0754
        52.0004         41.5004
  23479429.9354   -4262048.24349  -3305451.09447                  23479430.7564
        44.7504         29.0004
 04  7  6 18 27 20.0000000  0  8G 3G14G15G18G19G21G22G25
  23205080.0674    4583182.31149   3557507.46847                  23205080.8314
        47.5004         32.7504
  20385734.2444   -1430148.42149  -1109658.42448                  20385732.2714
        51.7504         45.0004
  20496267.4094    2013948.66149   1564016.38848                  20496266.5944
        53.0004         44.5004
  23374506.2374    5354882.32349   4149513.51347                  23374505.4604
        43.7504         27.5004
  22849262.2934   -2344290.35449  -1818124.70647                  22849260.2644
        47.5004         35.0004
  24096293.9894    8812292.44648   6840670.06646                  24096294.7774
        35.5004         21.2504
  21519553.6774    2089833.19649   1616983.77748                  21519550.0814
        51.5004         41.0004
  23472831.8184   -4296719.78649  -3332467.88847                  23472832.6114
        44.2504         28.2504
 04  7  6 18 27 30.0000000  0  8G 3G14G15G18G19G21G22G25
  23208973.3574    4603639.97349   3573448.49147                  23208973.5364
        46.5004         32.0004
  20386081.6294   -1428321.84549  -1108235.11148                  20386079.6734
        52.0004         45.0004
  20498975.1984    2028178.91649   1575104.89148                  20498973.9364
        53.0004         44.0004
  23378132.1704    5373936.89149   4164361.23547                  23378131.4884
        41.5004         28.7504
  22849199.2974   -2344619.22449  -1818380.96547                  22849197.0124
        46.5004         34.2504
  24102693.7244    8845917.56549   6866871.38446                  24102694.1244
        38.0004         22.5004
  21521158.0554    2098262.21149   1623551.84548                  21521154.4544
        51.5004         40.7504
  23466234.3604   -4331385.55049  -3359480.14347                  23466235.1034
        43.7504         28.0004
 04  7  6 18 27 40.0000000  0  8G 3G14G15G18G19G21G22G25
  23212869.8194    4624120.18649   3589407.07947                  23212871.3534
        47.0004         31.2504
  20386437.3474   -1426451.24049  -1106777.49148                  20386435.3584
        52.0004         45.0004
  20501692.8634    2042459.72049   1586232.78648                  20501691.9894
        52.7504         43.5004
  23381758.1694    5392995.81249   4179212.33047                  23381758.2884
        41.7504         29.0004
  22849146.9764   -2344894.00549  -1818595.08247                  22849145.0494
        47.2504         34.5004
  24109096.0644    8879558.04749   6893084.63246                  24109095.6104
        38.7504         22.7504
  21522763.2624    2106700.08449   1630126.80348                  21522760.0414
        50.7504         40.2504
  23459638.5824   -4366045.83649  -3386488.15347                  23459639.5304
        44.0004         27.7504
 04  7  6 18 27 50.0000000  0  8G 3G14G15G18G19G21G22G25
  23216772.0004    4644622.51449   3605382.90047                  23216772.7854
        46.0004         32.2504
  20386801.9284   -1424536.96849  -1105285.86148                  20386799.7934
        52.0004         45.0004
  20504419.9364    2056790.68149   1597399.75548                  20504419.0974
        53.0004         43.7504
  23385387.4504    5412058.71949   4194066.52747                  23385386.2714
        43.7504         29.5004
  22849105.7084   -2345115.11749  -1818767.38947                  22849103.1344
        47.5004         35.2504
  24115499.1584    8913213.51549   6919309.67446                  24115499.8044
        38.7504         21.7504
  21524370.3314    2115146.38749   1636708.33848                  21524367.3414
        51.7504         41.2504
  23453044.4814   -4400700.94449  -3413492.10847                  23453045.1804
        43.5004         27.5004
 04  7  6 18 28  0.0000000  0  8G 3G14G15G18G19G21G22G25
  23220677.3734    4665147.94049   3621376.73747                  23220677.7014
        47.0004         31.5004
  20387174.7364   -1422577.97949  -1103759.37548                  20387173.1204
        51.7504         45.0004
  20507156.8974    2071172.94549   1608606.71448                  20507156.0684
        53.2504         44.0004
  23389015.4724    5431126.74049   4208924.71147                  23389014.7364
        43.0004         29.7504
  22849073.7264   -2345281.35649  -1818896.93747                  22849071.6874
        47.5004         35.0004
  24121905.8984    8946885.13049   6945547.20246                  24121906.9004
        36.7504         22.0004
  21525979.7164    2123602.32749   1643297.36848                  21525976.5274
        50.7504         41.2504
  23446450.3624   -4435349.55549  -3440491.00147                  23446451.5554
        43.7504         28.2504
 04  7  6 18 28 10.0000000  0  8G 3G14G15G18G19G21G22G25
  23224587.7634    4685697.91349   3637389.65847                  23224588.7194
        45.5004         31.5004
  20387556.2784   -1420572.70349  -1102196.83048                  20387554.0594
        51.7504         45.0004
  20509903.9174    2085608.05849   1619854.84548                  20509902.3334
        53.0004         44.5004
  23392644.8604    5450201.46049   4223788.13047                  23392644.5984
        43.5004         31.0004
  22849052.9164   -2345391.27249  -1818982.59547                  22849051.0424
        46.2504         34.7504
  24128318.0054    8980574.29649   6971798.43046                  24128318.1244
        38.0004         22.5004
  21527590.8674    2132069.47649   1649895.14348                  21527587.8974
        51.0004         41.5004
  23439859.1304   -4469990.02349  -3467483.59547                  23439859.0004
        44.5004         25.7504
 04  7  6 18 28 20.0000000  0  8G 3G14G15G18G19G21G22G25
  23228502.9524    4706267.66649   3653418.03447                  23228503.1814
        45.7504         31.7504
  20387945.7204   -1418526.05949  -1100602.03948                  20387944.3014
        51.5004         45.2504
  20512659.6364    2100091.23549   1631140.43648                  20512658.7004
        52.7504         44.5004
  23396275.3634    5469278.16549   4238653.06647                  23396274.9244
        43.7504         29.7504
  22849041.6344   -2345449.59649  -1819028.04847                  22849039.5104
        46.2504         34.5004
  24134731.3354    9014276.15849   6998059.60346                  24134731.2244
        39.5004         23.5004
  21529203.6844    2140543.07249   1656497.94048                  21529200.1094
        51.0004         41.5004
  23433267.4554   -4504626.95349  -3494473.38147                  23433267.7974
        44.2504         28.5004
 04  7  6 18 28 30.0000000  0  8G 3G14G15G18G19G21G22G25
  23232421.8854    4726860.74149   3669464.57147                  23232421.1834
        45.5004         31.5004
  20388343.5974   -1416434.37249  -1098972.16348                  20388341.9804
        52.0004         45.5004
  20515425.6874    2114626.15749   1642466.34048                  20515424.3734
        52.7504         44.0004
  23399906.4814    5488360.60649   4253522.47547                  23399906.2984
        44.0004         29.5004
  22849040.5584   -2345452.62249  -1819030.41747                  22849038.5284
        46.7504         34.5004
  24141147.8294    9047994.38249   7024333.50846                  24141147.9824
        40.0004         25.5004
  21530817.9944    2149026.82349   1663108.65148                  21530814.7004
        51.7504         41.2504
  23426678.2944   -4539256.68649  -3521457.57547                  23426678.3504
        44.5004         28.5004
 04  7  6 18 28 40.0000000  0  8G 3G14G15G18G19G21G22G25
  23236344.1804    4747476.71349   3685528.97647                  23236344.5784
        46.7504         32.0004
  20388750.2094   -1414297.90049  -1097307.37448                  20388748.8354
        51.7504         44.7504
  20518201.3794    2129212.49949   1653832.32148                  20518199.9084
        52.2504         43.5004
  23403539.2504    5507448.43849   4268396.09947                  23403538.3444
        45.0004         29.7504
  22849051.1824   -2345400.71549  -1818989.96547                  22849048.4274
        46.2504         34.2504
  24147566.5764    9081728.61149   7050619.86247                  24147567.1414
        40.0004         26.7504
  21532434.2174    2157520.40849   1669727.02248                  21532430.6394
        51.7504         41.2504
  23420089.8094   -4573879.37849  -3548436.28047                  23420089.6184
        45.2504         28.7504
 04  7  6 18 28 50.0000000  0  8G 3G14G15G18G19G21G22G25
  23240271.0834    4768113.54949   3701609.59247                  23240271.9614
        46.0004         31.5004
  20389165.0524   -1412118.75949  -1095609.35748                  20389163.0354
        51.7504         45.0004
  20520986.5614    2143848.19049   1665236.74348                  20520985.4134
        53.0004         43.5004
  23407171.4314    5526539.59449   4283272.31647                  23407170.9954
        43.7504         29.7504
  22849070.8884   -2345295.93649  -1818908.34047                  22849069.0654
        46.0004         34.5004
  24153988.5424    9115476.71549   7076917.04047                  24153989.6734
        41.0004         27.0004
  21534051.9004    2166021.80349   1676351.47648                  21534048.3584
        51.7504         41.0004
  23413502.2094   -4608496.79549  -3575410.86647                  23413502.4104
        45.0004         29.5004
 04  7  6 18 29  0.0000000  0  8G 3G14G15G18G19G21G22G25
  23244202.2644    4788772.34949   3717707.33147                  23244203.0554
        44.7504         31.5004
  20389588.0054   -1409895.73349  -1093877.12048                  20389586.1604
        52.0004         45.0004
  20523781.0864    2158534.45749   1676680.59148                  20523779.8334
        52.5004         43.7504
  23410805.4664    5545635.43349   4298152.17247                  23410805.3214
        43.5004         29.5004
  22849100.7704   -2345137.09449  -1818784.56447                  22849098.5934
        46.5004         35.2504
  24160413.3864    9149240.00549   7103226.05546                  24160414.3934
        41.5004         25.2504
  21535671.7764    2174532.32049   1682983.04548                  21535668.3634
        51.5004         41.2504
  23406916.1504   -4643107.67349  -3602380.36247                  23406916.3474
        45.5004         29.2504
 04  7  6 18 29 10.0000000  0  8G 3G14G15G18G19G21G22G25
  23248138.3544    4809453.20949   3733822.26547                  23248138.7464
        45.2504         31.5004
  20390019.5894   -1407628.72049  -1092110.62848                  20390017.8074
        52.0004         45.5004
  20526585.1714    2173271.51049   1688163.99248                  20526584.2674
        52.2504         43.5004
  23414439.9234    5564736.10449   4313035.80647                  23414439.6404
        43.7504         30.0004
  22849141.2854   -2344923.92749  -1818618.47547                  22849139.4734
        46.2504         34.5004
  24166840.3914    9183018.54049   7129546.92746                  24166842.3854
        41.0004         25.5004
  21537292.8964    2183052.18049   1689621.88048                  21537289.3374
        52.0004         41.2504
  23400331.2014   -4677711.77249  -3629344.56947                  23400331.1194
        44.0004         28.5004
 04  7  6 18 29 20.0000000  0  8G 3G14G15G18G19G21G22G25
  23252077.9814    4830155.30149   3749953.74747                  23252077.6604
        46.7504         31.7504
  20390459.2554   -1405318.39949  -1090310.37648                  20390457.3944
        51.7504         44.7504
  20529399.3844    2188058.64049   1699686.43248                  20529398.3784
        53.2504         44.0004
  23418075.8704    5583840.99649   4327922.71747                  23418075.3834
        44.2504         30.0004
  22849191.9674   -2344657.22049  -1818410.65147                  22849190.4494
        46.5004         34.5004
  24173272.6124    9216811.64449   7155879.12447                  24173273.5814
        41.0004         26.5004
  21538915.6934    2191580.66549   1696267.45348                  21538912.6394
        52.0004         41.5004
  23393747.5004   -4712309.64149  -3656303.96247                  23393747.1564
        43.5004         28.7504
 04  7  6 18 29 30.0000000  0  8G 3G14G15G18G19G21G22G25
  23256021.0024    4850878.10749   3766101.38047                  23256020.7904
        45.0004         32.0004
  20390906.9584   -1402965.34449  -1088476.82748                  20390905.3584
        51.5004         45.5004
  20532222.8344    2202895.38949   1711247.52448                  20532221.9964
        52.2504         44.0004
  23421711.8264    5602949.68749   4342812.61247                  23421711.3884
        42.2504         30.0004
  22849253.4324   -2344337.38349  -1818161.43247                  22849251.1644
        44.7504         34.2504
  24179705.5914    9250618.73549   7182222.25447                  24179706.7294
        41.0004         26.7504
  21540540.2004    2200117.39449   1702919.44448                  21540536.9344
        51.5004         41.7504
  23387164.6614   -4746901.71849  -3683258.79647                  23387164.5504
        44.5004         29.7504
 04  7  6 18 29 40.0000000  0  8G 3G14G15G18G19G21G22G25
  23259968.9464    4871622.35849   3782265.72547                  23259968.7034
        46.0004         31.5004
  20391363.1244   -1400568.70149  -1086609.31848                  20391361.1364
        52.0004         45.2504
  20535055.5204    2217782.61149   1722847.94348                  20535054.3864
        52.0004         43.7504
  23425349.3394    5622062.95449   4357706.03247                  23425348.7544
        44.2504         30.7504
  22849324.7634   -2343963.66149  -1817870.24447                  22849322.2944
        46.0004         34.0004
  24186141.8514    9284440.68949   7208576.96947                  24186142.7264
        42.5004         26.2504
  21542166.3404    2208663.16149   1709578.47648                  21542162.8344
        52.0004         41.2504
  23380583.5424   -4781486.90849  -3710208.28547                  23380583.1274
        43.7504         29.5004
 04  7  6 18 29 50.0000000  0  8G 3G14G15G18G19G21G22G25
  23263920.0504    4892389.27449   3798447.71747                  23263920.2574
        45.5004         31.0004
  20391827.7184   -1398127.18849  -1084706.84148                  20391825.5544
        51.2504         45.0004
  20537898.4134    2232721.56649   1734488.68948                  20537897.4764
        52.5004         43.5004
  23428987.4834    5641182.16149   4372604.10147                  23428987.2574
        41.7504         30.7504
  22849405.9264   -2343534.77649  -1817536.04047                  22849403.8734
        46.0004         33.0004
  24192580.8834    9318278.55649   7234944.08046                  24192581.5624
        43.0004         24.7504
  21543794.5434    2217219.31649   1716245.60848                  21543791.4744
        50.7504         41.2504
  23374003.2774   -4816063.84149  -3737151.33947                  23374003.3724
        44.5004         29.5004
 04  7  6 18 30  0.0000000  0  8G 3G14G15G18G19G21G22G25
  23267876.3704    4913176.85549   3814645.82747                  23267876.8154
        45.7504         31.5004
  20392300.6194   -1395642.82349  -1082770.97248                  20392298.6274
        52.0004         45.0004
  20540750.5884    2247710.35649   1746168.25048                  20540749.8374
        52.2504         44.0004
  23432626.8844    5660305.44049   4387505.32347                  23432625.9454
        42.0004         30.2504
  22849497.2514   -2343052.60049  -1817160.33447                  22849495.5944
        45.2504         33.5004
  24199023.3074    9352130.46549   7261322.12947                  24199023.1534
        43.7504         27.0004
  21545424.7804    2225784.00749   1722919.37748                  21545421.4644
        52.0004         41.2504
  23367425.0634   -4850634.26249  -3764089.30747                  23367425.3504
        43.0004         30.2504
 04  7  6 18 30 10.0000000  0  8G 3G14G15G18G19G21G22G25
  23271835.7674    4933984.57849   3830859.62147                  23271836.2834
        46.5004         31.7504
  20392781.2144   -1393116.07549  -1080802.08148                  20392779.2884
        52.0004         44.5004
  20543612.2774    2262748.58449   1757886.35348                  20543611.5934
        52.0004         43.0004
  23436266.6254    5679432.36549   4402409.42547                  23436265.9014
        43.7504         29.5004
  22849599.6914   -2342517.57749  -1816743.44047                  22849597.3464
        46.7504         33.5004
  24205467.3544    9385996.02049   7287710.85647                  24205467.6064
        44.7504         25.7504
  21547055.9324    2234356.86549   1729599.52748                  21547052.8324
        52.0004         40.7504
  23360847.5104   -4885198.37449  -3791022.39247                  23360847.5674
        42.5004         29.7504
 04  7  6 18 30 20.0000000  0  8G 3G14G15G18G19G21G22G25
  23275799.1624    4954814.28949   3847090.55347                  23275799.9214
        46.5004         31.2504
  20393270.4924   -1390544.94849  -1078798.59948                  20393268.5754
        52.2504         45.0004
  20546483.7244    2277838.14349   1769644.43948                  20546483.1184
        51.7504         43.5004
  23439906.5874    5698564.81249   4417317.82947                  23439906.3394
        40.5004         30.0004
  22849712.4334   -2341927.75349  -1816283.84047                  22849710.1604
        45.7504         33.5004
  24211915.4214    9419877.00449   7314111.52947                  24211914.8774
        45.0004         27.0004
  21548688.9584    2242939.76349   1736287.50048                  21548685.6974
        51.5004         41.5004
  23354272.2584   -4919754.14849  -3817948.93747                  23354271.8924
        42.5004         30.5004
 04  7  6 18 30 30.0000000  0  8G 3G14G15G18G19G21G22G25
  23279766.5274    4975663.64449   3863336.78847                  23279767.2264
        45.5004         31.2504
  20393767.4844   -1387931.87649  -1076762.44848                  20393765.7824
        51.5004         45.0004
  20549364.7254    2292976.73249   1781440.73948                  20549363.6024
        51.7504         43.2504
  23443548.8734    5717700.59249   4432228.79047                  23443548.2864
        43.5004         29.7504
  22849833.8224   -2341285.53049  -1815783.42547                  22849832.1204
        45.7504         33.5004
  24218364.9434    9453771.10249   7340522.45447                  24218365.1184
        44.5004         28.2504
  21550323.9504    2251530.36049   1742981.46248                  21550320.6004
        51.7504         40.7504
  23347697.5594   -4954303.94649  -3844870.85047                  23347697.2564
        43.5004         31.0004
 04  7  6 18 30 40.0000000  0  8G 3G14G15G18G19G21G22G25
  23283737.9054    4996534.16849   3879599.50447                  23283738.9524
        46.2504         30.5004
  20394273.1454   -1385275.18449  -1074692.30448                  20394271.0294
        51.7504         45.5004
  20552254.5424    2308166.00149   1793276.52348                  20552253.7184
        52.0004         44.0004
  23447190.5614    5736841.40349   4447143.69047                  23447190.4624
        43.7504         29.5004
  22849966.7544   -2340589.27049  -1815240.89047                  22849964.7174
        45.7504         33.5004
  24224817.6454    9487679.93949   7366944.88447                  24224817.5284
        44.0004         26.7504
  21551960.3244    2260130.36249   1749682.75948                  21551957.1274
        51.7504         41.5004
  23341124.4904   -4988845.95749  -3871786.68547                  23341124.0434
        44.0004         30.7504
 04  7  6 18 30 50.0000000  0  8G 3G14G15G18G19G21G22G25
  23287713.8924    5017426.04049   3895878.87647                  23287714.8504
        45.7504         30.2504
  20394787.1834   -1382574.66449  -1072587.99948                  20394785.1284
        52.0004         45.2504
  20555154.9634    2323406.21049   1805151.99848                  20555154.1924
        51.7504         43.7504
  23450833.9384    5755987.48749   4462062.68947                  23450833.7534
        42.0004         29.7504
  22850109.4574   -2339838.68849  -1814656.02447                  22850107.0184
        47.5004         33.5004
  24231273.9004    9521603.70549   7393378.93947                  24231273.4054
        44.5004         25.7504
  21553598.8684    2268740.17849   1756391.69248                  21553595.6164
        51.5004         41.0004
  23334552.6414   -5023379.77249  -3898696.13747                  23334552.8104
        42.0004         30.5004
 04  7  6 18 31 30.0000000  4  2
2.000000                                                    COMMENT
END OF STATIC OBSERVATION                                   COMMENT
 04  7  6 18 31 30.0000000  0  7G 3G14G15G18G19G22G25
  23303653.7644    5101191.80349   3961150.83347                  23303655.3484
        46.0004         30.5004
  20396923.4344   -1371348.29849  -1063840.18648                  20396921.4464
        52.2504         45.7504
  20566849.7984    2384862.45649   1853039.95248                  20566848.5754
        51.7504         43.2504
  23465415.4954    5832612.52049   4521770.45047                  23465415.2324
        44.0004         30.5004
  22850781.6084   -2336307.16649  -1811904.23047                  22850779.7834
        46.5004         33.5004
  21560168.4164    2303263.96249   1783293.31948                  21560165.2724
        51.0004         41.0004
  23308280.0814   -5161443.25549  -4006278.00647                  23308279.9134
        43.2504         30.0004
 04  7  6 18 31 40.0000000  0  7G 3G14G15G18G19G22G25
  23307648.4394    5122183.53349   3977507.99547                  23307649.4434
        45.5004         30.5004
  20397477.7704   -1368434.72649  -1061569.87248                  20397475.8684
        52.0004         44.7504
  20569797.4204    2400351.47849   1865109.30848                  20569796.9154
        51.5004         43.0004
  23469063.4174    5851780.02849   4536706.13447                  23469062.2664
        42.5004         31.0004
  22850974.5024   -2335290.87949  -1811112.33047                  22850972.7794
        46.5004         33.0004
  21561815.0744    2311917.30749   1790036.17848                  21561812.3284
        51.0004         41.2504
  23301715.1894   -5195939.61149  -4033158.26347                  23301715.1544
        43.2504         30.7504
 04  7  6 18 31 50.0000000  0  7G 3G14G15G18G19G22G25
  23311647.2084    5143194.68249   3993880.29847                  23311647.5934
        46.2504         30.5004
  20398040.4184   -1365478.93449  -1059266.65948                  20398038.1114
        51.7504         45.0004
  20572753.9164    2415889.94749   1877217.20348                  20572753.4274
        51.5004         43.0004
  23472711.4634    5870951.61649   4551645.03647                  23472711.0464
        42.2504         30.0004
  22851178.1474   -2334221.77249  -1810279.26047                  22851176.4904
        47.2504         34.2504
  21563463.4844    2320579.11249   1796785.63448                  21563460.2334
        52.0004         42.0004
  23295152.2734   -5230428.37249  -4060032.61347                  23295152.1994
        43.5004         31.0004
 04  7  6 18 32  0.0000000  0  7G 3G14G15G18G19G22G25
  23315648.9334    5164225.80649   4010268.17747                  23315649.3964
        46.2504         31.0004
  20398610.6674   -1362480.33649  -1056930.08048                  20398608.9274
        51.7504         45.5004
  20575720.5314    2431478.45949   1889364.08848                  20575720.0664
        51.0004         43.0004
  23476360.7604    5890127.92549   4566587.58347                  23476360.2224
        42.5004         30.0004
  22851391.4304   -2333099.28349  -1809404.59847                  22851389.6204
        46.2504         33.5004
  21565113.6864    2329250.05149   1803542.19948                  21565110.0934
        51.0004         41.0004
  23288590.9054   -5264908.87649  -4086900.51347                  23288591.3674
        43.7504         31.5004
 04  7  6 18 32 10.0000000  0  7G 3G14G15G18G19G22G25
  23319655.6464    5185277.39149   4026672.00447                  23319655.3124
        46.7504         31.2504
  20399189.8094   -1359438.39849  -1054559.74948                  20399187.8364
        52.0004         45.2504
  20578696.7884    2447117.67849   1901550.48248                  20578696.1644
        51.0004         43.2504
  23480010.5844    5909309.55449   4581534.27847                  23480010.6464
        42.2504         30.0004
  22851616.2374   -2331922.75649  -1808487.83047                  22851613.5874
        46.7504         33.2504
  21566765.4104    2337930.76149   1810306.39048                  21566762.2144
        52.0004         40.7504
  23282031.2704   -5299380.36149  -4113761.39147                  23282031.4484
        44.0004         31.2504
 04  7  6 18 32 20.0000000  0  7G 3G14G15G18G19G22G25
  23323665.1834    5206348.29349   4043090.88047                  23323665.7364
        46.7504         31.7504
  20399777.0164   -1356354.15049  -1052156.43648                  20399774.9374
        52.0004         45.0004
  20581681.9034    2462806.52349   1913775.55148                  20581681.4854
        51.2504         43.0004
  23483661.6384    5928495.47749   4596484.33847                  23483661.1264
        43.2504         31.0004
  22851849.9554   -2330693.34049  -1807529.85747                  22851847.5174
        45.7504         33.5004
  21568419.0774    2346620.26949   1817077.42448                  21568415.4924
        51.0004         41.7504
  23275472.7084   -5333843.68449  -4140615.92747                  23275472.8354
        43.5004         31.2504
 04  7  6 18 32 30.0000000  0  7G 3G14G15G18G19G22G25
  23327677.3784    5227438.01949   4059524.39847                  23327678.8214
        45.5004         31.5004
  20400371.6404   -1353228.17949  -1049720.62148                  20400369.2514
        52.0004         44.5004
  20584676.6224    2478544.49849   1926038.90348                  20584676.0414
        50.7504         42.7504
  23487312.9734    5947685.29049   4611437.42647                  23487313.2014
        44.0004         30.5004
  22852093.1044   -2329411.47349  -1806531.00047                  22852091.7324
        46.5004         33.0004
  21570074.2124    2355318.13249   1823854.98248                  21570071.0714
        52.0004         40.7504
  23268916.2114   -5368299.15949  -4167464.32847                  23268916.4644
        43.5004         30.7504
 04  7  6 18 32 40.0000000  0  7G 3G14G15G18G19G22G25
  23331695.4794    5248547.65349   4075973.42547                  23331695.6424
        45.5004         30.5004
  20400974.2974   -1350059.34449  -1047251.39548                  20400972.4474
        51.7504         45.2504
  20587681.4244    2494332.90149   1938341.54048                  20587680.9754
        50.7504         43.0004
  23490965.8854    5966880.12649   4626394.45047                  23490965.6194
        42.0004         31.2504
  22852348.0834   -2328075.98449  -1805490.36747                  22852345.7924
        46.2504         33.0004
  21571731.1514    2364025.55549   1830639.97448                  21571728.2144
        50.7504         41.0004
  23262360.8124   -5402745.56749  -4194305.66647                  23262361.1714
        43.2504         31.5004
 04  7  6 18 32 50.0000000  0  7G 3G14G15G18G19G22G25
  23335716.2844    5269676.64749   4092437.55747                  23335716.2384
        46.0004         32.0004
  20401585.9124   -1346848.02749  -1044749.06648                  20401583.4924
        52.0004         45.2504
  20590695.1464    2510171.19649   1950683.07648                  20590694.8004
        51.5004         43.2504
  23494620.1644    5986079.73349   4641355.14547                  23494619.5914
        43.5004         30.7504
  22852612.0474   -2326687.28949  -1804408.28447                  22852609.5774
        46.0004         34.0004
  21573389.6614    2372742.11349   1837432.10248                  21573386.8364
        51.2504         41.0004
  23255807.6924   -5437183.16649  -4221140.11947                  23255808.1194
        45.0004         31.0004
 04  7  6 18 33  0.0000000  0  7G 3G14G15G18G19G22G25
  23339741.1724    5290826.39549   4108917.87447                  23339741.9894
        46.2504         32.0004
  20402205.3414   -1343592.71049  -1042212.46348                  20402203.1324
        52.0004         45.5004
  20593718.9674    2526060.90249   1963064.64748                  20593718.2514
        51.2504         43.5004
  23498274.1934    6005285.63649   4656320.76247                  23498274.1514
        44.0004         31.0004
  22852886.3964   -2325243.91249  -1803283.58347                  22852883.7834
        45.5004         33.2504
  21575050.6984    2381469.29749   1844232.48448                  21575047.1544
        51.0004         41.5004
  23249257.0074   -5471610.32449  -4247966.49847                  23249256.8904
        44.0004         31.5004
 04  7  6 18 33 10.0000000  0  7G 3G14G15G18G19G22G25
  23343768.7934    5311995.24949   4125413.06247                  23343769.2284
        45.0004         31.5004
  20402832.8204   -1340295.06649  -1039642.86348                  20402830.5614
        52.0004         45.0004
  20596752.2224    2542000.36949   1975485.01448                  20596751.3224
        51.5004         42.7504
  23501930.1984    6024496.21449   4671290.03547                  23501930.1924
        44.5004         31.2504
  22853170.9464   -2323747.49749  -1802117.54347                  22853168.9864
        45.5004         33.5004
  21576712.8284    2390205.56149   1851039.96648                  21576709.8114
        51.0004         41.2504
  23242707.4734   -5506028.60149  -4274785.92047                  23242707.4384
        43.7504         30.7504
 04  7  6 18 33 20.0000000  0  7G 3G14G15G18G19G22G25
  23347800.6204    5333182.97849   4141922.97247                  23347801.5894
        44.7504         31.0004
  20403467.9794   -1336955.33549  -1037040.48248                  20403466.3144
        51.2504         45.0004
  20599794.5314    2557989.39349   1987943.98248                  20599794.1674
        51.2504         42.2504
  23505586.8244    6043711.22649   4686262.75147                  23505586.1914
        44.5004         31.0004
  22853466.6554   -2322198.23849  -1800910.35847                  22853464.2014
        46.0004         33.0004
  21578376.9564    2398950.73149   1857854.37448                  21578374.2804
        52.0004         40.5004
  23236158.8234   -5540438.03449  -4301598.45647                  23236159.6114
        44.0004         30.5004
 04  7  6 18 33 30.0000000  0  7G 3G14G15G18G19G22G25
  23351836.3544    5354389.72249   4158447.68847                  23351837.6404
        45.5004         31.5004
  20404111.4874   -1333573.34749  -1034405.16748                  20404109.8404
        51.2504         45.5004
  20602846.9284    2574028.21049   2000441.76148                  20602846.0304
        52.0004         42.5004
  23509243.6144    6062931.05649   4701239.24547                  23509243.7724
        43.7504         30.2504
  22853771.2704   -2320595.91549  -1799661.79747                  22853769.1384
        45.2504         33.0004
  21580042.8774    2407705.11249   1864675.96648                  21580040.1054
        51.0004         41.2504
  23229612.9574   -5574838.23949  -4328403.78247                  23229613.4684
        44.2504         30.7504
 04  7  6 18 33 40.0000000  0  7G 3G14G15G18G19G22G25
  23355875.3304    5375615.31249   4174987.06047                  23355876.5344
        44.5004         31.2504
  20404762.9874   -1330149.22949  -1031737.03448                  20404761.6734
        51.7504         44.0004
  20605908.8834    2590116.84249   2012978.33748                  20605907.8044
        51.5004         42.2504
  23512902.8734    6082155.59149   4716219.36547                  23512902.4154
        44.0004         30.7504
  22854086.3284   -2318940.61049  -1798371.96247                  22854084.0904
        46.0004         32.7504
  21581710.7084    2416468.64649   1871504.68048                  21581707.6434
        51.7504         40.7504
  23223068.5174   -5609229.11249  -4355201.88247                  23223068.8094
        43.0004         30.7504
 04  7  6 18 33 50.0000000  0  7G 3G14G15G18G19G22G25
  23359918.4804    5396860.33149   4191541.61947                  23359919.4734
        43.7504         31.5004
  20405422.5444   -1326682.28749  -1029035.51848                  20405421.3084
        52.0004         44.7504
  20608979.5734    2606255.93649   2025554.24348                  20608979.1404
        52.0004         43.0004
  23516562.3204    6101385.56649   4731203.74047                  23516561.8514
        43.5004         30.2504
  22854411.5754   -2317231.70649  -1797040.34847                  22854408.8954
        46.0004         33.0004
  21583380.1984    2425242.05149   1878341.09648                  21583377.0734
        51.5004         41.2504
  23216526.3734   -5643609.92149  -4381992.09147                  23216526.9164
        43.5004         31.7504
 04  7  6 18 34  0.0000000  0  7G 3G14G15G18G19G22G25
  23363965.1004    5418126.14549   4208112.35447                  23363965.8984
        45.2504         32.0004
  20406091.4544   -1323171.11949  -1026299.53348                  20406089.3074
        51.5004         45.5004
  20612060.5484    2622446.86449   2038170.54548                  20612059.9354
        51.2504         42.5004
  23520222.4264    6120622.47049   4746193.51647                  23520222.3884
        45.0004         30.0004
  22854746.6954   -2315467.83649  -1795665.93147                  22854744.1364
        46.2504         33.2504
  21585052.0424    2434026.79049   1885186.35248                  21585048.8394
        51.7504         41.0004
  23209986.2614   -5677979.07049  -4408773.22347                  23209986.6394
        43.7504         31.2504
 04  7  6 18 34 10.0000000  0  7G 3G14G15G18G19G22G25
  23368014.7324    5439410.83449   4224697.80047                  23368016.1184
        45.0004         30.0004
  20406767.5934   -1319617.58349  -1023530.55148                  20406765.4554
        51.2504         45.0004
  20615151.5294    2638687.85249   2050825.85348                  20615150.5994
        50.2504         42.7504
  23523884.1294    6139864.47749   4761187.28647                  23523883.4844
        43.5004         31.2504
  22855093.2164   -2313650.69849  -1794249.97247                  22855090.1884
        47.0004         34.0004
  21586725.3304    2442821.13449   1892039.08448                  21586721.9674
        50.0004         41.5004
  23203447.8424   -5712338.17749  -4435546.54747                  23203448.4584
        44.0004         31.2504
 04  7  6 18 34 20.0000000  0  7G 3G14G15G18G19G22G25
  23372068.1854    5460712.10149   4241296.19747                  23372069.2174
        44.2504         29.7504
  20407451.1204   -1316024.01449  -1020730.36148                  20407449.4714
        51.0004         45.0004
  20618250.7134    2654976.59849   2063518.39048                  20618250.3254
        51.5004         42.7504
  23527546.6934    6159109.47549   4776183.38747                  23527545.8054
        45.7504         31.7504
  22855448.1294   -2311782.62449  -1792794.32247                  22855445.7804
        46.2504         34.5004
  21588400.1594    2451622.76349   1898897.50048                  21588397.2534
        51.7504         41.0004
  23196911.4044   -5746689.45949  -4462313.76247                  23196911.1424
        43.5004         30.5004
 04  7  6 18 34 30.0000000  0  7G 3G14G15G18G19G22G25
  23376126.4404    5482034.77149   4257911.23047                  23376126.7914
        45.0004         30.2504
  20408143.7874   -1312385.42549  -1017895.09848                  20408141.5124
        51.2504         44.7504
  20621360.6804    2671318.07149   2076251.98748                  20621359.6874
        52.0004         42.0004
  23531210.4224    6178362.39249   4791185.62547                  23531209.9174
        44.5004         30.7504
  22855814.4414   -2309858.69349  -1791295.16147                  22855812.2784
        46.7504         33.5004
  21590077.4914    2460436.68349   1905765.48848                  21590074.3114
        51.2504         40.5004
  23190376.3294   -5781027.82949  -4489070.90747                  23190376.4814
        43.5004         30.2504
 04  7  6 18 34 40.0000000  0  7G 3G14G15G18G19G22G25
  23380187.1754    5503375.29149   4274540.18947                  23380187.9514
        45.0004         31.0004
  20408843.6384   -1308705.46249  -1015027.59948                  20408841.3874
        52.0004         44.7504
  20624479.6954    2687708.72449   2089023.92148                  20624478.5844
        52.0004         42.5004
  23534874.2514    6197619.68649   4806191.28647                  23534874.1474
        44.7504         30.0004
  22856190.7604   -2307882.42249  -1789755.20547                  22856188.2734
        46.7504         33.5004
  21591756.3164    2469259.50449   1912640.41148                  21591752.8804
        51.5004         41.5004
  23183844.0224   -5815356.70049  -4515820.67447                  23183844.2004
        44.5004         31.0004
 04  7  6 18 34 50.0000000  0  7G 3G14G15G18G19G22G25
  23384252.4164    5524736.94149   4291185.63047                  23384253.0124
        45.7504         31.0004
  20409552.6174   -1304980.64549  -1012125.14748                  20409550.8674
        50.7504         44.5004
  20627608.4624    2704151.96049   2101836.82348                  20627607.7294
        52.0004         42.5004
  23538540.6334    6216884.84449   4821203.09047                  23538540.0654
        44.0004         29.5004
  22856577.7884   -2305850.40449  -1788171.82047                  22856575.5964
        46.5004         33.5004
  21593437.5754    2478094.59149   1919524.88548                  21593434.6074
        51.5004         41.0004
  23177314.2104   -5849672.40549  -4542560.13847                  23177314.4784
        45.7504         31.2504
 04  7  6 18 35  0.0000000  0  7G 3G14G15G18G19G22G25
  23388320.9884    5546116.96749   4307845.36147                  23388321.5414
        46.7504         32.0004
  20410269.4264   -1301213.65449  -1009189.83148                  20410267.7944
        51.0004         44.5004
  20630747.1094    2720645.12249   2114688.63548                  20630746.5494
        51.7504         42.7504
  23542207.5834    6236155.24149   4836218.96647                  23542206.8874
        45.7504         29.5004
  22856973.9574   -2303765.29649  -1786547.06147                  22856971.9724
        46.7504         33.5004
  21595120.5944    2486939.34349   1926416.89648                  21595117.7644
        51.5004         41.0004
  23170785.9014   -5883977.50749  -4569291.39647                  23170786.5304
        45.5004         31.2504
 04  7  6 18 35 10.0000000  0  7G 3G14G15G18G19G22G25
  23392392.8714    5567514.63449   4324518.86647                  23392393.7354
        46.5004         32.2504
  20410994.0764   -1297405.21649  -1006222.20848                  20410992.5144
        51.5004         44.2504
  20633895.0964    2737187.58549   2127578.85448                  20633894.6104
        52.0004         42.5004
  23545875.6094    6255430.25749   4851238.44647                  23545875.6734
        45.0004         29.0004
  22857380.0834   -2301627.79249  -1784881.47147                  22857378.7674
        46.5004         33.5004
  21596805.5104    2495793.13149   1933315.94248                  21596803.2804
        51.2504         41.2504
  23164259.8984   -5918272.66349  -4596014.88247                  23164260.0844
        44.5004         31.0004
 04  7  6 18 35 20.0000000  0  7G 3G14G15G18G19G22G25
  23396468.7704    5588932.38049   4341207.98947                  23396469.5294
        47.2504         31.5004
  20411727.3264   -1293552.84249  -1003220.36648                  20411725.8324
        52.0004         45.0004
  20637052.8514    2753781.80149   2140509.41248                  20637052.3484
        52.2504         43.0004
  23549545.1014    6274712.33649   4866263.43547                  23549544.2124
        44.5004         29.5004
  22857798.1734   -2299435.40649  -1783173.13447                  22857795.7034
        47.0004         33.7504
  21598492.5614    2504658.47049   1940223.99048                  21598489.6914
        51.5004         41.2504
  23157735.6244   -5952555.14449  -4622728.46147                  23157736.6024
        44.2504         31.0004
 04  7  6 18 35 30.0000000  0  7G 3G14G15G18G19G22G25
  23400548.2294    5610367.94949   4357911.00347                  23400548.9564
        46.7504         32.0004
  20412468.7354   -1289658.75749  -1000186.01848                  20412466.6624
        52.0004         45.0004
  20640220.2054    2770425.60449   2153478.59548                  20640219.2154
        52.5004         43.2504
  23553215.4524    6293999.44749   4881292.32847                  23553214.8834
        43.5004         29.2504
  22858225.3914   -2297190.36449  -1781423.74047                  22858223.2634
        47.7504         34.0004
  21600181.5304    2513533.23749   1947139.39148                  21600178.7374
        51.2504         41.7504
  23151214.0454   -5986827.02149  -4649433.80547                  23151214.4664
        44.5004         31.7504
 04  7  6 18 35 40.0000000  0  7G 3G14G15G18G19G22G25
  23404630.7194    5631823.99149   4374629.97647                  23404631.4624
        47.0004         32.2504
  20413217.8474   -1285720.24749   -997117.05448                  20413215.6094
        51.5004         44.5004
  20643397.6274    2787121.76949   2166488.58748                  20643396.4084
        52.2504         42.7504
  23556887.0534    6313294.31849   4896327.25847                  23556886.4144
        44.7504         29.0004
  22858663.2924   -2294889.90349  -1779631.18547                  22858660.6854
        46.5004         33.5004
  21601872.5254    2522420.16549   1954064.25948                  21601869.2724
        51.5004         41.7504
  23144694.9084   -6021085.36849  -4676128.58547                  23144695.1364
        44.7504         30.2504
 04  7  6 18 35 50.0000000  0  7G 3G14G15G18G19G22G25
  23408717.0524    5653296.98449   4391362.15447                  23408717.3444
        47.2504         32.2504
  20413975.0814   -1281740.84749   -994016.22848                  20413973.3174
        51.2504         44.5004
  20646584.1574    2803866.77949   2179536.64048                  20646583.1324
        52.5004         43.0004
  23560559.0994    6332593.53749   4911365.61747                  23560558.2874
        44.5004         28.7504
  22859110.5394   -2292537.49449  -1777798.13747                  22859108.2574
        46.7504         33.5004
  21603565.6474    2531315.86049   1960995.96548                  21603562.3884
        51.5004         41.2504
  23138178.0154   -6055333.60749  -4702815.51647                  23138178.3294
        45.0004         30.5004
 04  7  6 18 36  0.0000000  0  7G 3G14G15G18G19G22G25
  23412806.6154    5674788.50249   4408108.81147                  23412807.2874
        47.2504         32.0004
  20414740.3944   -1277718.94349   -990882.27948                  20414738.2664
        51.0004         44.0004
  20649780.2994    2820662.26449   2192624.03448                  20649778.7314
        52.2504         43.0004
  23564232.9524    6351898.78149   4926408.64647                  23564232.1054
        45.2504         29.5004
  22859568.3894   -2290131.50249  -1775923.33247                  22859566.5554
        46.5004         33.5004
  21605260.1944    2540221.98249   1967935.80348                  21605257.2314
        51.5004         41.2504
  23131663.3614   -6089569.92149  -4729493.15747                  23131663.2564
        45.0004         31.0004
 04  7  6 18 36 10.0000000  0  7G 3G14G15G18G19G22G25
  23416900.2814    5696300.50949   4424871.40447                  23416901.1104
        47.2504         33.0004
  20415514.5504   -1273652.45949   -987713.59048                  20415512.1814
        51.0004         44.5004
  20652986.1094    2837510.25149   2205752.33048                  20652984.8834
        52.0004         42.5004
  23567908.9984    6371212.14549   4941458.02247                  23567907.5664
        43.7504         27.5004
  22860036.8124   -2287669.92749  -1774005.22247                  22860035.2634
        45.7504         33.5004
  21606957.3234    2549140.71049   1974885.46048                  21606954.2584
        51.5004         41.0004
  23125150.4234   -6123792.12849  -4756159.78347                  23125150.9154
        45.0004         31.5004
 04  7  6 18 36 20.0000000  0  7G 3G14G15G18G19G22G25
  23420997.0374    5717828.39749   4441646.34247                  23420998.1314
        47.0004         33.0004
  20416295.7464   -1269546.05349   -984513.79348                  20416293.5984
        51.2504         44.7504
  20656201.6954    2854406.17349   2218917.97248                  20656199.9924
        52.0004         42.2504
  23571583.9004    6390529.10849   4956510.17547                  23571583.1084
        41.5004         28.2504
  22860514.8224   -2285157.32849  -1772047.36947                  22860513.2914
        47.0004         33.0004
  21608655.8644    2558067.39049   1981841.30448                  21608652.7004
        50.7504         40.7504
  23118640.0314   -6158004.64049  -4782818.86447                  23118640.3264
        45.2504         30.5004
 04  7  6 18 36 30.0000000  0  7G 3G14G15G18G19G22G25
  23425096.1894    5739373.80049   4458434.94547                  23425097.7964
        46.0004         31.7504
  20417085.2614   -1265397.97549   -981281.52548                  20417083.1654
        51.0004         45.0004
  20659425.9034    2871351.82449   2232122.36948                  20659424.7694
        52.5004         43.0004
  23575261.3304    6409851.45149   4971566.53147                  23575260.0634
        44.5004         28.5004
  22861003.1254   -2282591.99649  -1770048.41247                  22861001.4614
        45.5004         33.0004
  21610356.2094    2567003.90849   1988804.82448                  21610353.4434
        51.5004         41.2504
  23112131.4894   -6192205.64849  -4809468.98047                  23112132.3304
        45.2504         31.7504
 04  7  6 18 36 40.0000000  0  7G 3G14G15G18G19G22G25
  23429199.0444    5760933.67749   4475234.82847                  23429200.4434
        47.0004         32.7504
  20417881.8884   -1261211.23249   -978019.12648                  20417879.8774
        50.7504         44.7504
  20662659.9134    2888344.27349   2245363.22748                  20662658.3134
        51.2504         43.0004
  23578938.3934    6429176.23949   4986624.77147                  23578937.6874
        44.2504         28.5004
  22861500.6664   -2279976.89849  -1768010.67947                  22861499.0444
        46.0004         32.5004
  21612058.3824    2575947.28849   1995773.69048                  21612055.5254
        49.7504         41.2504
  23105625.6244   -6226397.90049  -4836112.27347                  23105626.0364
        45.2504         31.7504
 04  7  6 18 36 50.0000000  0  7G 3G14G15G18G19G22G25
  23433305.2884    5782510.63649   4492048.02947                  23433306.6184
        46.7504         31.7504
  20418686.4664   -1256983.18649   -974724.54948                  20418684.8204
        51.2504         44.7504
  20665902.6204    2905386.14749   2258642.61248                  20665901.0814
        53.0004         43.0004
  23582616.8254    6448506.24649   5001687.14447                  23582616.2704
        41.2504         28.0004
  22862007.7924   -2277309.43649  -1765932.13847                  22862006.2604
        46.7504         32.5004
  21613762.0594    2584900.21349   2002749.99548                  21613759.1374
        50.7504         40.7504
  23099120.9934   -6260578.62849  -4862746.59247                  23099121.1274
        46.0004         32.0004
 04  7  6 18 37  0.0000000  0  7G 3G14G15G18G19G22G25
  23437414.5904    5804103.45549   4508873.56847                  23437414.9064
        47.5004         32.2504
  20419498.7854   -1252714.97049   -971398.67448                  20419496.6974
        51.7504         44.7504
  20669154.6334    2922476.23949   2271959.55348                  20669153.6424
        53.0004         43.0004
  23586296.2264    6467840.31749   5016752.59147                  23586295.2574
        44.0004         28.2504
  22862524.8654   -2274590.64549  -1763813.61947                  22862523.5284
        46.2504         32.2504
  21615467.3694    2593861.64649   2009732.91648                  21615464.4524
        50.5004         41.2504
  23092618.8154   -6294748.80949  -4889372.68647                  23092618.7924
        46.2504         31.0004
 04  7  6 18 37 10.0000000  0  7G 3G14G15G18G19G22G25
  23441527.3974    5825715.50249   4525714.11147                  23441527.4764
        48.0004         31.5004
  20420318.6414   -1248403.13449   -968038.80148                  20420317.0994
        51.2504         44.5004
  20672416.6314    2939618.04049   2285316.79548                  20672415.4834
        52.7504         42.7504
  23589976.0344    6487182.03149   5031824.03547                  23589975.5094
        43.5004         28.0004
  22863053.1574   -2271817.12149  -1761652.45347                  22863051.4304
        47.2504         32.2504
  21617175.2614    2602835.10249   2016725.21248                  21617171.8024
        51.0004         41.0004
  23086118.8664   -6328904.82449  -4915987.76347                  23086118.4884
        44.5004         31.0004
 04  7  6 18 37 20.0000000  0  7G 3G14G15G18G19G22G25
  23445643.7534    5847347.47349   4542570.17947                  23445644.1884
        47.7504         30.0004
  20421148.3594   -1244046.97549   -964644.40148                  20421146.4774
        51.0004         45.0004
  20675688.7804    2956812.33849   2298714.93948                  20675687.5634
        52.0004         42.5004
  23593659.2604    6506532.06649   5046901.96347                  23593657.4034
        43.0004         28.2504
  22863591.7124   -2268988.20649  -1759448.08647                  22863589.9914
        46.5004         32.0004
  21618885.1484    2611821.21049   2023727.37948                  21618882.0664
        50.7504         41.7504
  23079621.8944   -6363045.90849  -4942591.17247                  23079621.8004
        45.0004         31.0004
 04  7  6 18 37 30.0000000  0  7G 3G14G15G18G19G22G25
  23449763.6974    5868996.07549   4559439.20347                  23449763.3914
        47.5004         30.0004
  20421985.1464   -1239649.81049   -961218.04148                  20421983.0644
        51.2504         44.7504
  20678970.1094    2974055.87249   2312151.46048                  20678968.9084
        53.0004         42.2504
  23597342.0574    6525887.20049   5061983.87347                  23597340.7694
        43.0004         28.0004
  22864139.7314   -2266107.06849  -1757203.05747                  22864137.9544
        46.2504         32.7504
  21620597.0654    2620816.94049   2030737.02348                  21620594.1304
        51.2504         41.0004
  23073127.0594   -6397175.05449  -4969185.29747                  23073127.4794
        43.5004         31.2504
 04  7  6 18 37 40.0000000  0  7G 3G14G15G18G19G22G25
  23453885.4354    5890659.93449   4576320.10647                  23453886.0794
        47.5004         30.2504
  20422829.6264   -1235212.84049   -957760.66248                  20422827.2924
        51.5004         45.0004
  20682260.6184    2991347.39849   2325625.37448                  20682258.9844
        53.0004         43.0004
  23601025.8814    6545246.34649   5077068.92547                  23601024.5854
        44.0004         29.0004
  22864698.0644   -2263174.98749  -1754918.32347                  22864696.0424
        46.0004         33.5004
  21622310.5224    2629820.99949   2037753.16448                  21622307.2004
        52.0004         41.7504
  23066634.6534   -6431293.38149  -4995770.96647                  23066635.6274
        43.7504         31.5004
 04  7  6 18 37 50.0000000  0  7G 3G14G15G18G19G22G25
  23458011.3134    5912341.17349   4593214.57247                  23458012.0454
        47.2504         30.0004
  20423681.2784   -1230733.98549   -954270.65248                  20423679.2894
        51.0004         45.2504
  20685560.4214    3008689.04949   2339138.32848                  20685559.1244
        53.0004         43.0004
  23604711.3194    6564611.59649   5092158.69547                  23604709.6344
        44.0004         28.2504
  22865265.9434   -2260189.79049  -1752592.21247                  22865264.0314
        45.0004         33.2504
  21624025.9074    2638835.64849   2044777.55948                  21624022.7644
        51.2504         41.2504
  23060144.6894   -6465398.66949  -5022346.49047                  23060144.4534
        45.0004         31.0004
 04  7  6 18 38  0.0000000  0  7G 3G14G15G18G19G22G25
  23462140.6244    5934040.10149   4610122.82047                  23462141.4444
        47.2504         31.0004
  20424541.9794   -1226212.81849   -950747.65748                  20424539.9294
        52.0004         44.7504
  20688870.2554    3026081.22749   2352690.67248                  20688869.0004
        53.0004         42.2504
  23608397.2064    6583983.46949   5107253.66647                  23608396.5804
        41.5004         27.7504
  22865844.1214   -2257151.14649  -1750224.44047                  22865842.5754
        46.0004         32.7504
  21625743.4504    2647861.29149   2051810.52648                  21625740.4054
        50.5004         41.2504
  23053657.6944   -6499490.28149  -5048911.35247                  23053657.3434
        45.5004         29.5004
 04  7  6 18 38 10.0000000  0  7G 3G14G15G18G19G22G25
  23466273.2424    5955755.57349   4627043.94047                  23466273.4334
        47.5004         30.5004
  20425409.8984   -1221650.51249   -947192.61548                  20425408.2454
        51.5004         45.0004
  20692189.3954    3043522.85949   2366281.55248                  20692188.3984
        53.0004         43.0004
  23612085.1604    6603360.84649   5122352.89347                  23612083.7424
        44.0004         27.0004
  22866432.7054   -2254060.13549  -1747815.87247                  22866430.8194
        45.5004         33.0004
  21627462.6024    2656896.94949   2058851.29348                  21627459.7524
        52.0004         41.0004
  23047171.5484   -6533569.20349  -5075466.33047                  23047172.0864
        45.0004         30.2504
 04  7  6 18 38 20.0000000  0  7G 3G14G15G18G19G22G25
  23470408.4314    5977487.77249   4643978.11547                  23470408.9104
        48.0004         29.5004
  20426286.2204   -1217046.72449   -943605.26148                  20426284.1534
        51.5004         44.7504
  20695517.7494    3061014.28749   2379911.23148                  20695516.7884
        51.5004         42.5004
  23615773.5534    6622744.16449   5137456.74847                  23615772.0884
        44.5004         26.2504
  22867030.1974   -2250916.50449  -1745366.29847                  22867028.8794
        46.5004         32.2504
  21629184.0604    2665942.90849   2065900.08748                  21629181.0014
        51.2504         41.5004
  23040689.8584   -6567634.96649  -5102011.06347                  23040690.2424
        45.7504         30.5004
 04  7  6 18 38 30.0000000  0  7G 3G14G15G18G19G22G25
  23474547.4174    5999236.64649   4660925.28847                  23474548.1324
        47.5004         29.5004
  20427170.1094   -1212401.55849   -939985.64548                  20427168.2724
        52.0004         44.7504
  20698855.6814    3078555.47049   2393579.67848                  20698854.2694
        52.2504         43.2504
  23619462.8274    6642133.44149   5152565.24547                  23619461.9814
        44.2504         27.2504
  22867639.1424   -2247720.24049  -1742875.70347                  22867637.4244
        46.5004         33.7504
  21630907.7524    2674999.24449   2072956.96048                  21630904.8624
        51.5004         41.2504
  23034209.6634   -6601687.50849  -5128545.49247                  23034210.2794
        46.0004         31.2504
 04  7  6 18 38 40.0000000  0  7G 3G14G15G18G19G22G25
  23478689.1974    6021002.08249   4677885.34647                  23478689.2904
        47.0004         30.0004
  20428061.8824   -1207715.04249   -936333.82948                  20428060.3404
        51.7504         44.7504
  20702203.1944    3096146.37849   2407286.86448                  20702201.7394
        52.2504         42.7504
  23623153.8154    6661528.65249   5167678.39647                  23623152.8544
        43.5004         26.5004
  22868257.3864   -2244471.40049  -1740344.14447                  22868255.4644
        47.0004         34.5004
  21632633.0554    2684065.96449   2080021.93748                  21632629.7934
        50.7504         40.7504
  23027732.4284   -6635726.60849  -5155069.42847                  23027732.6274
        44.7504         30.0004
 04  7  6 18 38 50.0000000  0  7G 3G14G15G18G19G22G25
  23482833.4304    6042784.37349   4694858.54947                  23482834.1414
        47.2504         30.7504
  20428961.5714   -1202986.91249   -932649.56448                  20428959.4374
        51.7504         45.0004
  20705560.0314    3113787.33749   2421033.06648                  20705559.2674
        52.2504         42.2504
  23626845.8514    6680930.12449   5182796.41247                  23626844.2234
        42.7504         27.5004
  22868885.5024   -2241169.65849  -1737771.36947                  22868883.4834
        47.0004         33.7504
  21634360.1064    2693143.44149   2087095.29248                  21634356.6164
        51.0004         41.0004
  23021257.3084   -6669751.86549  -5181582.61747                  23021257.4794
        45.5004         31.2504
 04  7  6 18 39  0.0000000  0  7G 3G14G15G18G19G22G25
  23486982.4734    6064583.12049   4711844.56747                  23486983.4054
        47.5004         31.0004
  20429869.0964   -1198217.50449   -928933.14848                  20429866.9324
        52.0004         45.0004
  20708926.3574    3131478.03449   2434818.01748                  20708925.3124
        52.0004         42.2504
  23630538.9374    6700337.70849   5197919.19947                  23630537.7834
        43.7504         27.0004
  22869524.0784   -2237815.36949  -1735157.64147                  22869521.4454
        47.0004         33.0004
  21636089.6154    2702231.34349   2094176.76348                  21636085.8394
        51.5004         41.0004
  23014784.5474   -6703763.50149  -5208085.16047                  23014785.3824
        45.5004         31.5004
 04  7  6 18 39 10.0000000  0  7G 3G14G15G18G19G22G25
  23491132.8694    6086397.99249   4728843.17147                  23491134.5004
        47.2504         29.5004
  20430784.8764   -1193407.07349   -925184.75348                  20430782.7904
        52.0004         45.0004
  20712302.1774    3149218.21949   2448641.53348                  20712301.4044
        52.0004         42.5004
  23634233.3694    6719751.11649   5213046.50547                  23634232.0864
        44.0004         27.7504
  22870172.0964   -2234408.73949  -1732503.13447                  22870169.6514
        46.2504         32.7504
  21637821.0134    2711329.50149   2101266.23848                  21637817.7414
        51.5004         40.5004
  23008315.2264   -6737761.55749  -5234577.13347                  23008316.1914
        45.2504         31.5004
 04  7  6 18 39 20.0000000  0  7G 3G14G15G18G19G22G25
  23495287.5294    6108228.93649   4745854.28747                  23495288.4114
        47.0004         30.0004
  20431708.0294   -1188555.66949   -921404.44148                  20431705.8424
        51.5004         44.7504
  20715687.9944    3167007.84049   2462503.56348                  20715687.4784
        51.7504         43.0004
  23637928.8834    6739170.35449   5228178.35047                  23637927.3874
        42.2504         27.7504
  22870830.6924   -2230949.78549  -1729807.84847                  22870828.2654
        46.0004         33.2504
  21639553.8924    2720437.95549   2108363.71948                  21639550.8534
        50.0004         40.5004
  23001849.0154   -6771746.01549  -5261058.51047                  23001849.3884
        45.5004         31.2504
 04  7  6 18 39 30.0000000  0  7G 3G14G15G18G19G22G25
  23499445.5434    6130077.59749   4762879.19847                  23499446.3074
        47.0004         30.0004
  20432639.1414   -1183661.56549   -917590.85548                  20432637.5284
        52.0004         44.7504
  20719082.3954    3184848.69049   2476405.51948                  20719081.8264
        52.2504         42.2504
  23641625.4094    6758597.21449   5243316.15247                  23641624.0594
        44.0004         26.7504
  22871498.9414   -2227436.79349  -1727070.45447                  22871496.9624
        46.2504         33.0004
  21641289.4694    2729558.53449   2115470.67048                  21641286.5044
        51.0004         40.5004
  22995384.8654   -6805714.88249  -5287527.71247                  22995385.5194
        45.7504         31.5004
 04  7  6 18 39 40.0000000  0  7G 3G14G15G18G19G22G25
  23503605.3764    6151942.25549   4779916.58547                  23503606.6674
        46.5004         29.5004
  20433578.1104   -1178726.47849   -913745.33048                  20433576.6724
        51.2504         44.7504
  20722486.8204    3202739.05549   2490346.05048                  20722486.0154
        51.7504         42.5004
  23645323.7424    6778029.97149   5258458.52247                  23645322.6034
        44.5004         28.0004
  22872177.1354   -2223871.50249  -1724292.31947                  22872175.6304
        45.7504         33.7504
  21643027.5444    2738689.52349   2122585.71948                  21643024.3074
        51.5004         40.7504
  22988923.1204   -6839669.77849  -5313986.04747                  22988923.6244
        45.5004         31.5004
 04  7  6 18 39 50.0000000  0  7G 3G14G15G18G19G22G25
  23507769.9814    6173822.49549   4796966.08747                  23507770.7814
        45.5004         29.2504
  20434525.0004   -1173750.64249   -909868.05948                  20434523.4364
        52.0004         44.7504
  20725900.7814    3220678.73249   2504325.00448                  20725900.1774
        51.7504         42.7504
  23649022.3854    6797468.61349   5273605.49647                  23649021.2564
        43.5004         28.0004
  22872866.1564   -2220254.12649  -1721473.59947                  22872863.8184
        46.5004         32.7504
  21644766.9634    2747830.82949   2129708.80548                  21644763.7634
        51.2504         40.5004
  22982464.0114   -6873610.75549  -5340433.55747                  22982464.6304
        45.0004         31.0004
 04  7  6 18 40  0.0000000  0  7G 3G14G15G18G19G22G25
  23511936.1104    6195717.41249   4814027.03847                  23511936.3024
        46.2504         28.5004
  20435479.2674   -1168734.88549   -905959.67648                  20435478.0074
        51.5004         45.0004
  20729323.6304    3238666.87049   2518341.73748                  20729323.1904
        52.0004         42.5004
  23652722.7824    6816912.36649   5288756.45547                  23652721.4514
        43.2504         27.0004
  22873564.4964   -2216585.47549  -1718614.90747                  22873561.5314
        47.0004         32.2504
  21646508.3844    2756981.58449   2136839.25648                  21646504.9624
        51.0004         40.7504
  22976007.9854   -6907538.49149  -5366870.73247                  22976007.8864
        44.0004         31.5004
 04  7  6 18 40 10.0000000  0  7G 3G14G15G18G19G22G25
  23516104.9614    6217626.78249   4831099.27747                  23516105.8774
        45.2504         30.0004
  20436441.2924   -1163679.47349   -902020.40548                  20436439.7554
        52.0004         45.0004
  20732756.0854    3256703.23549   2532396.03948                  20732755.4564
        52.7504         42.7504
  23656423.0874    6836360.94149   5303911.15647                  23656422.8604
        44.0004         27.2504
  22874271.5814   -2212865.86249  -1715716.50647                  22874269.8104
        47.2504         32.7504
  21648251.5804    2766141.64549   2143976.96048                  21648248.4854
        51.2504         41.0004
  22969554.3834   -6941453.03649  -5393297.63847                  22969554.6034
        43.5004         31.5004
 04  7  6 18 40 20.0000000  0  7G 3G14G15G18G19G22G25
  23520276.7864    6239552.11549   4848183.94747                  23520278.4314
        46.0004         29.7504
  20437411.4504   -1158582.90549   -898049.05448                  20437409.7974
        51.7504         44.5004
  20736198.1254    3274789.41849   2546489.16048                  20736196.9534
        52.2504         42.7504
  23660126.1414    6855816.04049   5319070.97947                  23660124.7474
        41.5004         28.0004
  22874989.7784   -2209093.66749  -1712777.14647                  22874987.3154
        47.0004         33.5004
  21649996.4264    2775312.61349   2151123.16048                  21649993.5424
        50.5004         41.0004
  22963103.7674   -6975352.59449  -5419712.83147                  22963103.5794
        45.0004         31.2504
 04  7  6 18 40 30.0000000  0  7G 3G14G15G18G19G22G25
  23524452.7164    6261492.63549   4865280.43147                  23524453.5494
        45.2504         29.2504
  20438388.4364   -1153445.90349   -894046.17848                  20438387.2024
        51.7504         44.2504
  20739648.4674    3292924.68549   2560620.53648                  20739648.2334
        51.7504         42.2504
  23663828.8494    6875276.92649   5334235.30847                  23663827.5894
        44.0004         27.7504
  22875717.3214   -2205269.68149  -1709797.40947                  22875714.7874
        46.7504         33.0004
  21651743.7544    2784493.85949   2158277.38348                  21651740.7064
        51.0004         40.7504
  22956655.1764   -7009237.83849  -5446116.91147                  22956656.0364
        45.0004         31.0004
 04  7  6 18 40 40.0000000  0  7G 3G14G15G18G19G22G25
  23528630.8824    6283450.16749   4882390.15847                  23528632.3294
        44.2504         29.5004
  20439374.2844   -1148266.62049   -890010.37748                  20439372.5244
        51.2504         44.5004
  20743109.4844    3311110.93649   2574791.62148                  20743108.9674
        52.7504         42.5004
  23667534.0304    6894745.54149   5349405.60847                  23667532.3234
        44.7504         27.0004
  22876455.2774   -2201392.00849  -1706775.86347                  22876452.6364
        47.2504         33.2504
  21653493.3144    2793687.23349   2165441.03448                  21653489.8754
        51.5004         40.2504
  22950210.3414   -7043106.80049  -5472508.28347                  22950210.8324
        44.7504         31.5004
 04  7  6 18 40 50.0000000  0  7G 3G14G15G18G19G22G25
  23532812.0754    6305423.77549   4899512.42747                  23532813.6954
        44.2504         29.5004
  20440367.9514   -1143045.90749   -885942.29648                  20440365.8914
        51.0004         45.0004
  20746579.7114    3329347.24949   2589001.72748                  20746579.0514
        52.0004         42.7504
  23671239.7474    6914221.12249   5364581.37847                  23671239.1094
        43.0004         27.5004
  22877203.1104   -2197461.54049  -1703713.16547                  22877200.9744
        47.5004         32.7504
  21655244.9934    2802891.95749   2172613.54548                  21655241.7284
        51.0004         40.2504
  22943767.6384   -7076960.17749  -5498887.52847                  22943768.5454
        46.5004         31.5004
 04  7  6 18 41  0.0000000  0  7G 3G14G15G18G19G22G25
  23536996.2984    6327412.85149   4916646.76247                  23536998.2344
        44.5004         29.2504
  20441369.1834   -1137784.34449   -881842.37548                  20441367.4374
        52.0004         44.7504
  20750059.1234    3347633.16949   2603250.48748                  20750058.7644
        52.2504         42.0004
  23674947.5654    6933703.24049   5379762.21247                  23674946.4374
        45.0004         27.0004
  22877961.3804   -2193478.76249  -1700609.71847                  22877958.3504
        47.5004         33.2504
  21656998.2284    2812107.62549   2179794.57148                  21656995.1514
        51.0004         40.2504
  22937328.8134   -7110798.39249  -5525254.96547                  22937328.9724
        46.0004         31.2504
 04  7  6 18 41 10.0000000  0  7G 3G14G15G18G19G22G25
  23541184.5254    6349415.72949   4933791.81247                  23541185.6154
        45.7504         30.0004
  20442378.0254   -1132483.59049   -877711.92248                  20442375.8594
        51.0004         45.5004
  20753548.1474    3365967.01749   2617536.58948                  20753547.4724
        51.2504         42.2504
  23678655.7904    6953190.19849   5394946.81947                  23678654.4944
        44.0004         26.5004
  22878728.7914   -2189445.30749  -1697466.77647                  22878726.6584
        47.7504         33.5004
  21658753.8704    2821332.63349   2186982.88548                  21658750.5844
        50.5004         40.0004
  22930892.4774   -7144622.84449  -5551611.65747                  22930892.2254
        45.7504         32.0004
 04  7  6 18 41 20.0000000  0  7G 3G14G15G18G19G22G25
  23545374.0674    6371433.10649   4950948.19847                  23545375.2264
        46.0004         30.5004
  20443394.1214   -1127142.72149   -873550.20948                  20443392.4644
        51.2504         45.0004
  20757046.3964    3384349.65449   2631860.72348                  20757045.9734
        51.2504         41.7504
  23682365.0524    6972682.93249   5410135.94847                  23682363.9054
        43.5004         26.5004
  22879505.9544   -2185360.38449  -1694283.70547                  22879503.7274
        48.0004         34.0004
  21660511.2314    2830567.87249   2194179.17248                  21660508.3574
        50.7504         40.5004
  22924458.4504   -7178432.58149  -5577956.89947                  22924458.5854
        45.2504         32.0004
 04  7  6 18 41 30.0000000  0  7G 3G14G15G18G19G22G25
  23549566.1354    6393466.80149   4968117.30347                  23549567.9284
        45.2504         29.5004
  20444419.1114   -1121760.01749   -869355.90348                  20444417.0494
        51.2504         44.7504
  20760553.7094    3402782.92449   2646224.29748                  20760553.1654
        51.5004         41.7504
  23686075.6084    6992183.38649   5425331.09347                  23686074.3744
        44.7504         26.7504
  22880293.9214   -2181222.11949  -1691059.10447                  22880290.9004
        47.5004         33.2504
  21662271.1334    2839815.20849   2201384.88748                  21662267.7144
        51.2504         40.2504
  22918027.8134   -7212225.62749  -5604289.11347                  22918027.9714
        44.2504         31.5004
 04  7  6 18 41 40.0000000  0  7G 3G14G15G18G19G22G25
  23553761.8974    6415513.95949   4985296.88547                  23553763.6414
        44.0004         29.7504
  20445450.0284   -1116338.29249   -865131.17148                  20445448.3844
        51.5004         45.0004
  20764070.4844    3421264.05549   2660625.17548                  20764070.0434
        51.0004         42.0004
  23689787.6684    7011688.76349   5440530.05147                  23689786.3134
        44.2504         26.5004
  22881090.6974   -2177033.40449  -1687795.16647                  22881088.0704
        47.5004         33.0004
  21664032.6244    2849071.91149   2208597.89448                  21664029.1274
        51.0004         40.2504
  22911600.1244   -7246004.64049  -5630610.40347                  22911600.6024
        45.5004         32.2504
 04  7  6 18 41 50.0000000  0  7G 3G14G15G18G19G22G25
  23557960.4234    6437576.42649   5002488.38747                  23557961.8444
        44.5004         29.5004
  20446489.7584   -1110875.58249   -860874.52648                  20446487.8874
        50.7504         44.5004
  20767596.9934    3439795.05049   2675064.90748                  20767596.1844
        49.2504         41.7504
  23693501.0614    7031201.14649   5455734.51846                  23693499.9324
        43.5004         25.2504
  22881897.5824   -2172792.22649  -1684490.36647                  22881895.6804
        47.0004         33.5004
  21665796.3244    2858340.01049   2215819.78548                  21665792.9284
        49.0004         40.5004
  22905174.8214   -7279767.47449  -5656919.08647                  22905175.6454
        44.5004         32.5004
 04  7  6 18 42  0.0000000  0  7G 3G14G15G18G19G22G25
  23562161.0494    6459652.47949   5019690.47147                  23562163.0154
        44.7504         29.0004
  20447536.6444   -1105373.64749   -856587.30548                  20447535.1084
        51.7504         45.5004
  20771132.9144    3458374.12849   2689542.09348                  20771132.3674
        49.2504         42.0004
  23697214.5474    7050718.79549   5470943.04646                  23697213.8084
        44.5004         25.5004
  22882714.2564   -2168500.32649  -1681146.04247                  22882712.3284
        47.5004         33.7504
  21667561.7534    2867617.82549   2223049.25348                  21667558.5054
        49.0004         41.2504
  22898752.9584   -7313515.72349  -5683216.39847                  22898753.4214
        45.0004         32.0004
 04  7  6 18 42 10.0000000  0  7G 3G14G15G18G19G22G25
  23566365.0894    6481743.48949   5036904.25147                  23566366.2914
        45.5004         29.2504
  20448591.6734   -1099830.93649   -852268.31148                  20448589.8964
        51.7504         45.7504
  20774677.3124    3477002.79049   2704057.93048                  20774677.0384
        50.0004         42.2504
  23700930.1974    7070243.28649   5486156.90347                  23700929.4664
        42.0004         26.0004
  22883541.6734   -2164156.20049  -1677761.01847                  22883538.7164
        48.2504         34.0004
  21669329.7594    2876906.91249   2230287.48848                  21669326.0294
        49.0004         41.0004
  22892333.8114   -7347247.69349  -5709501.06047                  22892334.0474
        45.0004         31.7504
 04  7  6 18 42 20.0000000  0  7G 3G14G15G18G19G22G25
  23570571.9504    6503850.11049   5054130.15947                  23570572.8774
        45.2504         30.0004
  20449654.1114   -1094246.91949   -847917.13448                  20449652.5784
        51.5004         45.0004
  20778231.8894    3495681.68049   2718612.91048                  20778231.7014
        49.0004         42.0004
  23704646.3774    7089775.33849   5501376.65746                  23704646.1884
        42.7504         25.5004
  22884377.9714   -2159759.27849  -1674334.84647                  22884375.1994
        47.7504         33.2504
  21671099.0704    2886208.01149   2237535.10548                  21671096.0754
        48.7504         40.7504
  22885918.3744   -7380962.59149  -5735772.37447                  22885918.2144
        45.0004         32.0004
 04  7  6 18 42 30.0000000  0  7G 3G14G15G18G19G22G25
  23574781.3494    6525969.64749   5071366.14047                  23574782.9324
        45.7504         29.0004
  20450724.0134   -1088624.07349   -843535.69848                  20450722.7744
        51.5004         45.5004
  20781795.5424    3514408.26949   2733205.04648                  20781795.0594
        50.5004         42.5004
  23708364.9914    7109312.40249   5516600.31747                  23708363.7514
        44.0004         26.0004
  22885224.0644   -2155312.07349  -1670869.49547                  22885221.7604
        47.7504         34.0004
  21672870.9354    2895518.54249   2244790.04848                  21672867.9574
        50.5004         41.0004
  22879504.8864   -7414662.93249  -5762032.36447                  22879505.3724
        45.5004         31.7504
 04  7  6 18 42 40.0000000  0  7G 3G14G15G18G19G22G25
  23578993.0434    6548102.82749   5088612.78247                  23578994.0694
        45.7504         29.7504
  20451801.8664   -1082961.75949   -839123.50948                  20451800.1094
        51.2504         45.0004
  20785368.2024    3533183.33849   2747834.96348                  20785367.9504
        50.5004         42.2504
  23712083.1444    7128855.26549   5531828.50147                  23712082.7354
        44.0004         26.2504
  22886080.6584   -2150813.91649  -1667364.45547                  22886077.5804
        47.0004         33.5004
  21674644.4174    2904839.30549   2252052.97448                  21674641.6074
        50.0004         41.0004
  22873094.6094   -7448347.74449  -5788280.25747                  22873095.6084
        44.5004         32.2504
 04  7  6 18 42 50.0000000  0  7G 3G14G15G18G19G22G25
  23583207.8004    6570250.79049   5105870.89747                  23583208.5224
        45.7504         27.5004
  20452886.8904   -1077258.75649   -834679.61448                  20452885.4094
        51.5004         44.5004
  20788950.7504    3552008.03949   2762503.54348                  20788949.8674
        47.2504         42.2504
  23715803.3594    7148405.16749   5547062.20447                  23715803.2114
        42.5004         27.0004
  22886945.5474   -2146263.54649  -1663818.72947                  22886943.4694
        48.7504         34.0004
  21676420.7684    2914171.60749   2259324.88848                  21676417.7444
        47.0004         41.5004
  22866687.8714   -7482015.67949  -5814514.98747                  22866689.3424
        45.5004         32.5004
 04  7  6 18 43  0.0000000  0  7G 3G14G15G18G19G22G25
  23587426.0374    6592414.08449   5123140.98647                  23587426.4954
        46.0004         30.2504
  20453979.9444   -1071514.51449   -830203.58748                  20453978.5314
        51.0004         44.7504
  20792542.5274    3570882.97849   2777211.28448                  20792541.7164
        50.2504         42.2504
  23719525.4224    7167962.81549   5562301.90047                  23719524.9834
        43.7504         27.5004
  22887822.1644   -2141660.39849  -1660231.86047                  22887819.6474
        47.2504         33.7504
  21678198.7794    2923516.06749   2266606.28148                  21678195.7564
        50.2504         41.0004
  22860284.6664   -7515666.03149  -5840736.01147                  22860286.2154
        45.5004         32.0004
 04  7  6 18 43 10.0000000  0  7G 3G14G15G18G19G22G25
  23591646.3604    6614592.30849   5140422.72447                  23591646.9454
        47.0004         30.2504
  20455081.0584   -1065729.31549   -825695.63948                  20455079.2864
        51.5004         45.0004
  20796143.6674    3589807.88449   2791957.95648                  20796143.0894
        50.5004         42.5004
  23723248.5944    7187527.91249   5577547.38847                  23723248.4304
        44.0004         26.5004
  22888708.3244   -2137004.71149  -1656604.05147                  22888704.9814
        48.0004         33.5004
  21679979.0634    2932872.46949   2273896.98048                  21679976.6104
        50.5004         41.0004
  22853884.7324   -7549298.88149  -5866943.42347                  22853885.6984
        45.2504         32.5004
 04  7  6 18 43 20.0000000  0  7G 3G14G15G18G19G22G25
  23595869.1414    6636784.76249   5157715.51747                  23595869.7124
        45.7504         30.5004
  20456189.5324   -1059903.84649   -821156.31748                  20456187.7444
        51.0004         44.7504
  20799754.3624    3608782.14049   2806743.07748                  20799754.0504
        48.5004         42.5004
  23726973.5914    7207099.97749   5592798.33947                  23726972.6454
        42.5004         26.7504
  22889604.0604   -2132297.21549  -1652935.88847                  22889600.8254
        48.2504         33.5004
  21681761.9104    2942240.24749   2281196.53848                  21681759.4934
        48.7504         40.7504
  22847487.8184   -7582914.79249  -5893137.62847                  22847488.4684
        44.0004         32.5004
 04  7  6 18 43 30.0000000  0  8G 3G11G14G15G18G19G22G25
  23600095.1364    6658991.34749   5175019.33247                  23600095.3444
        46.7504         30.5004
  24411192.0104     -31013.50259
        36.0004
  20457305.4934   -1054038.19349   -816585.68848                  20457303.7024
        51.7504         44.7504
  20803374.4784    3627805.56549   2821566.52748                  20803374.5074
        51.5004         42.2504
  23730698.6784    7226678.87149   5608054.59947                  23730697.8784
        42.5004         26.5004
  22890509.2664   -2127537.97549  -1649227.40947                  22890507.3264
        47.2504         33.5004
  21683546.5874    2951619.29049   2288504.87648                  21683544.0584
        50.7504         40.5004
  22841093.8504   -7616513.71349  -5919318.60547                  22841094.3654
        44.7504         32.0004
 04  7  6 18 43 40.0000000  0  8G 3G11G14G15G18G19G22G25
  23604322.6224    6681209.60149   5192332.25547                  23604323.6504
        47.2504         30.7504
  24404685.3194     -65200.86748    -38732.87756                  24404686.6424
        35.7504         23.0004
  20458429.0624   -1048134.77349   -811985.62648                  20458427.2864
        51.5004         45.0004
  20807003.4984    3646875.77549   2836426.42048                  20807002.6724
        50.7504         42.7504
  23734426.1274    7246262.19849   5623314.32447                  23734425.2094
        41.7504         26.5004
  22891424.2844   -2122729.44449  -1645480.49747                  22891421.7014
        48.5004         34.0004
  21685333.3154    2961007.32649   2295820.22148                  21685330.4724
        51.0004         41.2504
  22834703.4944   -7650097.88649  -5945488.06547                  22834703.4064
        44.7504         32.5004
 04  7  6 18 43 50.0000000  0  8G 3G11G14G15G18G19G22G25
  23608552.8184    6703441.06749   5209655.45647                  23608554.8844
        46.0004         30.0004
  24398182.1094     -99376.30748    -65363.06546                  24398183.5454
        35.5004         22.2504
  20459560.1664   -1042192.03449   -807354.91948                  20459558.1104
        51.5004         45.0004
  20810641.5854    3665994.38149   2851324.02048                  20810641.1674
        48.7504         42.0004
  23738153.2884    7265851.70649   5638578.82647                  23738153.2414
        37.2504         26.0004
  22892349.4794   -2117870.00549  -1641693.92447                  22892347.3214
        48.0004         34.0004
  21687121.4714    2970405.98349   2303143.85448                  21687118.8344
        49.0004         41.0004
  22828315.6514   -7683665.44349  -5971644.58847                  22828316.1194
        45.0004         33.0004
 04  7  6 18 44  0.0000000  0  8G 3G11G14G15G18G19G22G25
  23612786.3384    6725685.22849   5226988.52847                  23612787.2584
        46.5004         30.5004
  24391681.4214    -133540.17748    -91984.27146                  24391682.2794
        35.5004         22.5004
  20460698.3444   -1036210.31549   -802693.84648                  20460696.6854
        51.5004         45.0004
  20814289.2394    3685161.01549   2866259.05648                  20814288.1464
        49.0004         42.2504
  23741882.0124    7285447.01449   5653847.87647                  23741881.9344
        37.5004         26.2504
  22893283.4224   -2112960.04149  -1637868.00347                  22893281.3564
        47.5004         33.2504
  21688912.3294    2979814.98149   2310475.52148                  21688909.1254
        49.5004         40.5004
  22821930.7394   -7717216.72049  -5997788.43347                  22821931.5324
        45.0004         32.0004
 04  7  6 18 44 10.0000000  0  8G 3G11G14G15G18G19G22G25
  23617021.2734    6747942.28349   5244331.66747                  23617022.8694
        46.2504         29.5004
  24385181.7244    -167692.19948   -118596.20346                  24385183.1424
        35.5004         22.0004
  20461843.7734   -1030189.44049   -798002.25148                  20461842.4904
        51.2504         45.2504
  20817945.3424    3704375.92349   2881231.70248                  20817944.6984
        49.5004         42.0004
  23745612.1034    7305048.48949   5669121.73746                  23745611.7384
        37.0004         25.5004
  22894227.5734   -2107999.38249  -1634002.54547                  22894224.6924
        48.5004         33.0004
  21690704.6974    2989234.56249   2317815.46248                  21690702.3594
        49.7504         40.2504
  22815549.7974   -7750751.32349  -6023919.27247                  22815550.6114
        45.0004         32.0004
 04  7  6 18 44 20.0000000  0  8G 3G11G14G15G18G19G22G25
  23621259.8944    6770214.05249   5261686.28847                  23621261.1834
        47.0004         30.7504
  24378685.7384    -201830.12949   -145197.17846                  24378687.0544
        36.0004         21.2504
  20462997.2544   -1024127.52149   -793278.66848                  20462995.6444
        50.7504         45.2504
  20821611.4834    3723641.03949   2896243.47548                  20821611.2204
        49.5004         42.0004
  23749343.4404    7324657.99949   5684401.88347                  23749344.0294
        38.0004         26.0004
  22895181.7174   -2102986.10649  -1630096.09447                  22895178.5814
        48.5004         33.7504
  21692499.5324    2998666.71449   2325165.18948                  21692497.1584
        49.2504         40.0004
  22809171.7624   -7784267.22149  -6050035.53847                  22809172.6524
        45.2504         32.5004
 04  7  6 18 44 30.0000000  0  8G 3G11G14G15G18G19G22G25
  23625500.9924    6792499.63049   5279051.65147                  23625501.4654
        47.0004         30.7504
  24372193.0004    -235954.94449   -171787.90746                  24372193.7144
        36.0004         22.5004
  20464158.8714   -1018025.52749   -788523.89148                  20464156.9474
        51.0004         45.5004
  20825286.6384    3742955.42349   2911293.63548                  20825286.2364
        50.2504         41.5004
  23753077.1124    7344274.82849   5699687.66046                  23753076.5224
        39.5004         25.0004
  22896145.5074   -2097921.15249  -1626149.40247                  22896143.0364
        48.0004         34.5004
  21694296.5874    3008110.57649   2332524.03348                  21694293.7254
        50.0004         40.0004
  22802797.5004   -7817765.16849  -6076137.83347                  22802797.6044
        44.0004         33.0004
 04  7  6 18 44 40.0000000  0  8G 3G11G14G15G18G19G22G25
  23629744.2504    6814798.13049   5296427.07247                  23629745.0514
        46.2504         30.0004
  24365700.8494    -270067.18849   -198368.86446                  24365702.1184
        37.2504         22.7504
  20465327.1524   -1011884.22549   -783738.46248                  20465325.6574
        52.0004         45.0004
  20828971.6894    3762318.27149   2926381.56548                  20828971.3384
        51.2504         41.7504
  23756811.1794    7363898.15849   5714978.55347                  23756811.2574
        41.0004         27.0004
  22897118.9364   -2092805.26449  -1622163.00547                  22897116.3824
        48.5004         34.0004
  21696096.0404    3017565.37149   2339891.39248                  21696092.3814
        50.2504         40.2504
  22796426.0264   -7851245.77449  -6102226.59547                  22796426.7954
        45.0004         33.0004
 04  7  6 18 44 50.0000000  0  8G 3G11G14G15G18G19G22G25
  23633989.1664    6837108.48649   5313811.74647                  23633990.6444
        46.5004         30.5004
  24359211.2144    -304167.78549   -224940.74346                  24359213.2534
        37.2504         22.2504
  20466503.2564   -1005704.66349   -778923.21148                  20466501.1644
        51.0004         44.7504
  20832665.3654    3781728.58849   2941506.47848                  20832664.9224
        52.0004         42.2504
  23760545.8604    7383526.98649   5730273.71846                  23760546.1614
        42.5004         24.7504
  22898102.2384   -2087639.48349  -1618137.72547                  22898098.4664
        48.0004         34.2504
  21697896.9864    3027030.18949   2347266.56748                  21697893.8014
        50.2504         40.2504
  22790057.7234   -7884709.94649  -6128302.54947                  22790058.6034
        44.5004         33.7504
 04  7  6 18 45  0.0000000  0  8G 3G11G14G15G18G19G22G25
  23638237.3714    6859431.25249   5331206.09447                  23638238.1034
        46.5004         30.0004
  24352724.8984    -338255.87849   -251502.88846                  24352726.2244
        36.7504         22.2504
  20467686.3224    -999486.19049   -774077.65948                  20467684.1484
        51.0004         44.7504
  20836367.9594    3801187.03149   2956668.88648                  20836367.6784
        52.0004         42.2504
  23764282.7494    7403162.06349   5745573.73946                  23764282.3674
        41.2504         25.2504
  22899095.2994   -2082423.15849  -1614073.07447                  22899091.6024
        48.5004         34.0004
  21699700.1374    3036505.75349   2354650.11548                  21699697.0394
        51.5004         40.7504
  22783693.9934   -7918156.77249  -6154365.00847                  22783694.0864
        44.7504         33.0004
 04  7  6 18 45 10.0000000  0  8G 3G11G14G15G18G19G22G25
  23642487.9224    6881767.78449   5348611.14747                  23642488.9044
        46.5004         29.7504
  24346241.4354    -372330.15249   -278054.20746                  24346242.5124
        36.5004         25.0004
  20468877.6144    -993227.47749   -769200.74048                  20468875.6284
        51.0004         45.0004
  20840080.1704    3820694.94449   2971869.84748                  20840080.6594
        51.5004         42.5004
  23768020.9554    7422804.68049   5760879.65946                  23768020.3264
        42.2504         25.5004
  22900097.2294   -2077155.03749  -1609968.04247                  22900094.0374
        47.7504         33.5004
  21701505.5124    3045993.41249   2362043.10248                  21701501.8594
        51.2504         40.7504
  22777332.8654   -7951584.83449  -6180412.82647                  22777332.9024
        45.5004         33.7504
 04  7  6 18 45 20.0000000  0  8G 3G11G14G15G18G19G22G25
  23646741.5424    6904118.29149   5366027.10847                  23646741.9214
        46.5004         30.5004
  24339759.6404    -406390.06449   -304594.39246                  24339760.9924
        38.2504         24.0004
  20470075.8994    -986928.29749   -764292.28648                  20470074.0644
        50.5004         44.5004
  20843802.2264    3840252.61249   2987109.58148                  20843801.7604
        52.0004         42.0004
  23771760.3274    7442455.34749   5776191.88846                  23771759.5604
        42.7504         25.0004
  22901109.3864   -2071834.80849  -1605822.42947                  22901107.5174
        48.0004         33.0004
  21703313.4654    3055493.49549   2369445.75348                  21703310.1224
        52.0004         41.0004
  22770975.1834   -7984993.72649  -6206445.71847                  22770974.8574
        44.5004         33.0004
 04  7  6 18 45 30.0000000  0  8G 3G11G14G15G18G19G22G25
  23650996.7394    6926479.63849   5383451.51647                  23650997.1134
        47.0004         31.0004
  24333279.8424    -440438.54249   -331125.65646                  24333281.8944
        37.2504         25.0004
  20471282.2454    -980591.74249   -759354.71748                  20471280.2564
        50.2504         44.7504
  20847532.3764    3859857.02149   3002385.73248                  20847532.2384
        51.7504         41.7504
  23775501.4474    7462111.02449   5791507.93347                  23775499.8774
        42.0004         25.7504
  22902131.4514   -2066465.46849  -1601638.55347                  22902128.8954
        47.0004         33.5004
  21705122.8784    3065003.12549   2376855.84448                  21705120.0784
        51.0004         41.2504
  22764620.5624   -8018386.34349  -6232465.92747                  22764619.8464
        44.7504         32.2504
 04  7  6 18 45 40.0000000  0  8G 3G11G14G15G18G19G22G25
  23655254.3534    6948853.20549   5400885.43947                  23655254.8614
        46.0004         31.2504
  24326803.3574    -474473.93949   -357646.75846                  24326804.8364
        37.7504         23.0004
  20472494.9304    -974216.27649   -754386.82248                  20472493.2174
        50.7504         44.5004
  20851272.6684    3879509.62449   3017699.44548                  20851271.8434
        50.5004         41.7504
  23779241.7524    7481773.25649   5806829.11547                  23779241.6274
        40.7504         26.5004
  22903162.5894   -2061045.58749  -1597415.27447                  22903159.9204
        48.0004         32.7504
  21706934.9374    3074523.76049   2384274.52148                  21706931.6684
        50.0004         40.7504
  22758269.5854   -8051760.99649  -6258472.13747                  22758269.1994
        45.7504         34.0004
 04  7  6 18 45 50.0000000  0  8G 3G11G14G15G18G19G22G25
  23659513.3354    6971239.27849   5418329.12247                  23659514.6604
        47.0004         32.0004
  24320328.8304    -508495.82249   -384157.24446                  24320330.9384
        38.0004         24.5004
  20473715.9464    -967801.58249   -749388.36048                  20473714.2194
        50.7504         44.5004
  20855021.4184    3899210.78349   3033050.99548                  20855020.4904
        50.7504         42.2504
  23782985.4054    7501442.49149   5822155.81546                  23782984.7964
        42.5004         24.0004
  22904204.0434   -2055574.86249  -1593152.37447                  22904201.0434
        48.0004         34.5004
  21708748.8224    3084055.79049   2391702.07448                  21708745.7864
        51.0004         41.2504
  22751921.5764   -8085117.22549  -6284463.97947                  22751921.4334
        45.0004         33.0004
 04  7  6 18 46  0.0000000  0  8G 3G11G14G15G18G19G22G25
  23663776.5154    6993637.68949   5435782.39247                  23663777.7864
        46.7504         31.2504
  24313857.7444    -542504.18249   -410657.22646                  24313858.9544
        40.7504         23.5004
  20474943.8804    -961347.84649   -744359.47348                  20474942.2474
        50.5004         45.0004
  20858779.7744    3918960.33549   3048440.24048                  20858779.3854
        50.7504         41.7504
  23786729.1824    7521118.58549   5837487.80046                  23786728.4164
        41.0004         25.5004
  22905254.0614   -2050053.45949  -1588849.99347                  22905251.7474
        46.5004         33.7504
  21710564.5794    3093599.18049   2399138.47648                  21710561.9834
        51.0004         40.7504
  22745577.6084   -8118455.05149  -6310441.51347                  22745577.8004
        44.5004         33.0004
 04  7  6 18 46 10.0000000  0  8G 3G11G14G15G18G19G22G25
  23668040.9714    7016048.57049   5453245.39547                  23668041.7084
        47.2504         31.2504
  24307388.6954    -576498.66549   -437146.43947                  24307389.9944
        38.0004         26.0004
  20476179.8844    -954854.78449   -739299.95348                  20476177.8114
        51.2504         45.0004
  20862547.6064    3938758.56649   3063867.42748                  20862546.1744
        51.5004         42.0004
  23790474.9524    7540801.79849   5852825.33746                  23790473.3654
        40.5004         22.7504
  22906314.5794   -2044481.09949  -1584507.90747                  22906311.7474
        47.0004         33.0004
  21712382.9014    3103154.17749   2406583.91848                  21712380.1954
        50.0004         40.5004
  22739237.3664   -8151774.01249  -6336404.32347                  22739237.2044
        45.0004         32.7504
 04  7  6 18 46 20.0000000  0  8G 3G11G14G15G18G19G22G25
  23672307.7394    7038472.19449   5470718.33647                  23672309.0214
        45.5004         30.0004
  24300922.7824    -610478.96449   -463624.59947                  24300924.3594
        39.5004         25.7504
  20477422.4484    -948322.27749   -734209.69348                  20477420.7404
        51.5004         45.0004
  20866324.1324    3958605.69049   3079332.71748                  20866323.4324
        49.2504         41.7504
  23794221.4524    7560492.40649   5868168.67046                  23794221.2364
        40.0004         24.7504
  22907385.1754   -2038857.60649  -1580125.96747                  22907382.1594
        48.5004         33.2504
  21714203.5534    3112721.12749   2414038.68548                  21714200.7694
        48.0004         40.2504
  22732900.7444   -8185073.73549  -6362352.13747                  22732900.4334
        46.0004         33.2504
 04  7  6 18 46 30.0000000  0  8G 3G11G14G15G18G19G22G25
  23676577.0194    7060906.81549   5488199.82947                  23676577.7574
        45.7504         30.0004
  24294458.3974    -644446.60049   -490092.82446                  24294459.9374
        38.5004         23.2504
  20478673.1924    -941751.94449   -729089.95348                  20478671.1394
        50.5004         44.7504
  20870109.8954    3978500.08949   3094834.82548                  20870109.0344
        51.0004         41.5004
  23797970.3694    7580188.87849   5883516.52346                  23797969.0494
        41.7504         24.2504
  22908464.4654   -2033184.56849  -1575705.43547                  22908461.9924
        49.0004         33.7504
  21716025.8904    3122298.41149   2421501.50248                  21716022.7284
        49.5004         40.2504
  22726567.6634   -8218355.73949  -6388286.15047                  22726567.7004
        45.2504         33.0004
 04  7  6 18 46 40.0000000  0  8G 3G11G14G15G18G19G22G25
  23680848.2344    7083352.38049   5505689.85347                  23680849.4604
        45.2504         30.2504
  24287997.3874    -678401.39149   -516551.13546                  24287998.0304
        39.2504         23.0004
  20479930.5104    -935143.80049   -723940.76248                  20479928.5184
        51.7504         44.7504
  20873904.2604    3998441.78049   3110373.79248                  20873903.6634
        51.0004         41.7504
  23801719.3524    7599891.19649   5898868.94146                  23801718.5424
        42.0004         24.5004
  22909553.1784   -2027462.01649  -1571246.33447                  22909550.5984
        47.7504         33.5004
  21717850.4064    3131886.11249   2428972.41548                  21717847.5034
        50.0004         39.7504
  22720237.5284   -8251619.84649  -6414206.24547                  22720237.3444
        46.5004         33.0004
 04  7  6 18 46 50.0000000  0  8G 3G11G14G15G18G19G22G25
  23685121.3114    7105808.42849   5523188.06847                  23685122.7284
        46.0004         30.0004
  24281538.6154    -712343.43649   -542999.45847                  24281539.3854
        41.2504         25.7504
  20481194.7734    -928498.19849   -718762.35048                  20481193.2264
        51.2504         45.0004
  20877708.5024    4018430.31049   3125949.27248                  20877707.3054
        48.0004         42.0004
  23805469.2594    7619599.10749   5914225.77746                  23805469.6094
        39.0004         24.5004
  22910651.8294   -2021690.38949  -1566748.94047                  22910649.5994
        48.0004         34.2504
  21719676.5694    3141483.87949   2436451.20947                  21719673.7954
        46.7504         39.2504
  22713910.7104   -8284866.37249  -6440112.60247                  22713910.8604
        44.2504         32.5004
 04  7  6 18 47  0.0000000  0  8G 3G11G14G15G18G19G22G25
  23689397.4734    7128277.81749   5540696.65147                  23689398.4924
        46.0004         30.7504
  24275082.9624    -746269.89449   -569435.66047                  24275083.3404
        40.2504         26.0004
  20482467.4264    -921812.33249   -713552.59148                  20482465.2614
        51.7504         44.7504
  20881521.6114    4038468.57149   3141563.48848                  20881520.6514
        51.0004         42.0004
  23809221.3464    7639315.54149   5929589.17646                  23809220.9694
        37.2504         23.0004
  22911760.2354   -2015866.77449  -1562211.08747                  22911757.9674
        47.2504         34.2504
  21721505.3934    3151094.64049   2443940.10048                  21721502.2944
        49.2504         39.7504
  22707588.2214   -8318092.22449  -6466002.87647                  22707587.8944
        44.5004         32.2504
 04  7  6 18 47 10.0000000  0  8G 3G11G14G15G18G19G22G25
  23693675.7584    7150760.01549   5558215.23947                  23693676.5824
        47.0004         31.5004
  24268629.4224    -780181.04449   -595859.86546                  24268629.8054
        39.5004         24.5004
  20483747.1884    -915086.66949   -708311.81648                  20483745.1014
        50.2504         45.0004
  20885343.7564    4058556.13349   3157216.13048                  20885342.8524
        50.2504         42.0004
  23812974.9664    7659040.11049   5944959.00146                  23812974.3414
        37.7504         22.5004
  22912877.9794   -2009991.69449  -1557633.09647                  22912875.8624
        46.0004         33.5004
  21723336.8364    3160718.06849   2451438.86748                  21723334.1474
        50.0004         39.7504
  22701269.7254   -8351297.70849  -6491877.24147                  22701269.1744
        44.0004         32.5004
 04  7  6 18 47 20.0000000  0  8G 3G11G14G15G18G19G22G25
  23697956.8214    7173255.35849   5575744.04747                  23697957.3384
        46.5004         31.5004
  24262179.9394    -814076.28549   -622271.74546                  24262180.0974
        40.0004         22.5004
  20485034.9384    -908320.85949   -703039.76648                  20485033.0234
        50.7504         45.0004
  20889175.7294    4078693.33249   3172907.44048                  20889175.2384
        49.7504         42.2504
  23816730.6254    7678773.24649   5960335.42346                  23816729.1094
        38.0004         23.0004
  22914005.9114   -2004064.80249  -1553014.75447                  22914003.5604
        47.0004         33.5004
  21725170.7324    3170354.51849   2458947.78448                  21725167.1674
        49.2504         39.7504
  22694954.6624   -8384482.26149  -6517735.34247                  22694953.8534
        45.0004         32.5004
 04  7  6 18 47 30.0000000  0  8G 3G11G14G15G18G19G22G25
  23702238.9284    7195762.40149   5593281.97347                  23702240.0854
        47.2504         29.7504
  24255731.9914    -847956.99749   -648672.30846                  24255732.8264
        38.5004         23.0004
  20486329.8404    -901516.24449   -697737.46748                  20486328.3044
        51.0004         45.2504
  20893017.3794    4098878.83949   3188636.39948                  20893016.0534
        50.5004         41.5004
  23820486.3454    7698513.61549   5975717.51546                  23820485.3434
        37.7504         24.5004
  22915143.5874   -1998087.40049  -1548357.05247                  22915140.8764
        48.0004         34.0004
  21727006.7324    3180002.76049   2466465.89548                  21727003.5494
        49.7504         39.5004
  22688643.3824   -8417647.14349  -6543578.09847                  22688643.1204
        44.7504         32.2504
 04  7  6 18 47 40.0000000  0  8G 3G11G14G15G18G19G22G25
  23706524.0124    7218278.81749   5610827.21047                  23706525.1374
        47.2504         29.0004
  24249287.0594    -881825.29749   -675063.18146                  24249287.2034
        38.7504         24.7504
  20487631.1704    -894675.11449   -692406.72148                  20487629.8024
        51.2504         45.0004
  20896866.9534    4119110.37949   3204401.22448                  20896866.2024
        50.2504         41.2504
  23824244.0354    7718259.00849   5991103.53946                  23824242.9954
        40.0004         25.0004
  22916289.9434   -1992061.78549  -1543661.79547                  22916287.6804
        48.0004         33.5004
  21728844.7534    3189660.60749   2473991.48248                  21728841.2484
        49.7504         40.2504
  22682335.8554   -8450794.37549  -6569407.10447                  22682335.2594
        44.2504         32.0004
 04  7  6 18 47 50.0000000  0  8G 3G11G14G15G18G19G22G25
  23710810.6204    7240805.12149   5628380.15147                  23710811.0184
        47.0004         29.5004
  24242845.2584    -915680.35249   -701443.75146                  24242845.1804
        38.2504         23.2504
  20488940.2474    -887796.90249   -687047.07548                  20488938.5984
        52.0004         44.5004
  20900725.4564    4139388.59249   3220202.41848                  20900725.1264
        50.7504         41.5004
  23828002.7764    7738010.21749   6006494.05147                  23828002.0844
        42.0004         25.7504
  22917445.7734   -1985987.38249  -1538928.48147                  22917443.6104
        47.7504         34.0004
  21730684.6734    3199328.73049   2481525.07348                  21730681.3984
        50.7504         40.2504
  22676031.1394   -8483923.21949  -6595221.75347                  22676031.8304
        45.0004         32.0004
 04  7  6 18 48  0.0000000  0  8G 3G11G14G15G18G19G22G25
  23715099.2904    7263342.61649   5645941.81647                  23715099.9374
        46.7504         28.7504
  24236405.5784    -949520.78649   -727812.92946                  24236405.2444
        39.5004         22.7504
  20490256.6954    -880880.25449   -681657.49048                  20490254.6014
        51.7504         44.5004
  20904594.0404    4159714.78349   3236040.99248                  20904592.9314
        51.0004         41.7504
  23831761.5534    7757768.48149   6021890.09746                  23831761.8404
        39.7504         25.0004
  22918611.1824   -1979862.75849  -1534156.05647                  22918609.5614
        47.2504         34.5004
  21732526.2104    3209008.50549   2489067.76048                  21732522.9504
        50.2504         40.5004
  22669730.6294   -8517032.25849  -6621020.97247                  22669730.8224
        45.7504         31.5004
 04  7  6 18 48 10.0000000  0  8G 3G11G14G15G18G19G22G25
  23719390.4274    7285891.64949   5663512.47747                  23719390.9604
        47.0004         28.7504
  24229968.2454    -983346.03849   -754170.18346                  24229968.6474
        38.7504         22.7504
  20491579.9584    -873924.74549   -676237.61148                  20491578.5264
        50.5004         44.5004
  20908471.0224    4180089.33349   3251917.25848                  20908469.6954
        52.0004         42.0004
  23835522.9574    7777534.30949   6037291.99246                  23835522.8614
        41.7504         25.2504
  22919786.4824   -1973687.66449  -1529344.31347                  22919784.7304
        44.7504         34.0004
  21734370.7014    3218700.34649   2496619.83548                  21734367.4234
        51.5004         40.2504
  22663434.9684   -8550120.97949  -6646804.38347                  22663434.4054
        44.7504         32.7504
 04  7  6 18 48 20.0000000  0  8G 3G11G14G15G18G19G22G25
  23723684.0534    7308451.51149   5681091.58447                  23723683.3234
        46.5004         28.2504
  24223533.9934   -1017156.65749   -780516.11946                  24223534.9704
        38.5004         22.2504
  20492911.0594    -866931.18249   -670788.07548                  20492909.0914
        49.5004         44.7504
  20912357.1964    4200511.59749   3267830.71148                  20912356.6004
        50.5004         42.2504
  23839286.3144    7797307.15049   6052699.38446                  23839285.6384
        39.7504         24.2504
  22920971.1964   -1967462.77149  -1524493.75047                  22920969.1624
        44.0004         34.5004
  21736217.1884    3228403.66649   2504180.86348                  21736214.4204
        49.2504         40.5004
  22657141.9344   -8583189.90349  -6672572.37447                  22657141.4484
        45.7504         33.2504
 04  7  6 18 48 30.0000000  0  8G 3G11G14G15G18G19G22G25
  23727978.0484    7331022.50049   5698679.35447                  23727978.3504
        46.2504         29.0004
  24217103.1874   -1050951.94949   -806850.10246                  24217103.5124
        38.7504         22.7504
  20494249.1234    -859899.06649   -665308.51448                  20494247.2364
        50.0004         45.0004
  20916252.6974    4220982.03049   3283781.68948                  20916251.5634
        52.2504         41.7504
  23843050.4784    7817087.45149   6068112.64046                  23843049.6164
        42.0004         24.0004
  22922164.6434   -1961187.68349  -1519604.07747                  22922162.6964
        43.0004         34.0004
  21738065.9734    3238118.98449   2511751.23748                  21738063.0664
        51.0004         40.5004
  22650852.7404   -8616238.40749  -6698324.43847                  22650852.5294
        45.0004         32.5004
 04  7  6 18 48 40.0000000  0  8G 3G11G14G15G18G19G22G25
  23732274.3014    7353600.44249   5716272.52847                  23732275.7194
        44.7504         27.5004
  24210673.5034   -1084736.10349   -833175.40046                  24210674.8774
        38.5004         21.7504
  20495594.0324    -852832.66549   -659802.23448                  20495591.7564
        50.7504         44.7504
  20920156.4824    4241496.45049   3299766.93248                  20920155.4774
        52.0004         41.7504
  23846814.8364    7836871.07849   6083528.40746                  23846814.1854
        41.5004         23.5004
  22923367.8984   -1954866.55549  -1514678.55247                  22923365.8724
        45.7504         34.2504
  21739916.1684    3247842.22149   2519327.78148                  21739913.2984
        50.7504         40.5004
  22644566.6144   -8649270.42949  -6724063.66147                  22644566.6914
        44.7504         32.7504
 04  7  6 18 48 50.0000000  0  8G 3G11G14G15G18G19G22G25
  23736572.7724    7376185.35949   5733871.13247                  23736574.0564
        45.0004         28.2504
  24204246.5334   -1118508.86449   -859491.78846                  24204247.2534
        38.5004         21.5004
  20496945.0504    -845731.89749   -654269.17248                  20496943.1174
        51.2504         44.5004
  20924068.5704    4262054.86249   3315786.47248                  20924067.6914
        52.2504         42.2504
  23850580.4314    7856658.14349   6098946.90046                  23850579.7404
        42.5004         23.2504
  22924579.8824   -1948499.32549  -1509717.07347                  22924577.4194
        47.5004         34.0004
  21741768.2564    3257573.43649   2526910.54048                  21741765.0374
        51.5004         40.7504
  22638284.1944   -8682285.93149  -6749790.00147                  22638284.1734
        44.7504         32.2504
 04  7  6 18 49  0.0000000  0  8G 3G11G14G15G18G19G22G25
  23740871.6504    7398780.35749   5751477.56447                  23740872.8844
        45.7504         29.0004
  24197823.1594   -1152266.85349   -885796.73646                  24197823.7504
        39.7504         21.7504
  20498303.6944    -838593.59349   -648706.86248                  20498301.4354
        51.2504         44.7504
  20927989.9024    4282660.51049   3331842.80148                  20927988.7794
        51.7504         41.5004
  23854346.7734    7876451.93549   6114370.57146                  23854346.2804
        40.5004         22.7504
  22925800.7664   -1942082.76749  -1504717.18647                  22925797.7794
        46.7504         33.7504
  21743622.1584    3267315.89349   2534502.04648                  21743619.3244
        50.7504         40.5004
  22632004.7584   -8715281.42549  -6775500.75147                  22632005.1344
        44.2504         32.0004
 04  7  6 18 49 10.0000000  0  8G 3G11G14G15G18G19G22G25
  23745173.2414    7421383.47849   5769090.40147                  23745174.4194
        44.7504         28.0004
  24191402.1784   -1186011.83249   -912091.50546                  24191402.1824
        39.0004         21.7504
  20499668.5824    -831419.59749   -643116.72448                  20499667.1774
        50.2504         44.7504
  20931919.2994    4303311.58349   3347934.55248                  20931918.4934
        52.0004         41.7504
  23858115.5954    7896250.64949   6129798.14946                  23858113.6404
        41.7504         25.5004
  22927030.6864   -1935618.82549  -1499680.34747                  22927028.8354
        44.0004         34.2504
  21745477.3204    3277067.76749   2542100.91648                  21745474.6044
        51.2504         40.2504
  22625729.4954   -8748258.56549  -6801197.21147                  22625728.9734
        44.5004         32.5004
 04  7  6 18 49 20.0000000  0  8G 3G11G14G15G18G19G22G25
  23749476.6274    7443997.91549   5786712.03147                  23749477.8014
        45.5004         27.2504
  24184983.5424   -1219740.52749   -938373.61046                  24184984.4564
        39.5004         21.5004
  20501040.8784    -824206.76649   -637496.34048                  20501039.6384
        50.5004         45.0004
  20935858.4764    4324011.23149   3364064.12948                  20935857.8224
        52.5004         42.0004
  23861883.5664    7916057.47249   6145232.05546                  23861883.4674
        41.7504         23.5004
  22928270.5314   -1929104.38649  -1494604.17247                  22928268.8964
        44.7504         35.0004
  21747335.8444    3286832.33849   2549709.66148                  21747332.5994
        51.0004         40.0004
  22619458.7424   -8781214.07049  -6826876.81047                  22619458.0864
        44.7504         33.2504
 04  7  6 18 49 30.0000000  0  8G 3G11G14G15G18G19G22G25
  23753781.8054    7466622.76249   5804341.74747                  23753783.0834
        45.2504         27.5004
  24178568.6374   -1253453.65549   -964643.48946                  24178568.5574
        39.5004         20.5004
  20502421.0504    -816955.91049   -631846.32948                  20502419.3184
        51.5004         45.5004
  20939806.3574    4344758.59549   3380230.90148                  20939805.6544
        52.2504         42.2504
  23865654.5374    7935871.66449   6160671.63446                  23865654.3284
        39.7504         25.2504
  22929519.8174   -1922540.23949  -1489489.25947                  22929517.6934
        46.0004         35.0004
  21749195.9904    3296608.82849   2557327.69648                  21749193.0074
        50.5004         40.0004
  22613191.7924   -8814148.65849  -6852540.10847                  22613191.2914
        45.2504         33.7504
 04  7  6 18 49 40.0000000  0  8G 3G11G14G15G18G19G22G25
  23758089.0194    7489257.76249   5821979.39247                  23758090.6854
        45.0004         27.5004
  24172155.6934   -1287151.24349   -990901.37546                  24172156.1224
        38.0004         20.5004
  20503807.9644    -809667.22549   -626166.83748                  20503806.0504
        51.2504         45.0004
  20943763.6214    4365553.51249   3396434.72048                  20943763.1414
        52.0004         42.0004
  23869425.6214    7955693.09349   6176116.88046                  23869425.6254
        40.5004         24.7504
  22930778.1774   -1915926.51249  -1484335.71147                  22930776.5064
        46.7504         34.7504
  21751058.9114    3306397.13349   2564954.94248                  21751055.6854
        51.0004         39.7504
  22606928.7484   -8847062.34749  -6878187.12747                  22606928.5214
        45.5004         33.5004
 04  7  6 18 49 50.0000000  0  8G 3G11G14G15G18G19G22G25
  23762398.2094    7511901.51749   5839623.82347                  23762400.0864
        45.7504         27.0004
  24165745.8204   -1320834.51449  -1017148.08546                  24165745.8914
        37.7504         20.5004
  20505201.6094    -802342.21049   -620459.04248                  20505200.0074
        50.7504         44.7504
  20947729.6104    4386394.56749   3412674.49048                  20947728.7124
        52.2504         41.0004
  23873198.2644    7975520.37749   6191566.70646                  23873198.8484
        40.0004         22.7504
  22932045.5384   -1909264.69749  -1479144.70547                  22932043.1524
        44.2504         34.5004
  21752923.7694    3316195.92749   2572590.37048                  21752920.1534
        52.0004         40.2504
  22600668.4564   -8879956.33749  -6903818.77147                  22600668.1974
        44.5004         33.5004
 04  7  6 18 50  0.0000000  0  8G 3G11G14G15G18G19G22G25
  23766709.5484    7534555.60849   5857276.35947                  23766710.7404
        45.7504         27.7504
  24159339.4724   -1354501.61549  -1043382.11746                  24159339.5924
        38.0004         21.2504
  20506603.1224    -794979.13649   -614721.58248                  20506601.1394
        50.2504         44.7504
  20951704.7444    4407283.46149   3428951.54648                  20951704.0394
        52.5004         41.7504
  23876973.2824    7995355.39249   6207022.51946                  23876973.5174
        39.7504         23.0004
  22933323.7444   -1902553.13149  -1473914.90747                  22933321.1464
        43.2504         34.7504
  21754790.3134    3326006.90049   2580235.27448                  21754786.9854
        51.7504         40.5004
  22594413.3734   -8912828.80849  -6929433.66147                  22594413.0634
        45.0004         33.5004
 04  7  6 18 50 10.0000000  0  8G 3G11G14G15G18G19G22G25
  23771022.2234    7557218.66149   5874935.87447                  23771023.0354
        45.2504         26.7504
  24152935.7784   -1388153.75149  -1069604.60046                  24152935.5904
        40.2504         21.5004
  20508010.8584    -787579.37849   -608955.54348                  20508009.2614
        51.2504         44.5004
  20955688.3844    4428218.82749   3445264.80148                  20955688.2434
        52.0004         41.2504
  23880749.0514    8015196.67649   6222483.28846                  23880749.1374
        40.0004         22.5004
  22934609.2184   -1895793.08249  -1468647.34547                  22934607.1734
        44.5004         34.2504
  21756659.7754    3335828.86449   2587888.73948                  21756656.4434
        51.5004         39.7504
  22588161.8074   -8945680.89949  -6955032.70147                  22588161.2344
        43.5004         32.5004
